[[{"header":{"parameterUnit":"m.s-1","parameterCategory":1,"la1":30.6,"la2":29.2853,"lo1":-89.7004,"lo2":-87.6739,"dy":0.0162,"dx":0.0183,"nx":112,"ny":82,"refTime":"2024-04-05T12:00:00:Z","depth":0,"parameterNumber":2,"parameterNumberName":"U-component_of_WINDS"},"data":[0.0,0.0,0.0,0.0,0.0,0.0,0.0,0.0,0.0,0.0,0.0,0.0,0.0,0.0,0.0,0.0,0.0,0.0,0.0,0.0,0.0,0.0,0.0,0.0,0.0,0.0,0.0,0.0,0.0,0.0,0.0,0.0,0.0,0.0,0.0,0.0,0.0,0.0,0.0,0.0,0.0,0.0,0.0,0.0,0.0,0.0,0.0,0.0,0.0,0.0,0.0,0.0,0.0,0.0,0.0,0.0,0.0,0.0,0.0,0.0,0.0,0.0,0.0,0.0,0.0,0.0,0.0,0.0,0.0,0.0,0.0,0.0,0.0,0.0,0.0,0.0,0.0,0.0,0.0,0.0,0.0,0.0,0.0,0.0,0.0,0.0,0.0,0.0,0.0,0.0,-3.4444,-3.5043,-3.7075,-3.8123,-3.7464,-3.7404,-3.5759,-3.1899,0.0,0.0,0.0,0.0,0.0,0.0,0.0,0.0,0.0,0.0,0.0,0.0,0.0,0.0,0.0,0.0,0.0,0.0,0.0,0.0,0.0,0.0,0.0,0.0,0.0,0.0,0.0,0.0,0.0,0.0,0.0,0.0,0.0,0.0,0.0,0.0,0.0,0.0,0.0,0.0,0.0,0.0,0.0,0.0,0.0,0.0,0.0,0.0,0.0,0.0,0.0,0.0,0.0,0.0,0.0,0.0,0.0,0.0,0.0,0.0,0.0,0.0,0.0,0.0,0.0,0.0,0.0,0.0,0.0,0.0,0.0,0.0,0.0,0.0,0.0,0.0,0.0,0.0,0.0,0.0,0.0,0.0,0.0,0.0,0.0,0.0,0.0,0.0,0.0,0.0,0.0,0.0,0.0,0.0,0.0,0.0,0.0,0.0,0.0,0.0,0.0,0.0,0.0,0.0,-3.4083,-3.7434,-3.8153,-3.8123,-3.7464,-3.7404,-3.5968,-3.2557,0.0,0.0,0.0,0.0,0.0,0.0,0.0,0.0,0.0,0.0,0.0,0.0,0.0,0.0,0.0,0.0,0.0,0.0,0.0,0.0,0.0,0.0,0.0,0.0,0.0,0.0,0.0,0.0,0.0,0.0,0.0,0.0,0.0,0.0,0.0,0.0,0.0,0.0,0.0,0.0,0.0,0.0,0.0,0.0,0.0,0.0,0.0,0.0,0.0,0.0,0.0,0.0,0.0,0.0,0.0,0.0,0.0,0.0,0.0,0.0,0.0,0.0,0.0,0.0,0.0,0.0,0.0,0.0,0.0,0.0,0.0,0.0,0.0,0.0,0.0,0.0,0.0,0.0,0.0,0.0,0.0,0.0,0.0,0.0,0.0,0.0,0.0,0.0,0.0,0.0,0.0,0.0,0.0,0.0,0.0,0.0,0.0,0.0,0.0,0.0,0.0,0.0,0.0,-3.3634,-3.4801,-3.8033,-3.8721,-3.8392,-3.7015,-3.7225,-3.5998,-3.2706,-3.2138,0.0,0.0,0.0,0.0,0.0,0.0,0.0,0.0,0.0,0.0,0.0,0.0,0.0,0.0,0.0,0.0,0.0,0.0,0.0,0.0,0.0,0.0,0.0,0.0,0.0,0.0,0.0,0.0,0.0,0.0,0.0,0.0,0.0,0.0,0.0,0.0,0.0,0.0,0.0,0.0,0.0,0.0,0.0,0.0,0.0,0.0,0.0,0.0,0.0,0.0,0.0,0.0,0.0,0.0,0.0,0.0,0.0,0.0,0.0,0.0,0.0,0.0,0.0,0.0,0.0,0.0,0.0,0.0,0.0,0.0,0.0,0.0,0.0,0.0,0.0,0.0,0.0,0.0,0.0,0.0,0.0,0.0,0.0,0.0,0.0,0.0,0.0,0.0,0.0,0.0,0.0,0.0,0.0,0.0,0.0,0.0,0.0,0.0,0.0,0.0,0.0,0.0,-3.531,-3.5848,-3.8153,-3.8721,-3.8272,-3.6626,-3.6477,-3.528,-3.2437,-3.1361,0.0,0.0,0.0,0.0,0.0,0.0,0.0,0.0,0.0,0.0,0.0,0.0,0.0,0.0,0.0,0.0,0.0,0.0,0.0,0.0,0.0,0.0,0.0,0.0,0.0,0.0,0.0,0.0,0.0,0.0,0.0,0.0,0.0,0.0,0.0,0.0,0.0,0.0,0.0,0.0,0.0,0.0,0.0,0.0,0.0,0.0,0.0,0.0,0.0,0.0,0.0,0.0,0.0,0.0,0.0,0.0,0.0,0.0,0.0,0.0,0.0,0.0,0.0,0.0,0.0,0.0,0.0,0.0,0.0,0.0,0.0,0.0,0.0,0.0,0.0,0.0,0.0,0.0,0.0,0.0,0.0,0.0,0.0,0.0,0.0,0.0,0.0,0.0,0.0,0.0,0.0,0.0,0.0,0.0,0.0,0.0,0.0,0.0,0.0,0.0,0.0,0.0,-3.525,-3.6866,-3.8242,-3.7883,-3.7255,-3.6537,-3.4831,-3.3155,-3.166,-2.9806,0.0,0.0,0.0,0.0,0.0,0.0,0.0,0.0,0.0,0.0,0.0,0.0,0.0,0.0,0.0,0.0,0.0,0.0,0.0,0.0,0.0,0.0,0.0,0.0,0.0,0.0,0.0,0.0,0.0,0.0,0.0,0.0,0.0,0.0,0.0,0.0,0.0,0.0,0.0,0.0,0.0,0.0,0.0,0.0,0.0,0.0,0.0,0.0,0.0,0.0,0.0,0.0,0.0,0.0,0.0,0.0,0.0,0.0,0.0,0.0,0.0,0.0,0.0,0.0,0.0,0.0,0.0,0.0,0.0,0.0,0.0,0.0,0.0,0.0,0.0,0.0,0.0,0.0,0.0,0.0,0.0,0.0,0.0,0.0,0.0,0.0,0.0,0.0,0.0,0.0,0.0,0.0,0.0,0.0,0.0,0.0,0.0,0.0,0.0,0.0,0.0,0.0,-3.4262,-3.5761,0.0,-3.7315,-3.6985,-3.5968,-3.519,-3.3993,-3.2228,0.0,0.0,0.0,0.0,0.0,0.0,0.0,0.0,0.0,0.0,0.0,0.0,0.0,0.0,0.0,0.0,0.0,0.0,0.0,0.0,0.0,0.0,0.0,0.0,0.0,0.0,0.0,0.0,0.0,0.0,0.0,0.0,0.0,0.0,0.0,0.0,0.0,0.0,0.0,0.0,0.0,0.0,0.0,0.0,0.0,0.0,0.0,0.0,0.0,0.0,0.0,0.0,0.0,0.0,0.0,0.0,0.0,0.0,0.0,0.0,0.0,0.0,0.0,0.0,0.0,0.0,0.0,0.0,0.0,0.0,0.0,0.0,0.0,0.0,0.0,0.0,0.0,0.0,0.0,0.0,0.0,0.0,0.0,0.0,0.0,0.0,0.0,0.0,0.0,0.0,0.0,0.0,0.0,0.0,0.0,0.0,0.0,0.0,0.0,0.0,0.0,0.0,-3.2317,-3.3844,-3.525,0.0,-3.6686,-3.6447,-3.5579,-3.4532,-3.3425,-3.2258,0.0,0.0,0.0,0.0,0.0,0.0,0.0,0.0,0.0,0.0,0.0,0.0,0.0,0.0,0.0,0.0,0.0,0.0,0.0,0.0,0.0,0.0,0.0,0.0,0.0,0.0,0.0,0.0,0.0,0.0,0.0,0.0,0.0,0.0,0.0,0.0,0.0,0.0,0.0,0.0,0.0,0.0,0.0,0.0,0.0,0.0,0.0,0.0,0.0,0.0,0.0,0.0,0.0,0.0,0.0,0.0,0.0,0.0,0.0,0.0,0.0,0.0,0.0,0.0,0.0,0.0,0.0,0.0,0.0,0.0,0.0,0.0,0.0,0.0,0.0,0.0,0.0,0.0,0.0,0.0,0.0,0.0,0.0,0.0,0.0,0.0,0.0,0.0,0.0,0.0,0.0,0.0,0.0,0.0,0.0,0.0,0.0,0.0,0.0,0.0,0.0,0.0,-3.2378,-3.4262,-3.5759,-3.6417,-3.5908,-3.5519,-3.5489,-3.2437,-3.0821,0.0,0.0,0.0,0.0,0.0,0.0,0.0,0.0,0.0,0.0,0.0,0.0,0.0,0.0,0.0,0.0,0.0,0.0,0.0,0.0,0.0,0.0,0.0,0.0,0.0,0.0,0.0,0.0,0.0,0.0,0.0,0.0,0.0,0.0,0.0,0.0,0.0,0.0,0.0,0.0,0.0,0.0,0.0,0.0,0.0,0.0,0.0,0.0,0.0,0.0,0.0,0.0,0.0,0.0,0.0,0.0,0.0,0.0,0.0,0.0,0.0,0.0,0.0,0.0,0.0,0.0,0.0,0.0,0.0,0.0,0.0,0.0,0.0,0.0,0.0,0.0,0.0,0.0,0.0,0.0,0.0,0.0,0.0,0.0,0.0,0.0,0.0,0.0,0.0,0.0,0.0,0.0,0.0,0.0,0.0,0.0,0.0,0.0,0.0,0.0,0.0,0.0,0.0,-3.178,-3.3932,-3.5579,-3.5759,-3.5609,-3.531,-3.4863,-3.3036,-3.1599,-3.0851,0.0,0.0,0.0,0.0,0.0,0.0,0.0,0.0,0.0,0.0,0.0,0.0,0.0,0.0,0.0,0.0,0.0,0.0,0.0,0.0,0.0,0.0,0.0,0.0,0.0,0.0,0.0,0.0,0.0,0.0,0.0,0.0,0.0,0.0,0.0,0.0,0.0,0.0,0.0,0.0,0.0,0.0,0.0,0.0,0.0,0.0,0.0,0.0,0.0,0.0,0.0,0.0,0.0,0.0,0.0,0.0,0.0,0.0,0.0,0.0,0.0,0.0,0.0,0.0,0.0,0.0,0.0,0.0,0.0,0.0,0.0,0.0,0.0,0.0,0.0,0.0,0.0,0.0,0.0,0.0,0.0,0.0,0.0,0.0,0.0,0.0,0.0,0.0,0.0,0.0,0.0,0.0,0.0,0.0,0.0,0.0,0.0,0.0,0.0,0.0,0.0,0.0,-3.1511,-3.3813,-3.5519,-3.5519,-3.5519,-3.534,-3.4921,-3.3425,-3.1928,-3.0582,0.0,0.0,0.0,0.0,0.0,0.0,0.0,0.0,0.0,0.0,0.0,0.0,0.0,0.0,0.0,0.0,0.0,0.0,0.0,0.0,0.0,0.0,0.0,0.0,0.0,0.0,0.0,0.0,0.0,0.0,0.0,0.0,0.0,0.0,0.0,0.0,0.0,0.0,0.0,0.0,0.0,0.0,0.0,0.0,0.0,0.0,0.0,0.0,0.0,0.0,0.0,0.0,0.0,0.0,0.0,0.0,0.0,0.0,0.0,0.0,0.0,0.0,0.0,0.0,0.0,0.0,0.0,0.0,0.0,0.0,0.0,0.0,0.0,0.0,0.0,0.0,0.0,0.0,0.0,0.0,0.0,0.0,0.0,0.0,0.0,0.0,0.0,0.0,0.0,0.0,0.0,0.0,0.0,0.0,0.0,0.0,0.0,0.0,0.0,0.0,0.0,0.0,-3.166,-3.3933,-3.5519,-3.5579,-3.5549,-3.5489,-3.54,-3.3634,-3.1928,-3.0582,0.0,0.0,0.0,0.0,0.0,0.0,0.0,0.0,0.0,0.0,0.0,0.0,0.0,0.0,0.0,0.0,0.0,0.0,0.0,0.0,0.0,0.0,0.0,0.0,0.0,0.0,0.0,0.0,0.0,0.0,0.0,0.0,0.0,0.0,0.0,0.0,0.0,0.0,0.0,0.0,0.0,0.0,0.0,0.0,0.0,0.0,0.0,0.0,0.0,0.0,0.0,0.0,0.0,0.0,0.0,0.0,0.0,0.0,0.0,0.0,-4.0553,0.0,0.0,0.0,0.0,0.0,0.0,0.0,0.0,0.0,0.0,0.0,0.0,0.0,0.0,0.0,0.0,0.0,0.0,0.0,0.0,0.0,0.0,0.0,0.0,0.0,0.0,0.0,0.0,0.0,0.0,0.0,0.0,0.0,0.0,0.0,0.0,0.0,0.0,0.0,0.0,0.0,-3.2946,-3.4502,-3.5699,-3.6207,-3.5818,-3.528,-3.4773,-3.3365,-3.1928,-3.0582,-2.8786,0.0,0.0,0.0,0.0,0.0,0.0,0.0,0.0,0.0,0.0,0.0,0.0,0.0,0.0,0.0,0.0,0.0,0.0,0.0,0.0,0.0,0.0,0.0,0.0,0.0,0.0,0.0,0.0,0.0,0.0,0.0,0.0,0.0,0.0,0.0,0.0,0.0,0.0,0.0,0.0,0.0,0.0,0.0,0.0,0.0,0.0,0.0,0.0,0.0,0.0,0.0,0.0,0.0,0.0,0.0,0.0,0.0,0.0,0.0,0.0,-4.1474,0.0,0.0,0.0,0.0,0.0,0.0,0.0,0.0,0.0,0.0,0.0,0.0,0.0,0.0,0.0,0.0,0.0,0.0,0.0,0.0,0.0,0.0,0.0,0.0,0.0,0.0,0.0,0.0,0.0,0.0,0.0,0.0,0.0,0.0,0.0,0.0,0.0,0.0,0.0,0.0,-3.2886,-3.4472,-3.5639,-3.5968,-3.5699,-3.537,-3.5011,-3.3754,-3.2287,-3.0612,-2.9292,0.0,0.0,0.0,0.0,0.0,0.0,0.0,0.0,0.0,0.0,0.0,0.0,0.0,0.0,0.0,0.0,0.0,0.0,0.0,0.0,0.0,0.0,0.0,0.0,0.0,0.0,0.0,0.0,0.0,0.0,0.0,0.0,0.0,0.0,0.0,0.0,0.0,0.0,0.0,0.0,0.0,0.0,0.0,0.0,0.0,0.0,0.0,0.0,0.0,0.0,0.0,0.0,0.0,-4.8987,-4.9021,-4.8649,-4.8785,-4.8409,-4.7462,-4.5602,-4.4045,-4.2861,-4.2591,0.0,0.0,0.0,0.0,0.0,0.0,0.0,0.0,0.0,0.0,0.0,0.0,0.0,0.0,0.0,0.0,0.0,0.0,0.0,0.0,0.0,0.0,0.0,0.0,-3.5214,-3.5275,-3.4077,0.0,0.0,0.0,0.0,0.0,0.0,0.0,0.0,0.0,0.0,0.0,-3.2766,-3.4412,-3.5549,-3.5669,-3.5579,-3.5519,-3.5519,-3.4382,-3.2856,-3.0971,-3.0043,-2.8786,0.0,0.0,0.0,0.0,0.0,0.0,0.0,0.0,0.0,0.0,0.0,0.0,0.0,0.0,0.0,0.0,0.0,0.0,0.0,0.0,0.0,0.0,0.0,0.0,0.0,0.0,0.0,0.0,0.0,0.0,0.0,0.0,-4.2252,-4.2895,0.0,0.0,0.0,0.0,0.0,0.0,0.0,0.0,0.0,0.0,0.0,0.0,0.0,-4.7665,-4.8409,-5.0439,-5.1217,-5.0779,-5.345,-5.3653,-5.1758,-5.2435,-5.1995,-5.0608,-5.0272,0.0,-4.5162,-4.3809,0.0,0.0,0.0,0.0,0.0,0.0,0.0,0.0,0.0,0.0,0.0,0.0,0.0,0.0,0.0,0.0,0.0,0.0,0.0,0.0,0.0,0.0,-3.7138,-3.6436,-3.5862,-3.5471,0.0,-3.3847,-3.2556,-3.2287,-3.0941,0.0,0.0,0.0,0.0,0.0,0.0,0.0,-3.4084,-3.4981,-3.5729,-3.6297,-3.5848,-3.5519,-3.5519,-3.4801,-3.3754,-3.2347,-3.0582,-2.9232,-2.8368,-2.72,0.0,0.0,0.0,0.0,0.0,0.0,0.0,0.0,0.0,0.0,0.0,0.0,0.0,0.0,0.0,0.0,0.0,0.0,0.0,0.0,0.0,0.0,0.0,0.0,0.0,0.0,0.0,0.0,0.0,-4.2354,-4.3234,-4.2286,-4.2997,-4.2794,0.0,0.0,0.0,0.0,0.0,0.0,0.0,0.0,0.0,-4.983,-5.0642,-5.1623,-5.2773,-5.416,-5.5074,-5.558,-5.6494,-5.6427,-5.5446,-5.5378,-5.4532,-5.3112,-5.3112,-5.1362,-4.8394,-4.6096,-4.4434,-4.324,0.0,0.0,0.0,0.0,-3.9698,-3.9524,-4.0322,-4.0193,-3.965,-3.9843,0.0,0.0,0.0,0.0,0.0,0.0,0.0,0.0,0.0,0.0,-3.7255,-3.6626,-3.6267,-3.5968,-3.5579,-3.4502,-3.3514,0.0,-3.2377,-3.1629,-3.1152,0.0,0.0,0.0,0.0,-3.2976,-3.4324,-3.507,-3.5609,-3.5908,-3.5669,-3.534,-3.4951,-3.4322,-3.3365,-3.2019,-3.0791,-2.9654,-2.8637,-2.8038,-2.7799,0.0,0.0,0.0,0.0,0.0,0.0,0.0,0.0,0.0,0.0,0.0,0.0,0.0,0.0,0.0,0.0,0.0,0.0,0.0,0.0,0.0,0.0,0.0,0.0,0.0,0.0,0.0,0.0,-4.3876,-4.4587,-4.2354,-4.4553,-4.4959,0.0,0.0,0.0,0.0,0.0,0.0,-5.027,-5.0439,-5.1522,-5.3957,-5.46,-5.5547,-5.6833,-5.7374,-5.822,-5.9268,-5.8727,-5.8355,-5.8152,-5.7611,-5.6562,-5.5141,-5.5141,-5.3708,-5.113,-4.8231,-4.6126,-4.4463,-4.2142,-4.1086,-4.0925,-4.0735,-4.0543,-4.0537,-4.1572,-4.1637,-4.1231,-4.0885,-3.9817,-3.8341,-3.6384,0.0,0.0,0.0,0.0,-3.5789,-3.5938,-3.6836,-3.7584,-3.7315,-3.7105,-3.6776,-3.6148,-3.5459,-3.4773,0.0,-3.3484,-3.2976,-3.2138,0.0,0.0,0.0,0.0,-3.3365,-3.4384,-3.507,-3.5519,-3.5519,-3.5519,-3.531,-3.4771,-3.4113,-3.3275,-3.2079,-3.1212,-3.0253,-2.9146,-2.8936,-2.8697,-2.8364,0.0,0.0,0.0,0.0,0.0,0.0,0.0,0.0,0.0,0.0,0.0,0.0,0.0,0.0,0.0,0.0,0.0,0.0,0.0,0.0,0.0,0.0,0.0,0.0,0.0,0.0,0.0,0.0,0.0,-4.4716,-4.824,0.0,0.0,0.0,0.0,-4.868,-4.939,-5.1116,-5.416,-5.4296,-5.5649,-5.8592,-5.8727,-5.9099,-5.9877,-5.9911,-5.9979,-6.0047,-6.0013,-5.9607,-5.8964,-5.893,-5.8084,-5.6697,-5.6697,-5.5216,-5.2683,-4.9712,-4.7422,-4.5578,-4.3439,-4.2174,-4.1488,-4.0839,-4.0104,-3.9487,-3.9547,-3.9547,-3.9607,-4.0244,-3.9523,-3.8172,-3.6847,-3.5971,0.0,0.0,-3.5908,-3.6567,-3.7165,-3.7823,-3.8512,-3.911,-3.8781,-3.8123,-3.7464,-3.6836,-3.5998,0.0,-3.3425,-3.2736,-3.3305,0.0,-3.2647,-3.3305,-3.3963,-3.4444,-3.4503,-3.507,-3.5519,-3.5519,-3.5519,-3.5489,-3.5459,-3.4863,-3.4174,-3.3455,-3.2168,-3.1122,-3.0432,-2.9834,-2.9804,-3.0342,-2.9175,0.0,0.0,0.0,0.0,0.0,0.0,0.0,0.0,0.0,0.0,0.0,0.0,0.0,0.0,0.0,0.0,0.0,0.0,0.0,0.0,0.0,0.0,0.0,0.0,0.0,0.0,0.0,0.0,-4.9627,-5.3078,0.0,-5.1319,-5.1758,-5.2706,-5.3923,-5.4702,-5.6427,-5.9438,-5.9607,-6.0317,-6.1873,-6.1907,-6.1806,-6.1569,-6.1569,-6.1332,-6.0858,-6.0351,-5.9708,-5.8998,-5.8524,-5.7509,-5.6053,-5.5342,-5.3634,-5.1183,-4.9432,-4.8072,-4.6896,-4.4626,-4.3313,-4.2682,-4.244,-4.1919,-4.1384,-4.1803,-4.1654,-4.1145,-4.0098,-3.8841,-3.7674,-3.7225,-3.6926,-3.6716,-3.6716,-3.7195,-3.7764,-3.7973,-3.8542,-3.902,-3.8811,-3.8571,-3.8093,-3.7045,-3.6626,-3.6207,-3.531,-3.4412,-3.3844,-3.4114,-3.3574,-3.3365,-3.4054,-3.4354,-3.4683,-3.507,-3.534,-3.5519,-3.5519,-3.5519,-3.534,-3.4891,-3.4233,-3.3574,-3.2916,-3.1989,-3.1182,-3.0522,-3.0283,-3.0103,-2.9924,-2.9056,-2.8727,0.0,0.0,0.0,0.0,0.0,0.0,0.0,0.0,0.0,0.0,0.0,0.0,0.0,0.0,0.0,0.0,0.0,0.0,0.0,0.0,0.0,0.0,0.0,0.0,0.0,0.0,-5.3721,-5.3484,-5.7408,-5.9099,-5.6359,-5.7002,-5.8017,-5.8998,-5.9742,-6.1129,-6.3362,-6.3024,-6.3125,-6.3869,-6.3396,-6.2888,-6.2381,-6.2144,-6.1637,-6.0892,-6.0114,-5.9336,-5.8626,-5.8118,-5.7239,-5.6018,-5.4978,-5.3074,-5.0671,-4.96,-4.8574,-4.7446,-4.5684,-4.4586,-4.3917,-4.3708,-4.324,-4.2761,-4.314,-4.291,-4.2141,-4.0576,-3.917,-3.8033,-3.7823,-3.7734,-3.7734,-3.7734,-3.8212,-3.8751,-3.8751,-3.908,-3.932,-3.8841,-3.8571,-3.8093,-3.7015,-3.6626,-3.6297,-3.5639,-3.513,-3.4863,-3.4863,-3.4472,-3.4322,-3.4771,-3.4863,-3.4981,-3.5459,-3.5519,-3.5519,-3.5519,-3.5519,-3.522,-3.4563,-3.3873,-3.3125,-3.2198,-3.154,-3.0853,-3.0223,-3.0402,-3.0313,-2.9894,-2.9201,-2.8574,-2.8066,0.0,0.0,0.0,0.0,0.0,0.0,0.0,0.0,0.0,0.0,0.0,0.0,0.0,0.0,0.0,0.0,0.0,0.0,0.0,0.0,0.0,0.0,0.0,-4.9052,-5.3653,-5.6731,-5.6122,-6.1197,-6.3328,-5.9708,-6.1975,-6.3666,-6.3666,-6.4275,-6.4986,-6.5696,-6.4377,-6.3937,-6.458,-6.3193,-6.2448,-6.2381,-6.167,-6.0892,-6.008,-5.937,-5.8626,-5.7881,-5.7881,-5.7442,-5.6693,-5.5642,-5.3765,-5.1389,-5.0266,-4.8802,-4.7219,-4.6561,-4.5903,-4.5214,-4.4556,-4.3898,-4.329,-4.329,-4.291,-4.2291,-4.1632,-4.0516,-3.9349,-3.8631,-3.8452,-3.8452,-3.8422,-3.8901,-3.9373,-3.9373,-3.9373,-3.9373,-3.9373,-3.8901,-3.8212,-3.7554,-3.6926,-3.6297,-3.5639,-3.5519,-3.5519,-3.5519,-3.5519,-3.5519,-3.5519,-3.5519,0.0,-3.5519,-3.5519,-3.5519,-3.5519,-3.5519,-3.522,-3.4563,-3.3873,-3.2946,-3.16,-3.0881,-3.0253,-2.9651,-3.0193,-3.0492,-3.0464,-2.9696,-2.8534,-2.7003,0.0,0.0,0.0,0.0,0.0,0.0,0.0,0.0,0.0,0.0,0.0,0.0,0.0,0.0,0.0,0.0,0.0,0.0,0.0,0.0,0.0,-4.9289,-5.2029,-5.2232,-5.6765,-6.0791,-6.2719,-6.5865,-6.7658,-6.7151,-6.6846,-6.6677,-6.6677,-6.6373,-6.6305,-6.6508,-6.6136,-6.5527,-6.4647,-6.4208,-6.3463,-6.2415,-6.167,-6.0892,-6.008,-5.937,-5.8626,-5.7881,-5.734,-5.6697,-5.5881,-5.3569,-5.1869,-5.0568,-4.8778,-4.746,-4.6591,-4.6339,-4.5903,-4.5214,-4.4556,-4.3898,-4.329,-4.329,-4.291,-4.2291,-4.1632,-4.1145,-4.0636,-3.9499,-3.9469,-3.9738,-3.926,-3.926,-3.9373,-3.9373,-3.9373,-3.9373,-3.9373,-3.8901,-3.8212,-3.7554,-3.6926,-3.6297,-3.5639,-3.5519,-3.5519,-3.5519,-3.5519,-3.5519,-3.5519,-3.5519,0.0,-3.5519,-3.5519,-3.5519,-3.5519,-3.5519,-3.522,-3.4563,-3.3873,-3.2946,-3.16,-3.0881,-3.0432,-3.0253,-3.0402,-3.0239,-2.9638,-2.9406,-2.8534,0.0,0.0,0.0,0.0,0.0,0.0,0.0,0.0,0.0,0.0,0.0,0.0,0.0,0.0,0.0,0.0,0.0,0.0,0.0,0.0,0.0,0.0,-5.2841,-5.5886,-5.7476,-6.0858,-6.414,-6.6812,-6.8842,-7.0195,-7.0635,-6.9553,-6.8741,-6.8436,-6.7692,-6.7151,-6.6846,-6.6508,-6.5933,-6.5087,-6.4478,-6.3734,-6.2854,-6.1839,-6.0892,-6.008,-5.937,-5.8626,-5.7848,-5.7137,-5.6145,-5.4904,-5.2519,-5.0841,-4.9615,-4.7946,-4.707,0.0,0.0,0.0,0.0,0.0,-4.3618,-4.329,-4.329,-4.291,-4.2291,-4.1632,-4.1205,-4.0786,-3.9738,-3.9679,-3.9918,-3.9493,-3.9373,-3.9373,-3.9373,-3.9373,-3.9373,-3.9373,-3.8901,-3.8212,-3.7554,-3.6926,-3.6297,-3.5639,-3.5519,0.0,-3.5519,-3.5519,-3.5519,-3.5519,-3.5519,-3.5519,-3.5519,-3.5519,-3.5519,-3.5519,-3.5519,-3.522,-3.4563,-3.3873,0.0,0.0,0.0,-3.0352,-3.0012,-2.9638,0.0,0.0,0.0,-2.8005,-2.6802,0.0,0.0,0.0,-2.631,-2.61,0.0,0.0,0.0,0.0,0.0,0.0,0.0,0.0,0.0,0.0,0.0,0.0,0.0,0.0,0.0,0.0,-5.6427,-5.9641,-6.326,-6.5019,-6.6711,-6.8842,-7.0398,-7.1312,-7.1312,-7.0635,-6.9891,-6.9147,-6.8368,-6.7557,-6.6745,0.0,0.0,0.0,0.0,-6.3463,-6.3396,-6.1907,-6.0825,-6.008,-5.9268,-5.8524,-5.7848,-5.7036,-5.5755,-5.3992,-5.2152,-5.0422,-4.8718,-4.7722,-4.7219,-4.701,-4.6441,-4.5394,-4.4137,-4.3499,-4.329,-4.329,-4.329,0.0,0.0,-4.1662,-4.1025,-4.0457,-3.9679,-3.9433,-3.9529,-3.9403,-3.9373,-3.9373,-3.9373,-3.9373,-3.9373,-3.9373,-3.8841,-3.8123,-3.7524,-3.6866,-3.6207,-3.5609,-3.5519,-3.5519,-3.5519,-3.5519,-3.5519,-3.5519,-3.5519,-3.5519,-3.5519,-3.5519,-3.5519,-3.5519,0.0,0.0,-3.4563,-3.3873,-3.2946,-3.16,-3.0796,-3.0041,-2.9318,-2.854,-2.7981,-2.7736,-2.7756,-2.7374,-2.6575,-2.6575,-2.6575,-2.6575,-2.6575,-2.6549,0.0,0.0,0.0,0.0,0.0,0.0,0.0,0.0,0.0,0.0,0.0,0.0,0.0,0.0,0.0,-5.5615,-5.9167,-6.2415,-6.4918,-6.6542,-6.7895,-6.8977,-7.0398,-7.1312,-7.1312,-7.0635,-6.9891,-6.9147,-6.8368,-6.732,-6.5967,-6.5764,-6.5155,-6.3971,-6.3666,-6.3226,-6.2618,-6.1095,-6.025,-6.008,0.0,0.0,-5.7848,-5.6528,-5.525,-5.3959,-5.1629,-4.9939,-4.8718,-4.7722,-4.6651,-4.5663,-4.5544,-4.4676,-4.3469,-4.3349,-4.329,-4.329,-4.329,-4.32,-4.294,-4.1773,-4.1692,-4.1692,-3.9948,-3.9798,0.0,-3.9559,-3.9373,-3.9373,-3.9373,-3.9373,-3.9373,-3.9373,-3.8482,-3.7554,-3.7434,-3.6507,-3.5669,-3.5519,-3.5519,-3.5519,-3.5519,-3.5519,-3.5519,-3.5519,-3.5519,-3.5519,-3.5519,-3.5519,-3.5519,-3.5519,-3.5519,-3.522,-3.4563,-3.3873,-3.2946,-3.16,-3.025,-2.9464,-2.9289,-2.8963,-2.8479,-2.7703,-2.8125,-2.7945,-2.7153,-2.7153,-2.7153,-2.7153,-2.7153,-2.6927,0.0,0.0,0.0,0.0,0.0,0.0,0.0,0.0,0.0,0.0,0.0,-4.7936,-4.9796,0.0,-5.5919,-6.0047,-6.2584,-6.4681,-6.6542,-6.7793,-6.8504,-6.8504,-6.9519,-7.0364,-7.0703,-6.9722,-6.9045,-6.9113,-6.803,-6.688,-6.5764,-6.5696,-6.5189,-6.4106,-6.37,-6.3159,-6.2381,-6.1264,-6.0317,-5.9539,-5.8795,-5.8051,-5.7306,-5.6224,-5.4881,-5.3432,-5.1307,-4.9773,-4.8687,-4.7359,-4.6022,-4.4796,-4.4796,-4.4197,-4.329,-4.329,-4.329,-4.329,-4.329,-4.312,-4.2671,-4.1713,-4.1422,-4.1145,-3.9828,-3.9649,-3.9828,-3.9463,-3.9373,-3.9373,-3.9373,-3.9373,-3.9373,-3.9373,-3.8631,-3.7823,-3.7494,-3.6656,-3.5908,-3.5579,-3.5519,-3.5519,-3.5519,-3.5519,-3.5519,-3.5519,-3.5519,-3.5519,-3.5519,-3.5519,-3.5519,-3.5519,-3.5519,-3.537,-3.5011,-3.3972,-3.2861,-3.1863,-3.0277,-2.921,-2.8907,-2.843,-2.7949,-2.7533,-2.7756,-2.7828,-2.7695,-2.7695,-2.7695,-2.7695,-2.7971,-2.7519,0.0,0.0,0.0,0.0,0.0,0.0,0.0,0.0,-4.5297,-4.7428,-4.9289,-5.1488,-5.4668,-5.6799,-5.9573,-6.4072,-6.5527,-6.6542,-6.7726,-6.847,-6.8571,-6.7793,-6.8538,-6.9316,-6.9925,-6.8842,-6.8335,-6.8842,-6.759,-6.644,-6.5527,-6.5358,-6.4918,-6.4208,-6.3599,-6.2922,-6.2178,-6.1434,-6.0385,-5.9032,-5.8863,-5.8084,-5.6765,-5.6055,-5.4716,-5.2906,-5.0916,-4.9496,-4.8368,-4.6792,-4.5484,-4.4466,-4.4227,-4.3768,-4.329,-4.329,-4.329,-4.329,-4.329,-4.3,-4.247,-4.1662,-4.1025,-4.0457,-3.9649,-3.9373,-3.9373,-3.9373,-3.9373,-3.9373,-3.9373,-3.9373,-3.9379,-3.926,-3.8691,-3.8033,-3.7375,-3.6746,-3.6148,-3.5609,-3.5519,-3.5519,-3.5519,-3.5519,-3.5519,-3.5519,-3.5519,-3.5519,-3.5519,-3.5519,-3.5519,-3.5519,-3.5519,-3.5459,-3.531,-3.3963,-3.2828,-3.2166,-3.0392,-2.9171,-2.867,-2.7889,-2.7444,-2.7444,-2.7544,-2.7821,-2.8273,-2.8273,-2.8273,-2.8273,-2.8599,-2.7996,-4.2726,-4.1813,-4.2151,-4.4587,-4.4823,-4.5466,0.0,0.0,-4.9796,-5.1352,-5.3957,-5.6258,-5.7306,-6.0385,-6.3396,-6.5256,-6.6745,-6.7692,-6.7895,-6.7996,-6.776,-6.7015,-6.8233,-6.9147,-6.9214,-6.9079,-6.8707,-6.8098,-6.7286,-6.6203,-6.4783,-6.4106,-6.3429,-6.2651,-6.255,-6.2178,-6.1434,-6.0622,-5.981,-5.8998,-5.8355,-5.7577,-5.6765,-5.6055,-5.4716,-5.2836,-5.0177,-4.8418,-4.7362,-4.5975,-4.5334,-4.5065,-4.3898,-4.3349,-4.329,-4.329,-4.329,-4.329,-4.329,-4.326,-4.303,-4.1773,-4.1324,-4.1025,-3.9798,-3.9373,-3.9373,-3.9373,-3.9373,-3.9373,-3.9373,-3.9373,-3.926,-3.8661,-3.8003,-3.7345,-3.6716,-3.6088,-3.5579,-3.5519,-3.5519,-3.5519,-3.5519,-3.5519,-3.5519,-3.5519,-3.5519,-3.5519,-3.5519,-3.5519,-3.5519,-3.5519,-3.5519,-3.525,-3.4683,-3.367,-3.2828,-3.2166,-3.0392,-2.9355,-2.9276,-2.8477,-2.8021,-2.8021,-2.8499,-2.8737,-2.8787,-2.8787,-2.8787,-2.8787,-2.8398,-2.7846,-4.4113,-4.3707,0.0,0.0,-4.6413,-4.8274,-5.0135,-5.1352,-5.2604,-5.4532,-5.6934,-5.9235,-6.0858,-6.3159,-6.5425,0.0,-6.8199,-6.8605,-6.8605,-6.7827,-6.6677,-6.5087,-6.5831,-6.6981,-6.8267,-6.803,-6.7624,-6.7286,-6.6576,-6.5527,-6.4038,-6.3666,-6.299,-6.1806,-6.1772,-6.1197,-5.9979,-5.9641,-5.9099,-5.8355,-5.7611,-5.6867,-5.6156,-5.5412,-5.3725,-5.1394,-4.9846,-4.8004,-4.6052,-4.5125,-4.4496,-4.4107,-4.3499,-4.329,-4.329,-4.329,-4.329,-4.323,-4.291,-4.303,-4.3021,-4.1354,-4.1055,-4.1145,-3.9828,-3.9373,-3.9373,-3.9373,-3.9373,-3.9373,-3.9373,-3.911,-3.8751,-3.8452,-3.7614,-3.6806,-3.6537,-3.5968,-3.5519,-3.5519,-3.5519,-3.5519,-3.5519,-3.5519,-3.5519,-3.5519,-3.5519,-3.5519,-3.5519,-3.5519,-3.5519,-3.5519,-3.5519,-3.54,-3.51,-3.3701,-3.2679,-3.2426,-3.0662,-2.9497,-2.9102,-2.8759,-2.8574,-2.8574,-2.8787,-2.9063,-2.9428,-2.9428,-2.9428,-2.9428,-2.9202,-2.8775,-4.4852,0.0,0.0,-4.6003,-4.8409,-5.0811,-5.1217,-5.2942,-5.4972,-5.7002,-5.9032,-6.1061,-6.3125,-6.4884,-6.6542,-6.8199,-6.8808,-6.8944,-6.8538,-6.7354,-6.5696,-6.3463,-6.3497,-6.441,-6.6203,-6.6271,-6.6203,-6.6203,-6.5493,-6.4613,-6.3565,-6.3125,-6.2415,-6.1332,-6.1095,-6.0351,-5.9032,-5.9032,-5.8626,-5.7881,-5.7137,-5.6427,-5.5683,-5.4735,-5.2782,-5.0115,-4.9609,-4.7817,-4.5244,-4.4586,-4.3977,-4.3559,-4.3349,-4.329,-4.329,-4.329,-4.329,-4.32,-4.262,-4.2671,-4.2761,-4.0995,-4.0726,-4.0905,-3.9768,-3.9373,-3.9373,-3.9373,-3.9373,-3.9373,-3.9373,-3.8901,-3.8332,-3.8153,-3.7285,-3.6447,-3.6237,-3.5848,-3.5519,-3.5519,-3.5519,-3.5519,-3.5519,-3.5519,-3.5519,-3.5519,-3.5519,-3.5519,-3.5519,-3.5519,-3.5519,-3.5519,-3.5519,-3.5519,-3.5519,-3.3734,-3.2593,-3.2593,-3.0846,-2.9603,-2.9176,-2.9139,-2.9139,-2.9139,-2.9139,-2.9377,-2.9804,-2.9804,-2.9804,-2.9804,-2.9804,-2.9578,-4.4412,0.0,-4.5495,-4.9052,-5.1082,-5.2604,-5.4126,-5.5615,-5.7137,-5.8626,-6.0182,-6.1738,-6.3226,-6.529,-6.6812,-6.688,-6.8132,-6.8571,-6.7083,-6.6203,-6.4884,-6.2685,-6.1806,-6.1704,0.0,-6.3835,-6.4681,-6.4681,-6.4005,-6.3565,-6.3531,-6.2144,-6.1366,-6.1298,-6.0554,-5.9776,-5.9032,-5.9032,-5.8626,-5.7881,-5.7137,-5.6427,-5.5683,-5.4194,-5.2018,-4.9416,-4.9384,-4.7817,-4.5244,-4.4586,-4.4317,-4.4227,-4.3529,-4.329,-4.329,-4.329,-4.329,-4.32,-4.262,-4.241,-4.2201,-4.0816,-4.0397,-4.0307,-3.9619,-3.9373,-3.9373,-3.9373,-3.9373,-3.9373,-3.9373,-3.8901,-3.8242,-3.7584,-3.6956,-3.6297,-3.5669,-3.5519,-3.5519,-3.5519,-3.5519,-3.5519,-3.5519,-3.5519,-3.5519,-3.5519,-3.5519,-3.5519,-3.5519,-3.5519,-3.5519,-3.5519,-3.5519,-3.5519,-3.5519,-3.3734,-3.2593,-3.2593,-3.0846,-2.9779,-2.9754,-2.9754,-2.9754,-2.9754,-2.9754,-2.9779,-2.9804,-2.9804,-2.9804,-2.9804,-2.9804,-2.9779,-4.3876,0.0,-4.8646,-5.0405,-5.2706,-5.4837,-5.5818,-5.7205,-5.8254,-5.8254,-5.8287,-5.8457,-5.8964,-6.0486,-6.1975,-6.299,-6.5222,-6.6643,-6.6136,-6.5425,-6.3768,-6.052,-6.0351,0.0,0.0,0.0,0.0,-6.3802,-6.3193,-6.2753,-6.2753,-6.1839,-6.1061,-6.052,-5.9776,-5.9032,-5.8287,-5.8254,-5.7881,-5.7171,-5.5919,-5.4938,-5.4228,-5.3721,-5.2248,-5.0019,-4.9096,-4.7449,-4.5214,-4.4107,-4.3618,-4.3589,-4.3379,-4.329,-4.329,-4.329,-4.329,-4.32,-4.262,-4.2641,-4.2791,-4.1474,-4.1354,-4.1542,-4.0397,-4.0068,-3.9978,-3.9559,-3.9373,-3.9373,-3.9373,-3.8571,-3.7674,-3.7464,-3.6596,-3.5759,-3.5549,-3.5519,-3.5519,-3.5519,-3.5519,-3.5519,-3.5519,-3.5519,-3.5519,-3.5519,-3.5519,-3.5519,-3.5519,-3.5519,-3.5519,-3.5519,-3.5519,-3.5519,-3.5519,-3.3734,-3.2593,-3.2593,-3.0846,-2.9804,-2.9804,-2.9804,-2.9804,-2.9804,-2.9804,-2.9804,-2.9804,-2.9804,-2.9804,-2.9804,-2.9804,-2.9804,-4.5568,-4.7902,-5.0541,-5.2367,-5.4296,-5.5987,-5.6968,-5.7712,-5.8084,-5.7611,-5.6494,-5.5716,-5.5953,-5.6562,-5.7543,-5.9066,-6.1095,-6.2787,-6.3565,-6.2821,-6.14,-5.9268,-5.9201,-5.8558,0.0,0.0,0.0,-6.1806,-6.1975,-6.1873,-6.1569,-6.1129,-6.052,-5.9742,-5.8998,-5.8389,-5.7881,-5.7645,-5.7002,-5.5987,-5.504,-5.4194,-5.3518,-5.3518,-5.2248,-4.9987,-4.8877,-4.7074,-4.4855,-4.3738,-4.329,-4.326,-4.306,-4.3,-4.3,-4.3,-4.3,-4.291,-4.253,-4.2641,-4.2821,-4.1713,-4.1692,-4.1841,-4.0726,-4.0397,-4.0277,-3.9619,-3.9373,-3.9373,-3.9373,-3.8601,-3.7764,-3.7764,-3.6956,-3.6118,-3.5908,-3.5848,-3.5789,-3.5549,-3.5519,-3.5519,-3.5519,-3.5519,-3.5519,-3.5519,-3.5519,-3.5519,-3.5519,-3.5519,-3.5519,-3.5519,-3.5519,-3.5519,-3.5519,-3.3734,-3.2593,-3.2593,-3.0846,-2.9804,-2.9804,-2.9804,-2.9804,-2.9804,-2.9804,-2.9804,-2.9804,-2.9804,-2.9804,-2.9804,-2.9804,-2.9804,-4.9187,-5.027,-5.1251,-5.4871,-5.5784,-5.6122,-5.7509,-5.7273,-5.6697,-5.6596,-5.4769,-5.3416,-5.4025,0.0,-5.3754,-5.5208,-5.6292,-5.7679,-5.9844,-5.8964,-5.8321,0.0,0.0,0.0,0.0,0.0,0.0,-5.8896,0.0,-6.0926,-6.0216,-6.0114,-5.9776,-5.9032,-5.8287,-5.7881,-5.7881,-5.7137,-5.6021,-5.46,-5.4566,-5.416,-5.3518,-5.345,-5.1951,-4.9352,-4.8652,-4.6823,-4.4257,-4.3559,-4.329,-4.323,-4.2641,-4.244,-4.244,-4.244,-4.244,-4.244,-4.244,-4.244,-4.2351,-4.1722,-4.1474,-4.1354,-4.0666,-4.0457,-4.0307,-3.9619,-3.9373,-3.9373,-3.9373,-3.8901,-3.8392,-3.8392,-3.7883,-3.7255,-3.6656,-3.6537,-3.6327,-3.5699,-3.5519,-3.5519,-3.5519,-3.5519,-3.5519,-3.5519,-3.5519,-3.5519,-3.5519,-3.5519,-3.5519,-3.5519,-3.5519,-3.5519,-3.5519,-3.3734,-3.2593,-3.2593,-3.0846,-2.9804,-2.9804,-2.9804,-2.9804,-2.9804,-2.9804,-2.9804,-2.9804,-2.9804,-2.9804,-2.9804,-2.9804,-2.9804,-5.0676,-5.257,-5.4634,-5.6156,-5.6528,-5.663,-5.7002,-5.6528,-5.5513,-5.3788,-5.1251,-4.9052,-4.8139,-4.9154,0.0,-5.2131,-5.5749,0.0,-6.0757,-6.0655,0.0,-5.9877,0.0,-5.8287,-5.7205,-5.7577,0.0,0.0,-5.9573,-6.0588,-6.096,-6.0419,-5.9776,-5.9032,-5.8287,-5.7881,-5.7881,-5.663,-5.5513,-5.4566,-5.4025,-5.3687,-5.3484,-5.2875,-5.1453,-4.932,-4.8102,-4.6347,-4.4257,-4.3559,-4.329,-4.326,-4.315,-4.309,-4.309,-4.309,-4.309,-4.309,-4.309,-4.309,-4.306,-4.288,-4.2851,-4.2611,-4.1474,-4.1145,-4.0876,-3.9738,-3.9373,-3.9373,-3.9373,-3.8901,-3.8392,-3.8392,-3.7883,-3.7375,-3.7195,-3.7165,-3.6985,-3.6357,-3.5848,-3.5519,-3.5519,-3.5519,-3.5519,-3.5519,-3.5519,-3.5519,-3.5519,-3.5519,-3.5519,-3.5519,-3.5519,-3.5519,-3.5519,-3.3734,-3.2593,-3.2593,-3.0846,-2.9804,-2.9804,-2.9804,-2.9804,-2.9804,-2.9804,-2.9804,-2.9804,-2.9804,-2.9804,-2.9804,-2.9804,-2.9804,-5.3315,-5.4668,-5.5886,-5.663,-5.6562,-5.6156,-5.5513,-5.4532,-5.301,-5.0405,-4.7767,0.0,-4.4857,-4.6007,0.0,0.0,0.0,0.0,-5.9404,-5.9539,-5.9641,0.0,-6.0283,0.0,-5.8355,-5.893,-5.9235,0.0,-5.9336,-5.9979,-6.0723,-6.0047,-5.9438,-5.9032,-5.8287,-5.7577,-5.6934,-5.5784,-5.4837,-5.4093,-5.3687,-5.3518,-5.3484,-5.2672,-5.1254,-4.932,0.0,-4.6153,-4.4257,-4.3559,-4.329,-4.326,-4.303,-4.291,-4.291,-4.291,-4.291,-4.291,-4.291,-4.291,-4.294,-4.32,-4.329,-4.305,-4.1773,-4.1422,-4.1115,-3.9798,-3.9373,-3.9373,-3.9373,-3.914,-3.8841,-3.8841,-3.8571,-3.8212,-3.7913,-3.7853,-3.7554,-3.6656,-3.6178,-3.5938,-3.5938,-3.5938,-3.5938,-3.5938,-3.5699,-3.5519,-3.5519,-3.5519,-3.5519,-3.5519,-3.5519,-3.5519,-3.5519,-3.4109,-3.3017,-3.2629,-3.123,-3.0254,-2.9818,-2.9804,-2.9804,-2.9804,-2.9804,-2.9804,-2.9804,-2.9804,-2.9804,-2.9804,-2.9804,-2.9804,-5.6258,-5.6427,-5.6021,-5.663,-5.6122,-5.504,-5.3551,-5.2029,-5.0067,-4.7124,0.0,-4.3206,-4.3105,-4.3842,-4.5196,-4.753,0.0,-5.2773,-5.7273,-5.734,-5.7983,-6.0825,-6.1129,-6.0858,-6.0182,-6.0655,-6.0757,-6.0148,-5.9438,-5.9336,-6.0047,-5.9505,-5.9032,-5.8727,-5.8084,-5.7036,-5.5581,-5.4905,-5.4228,-5.3518,-5.3518,-5.3518,-5.3484,-5.257,-5.1121,-4.9197,-4.7782,-4.5997,-4.4137,-4.3529,-4.329,-4.323,-4.2701,-4.253,-4.253,-4.253,-4.253,-4.253,-4.244,-4.241,-4.247,-4.291,-4.3021,-4.2811,-4.1624,-4.1302,-4.0995,-3.9768,-3.9373,-3.9373,-3.9373,-3.9373,-3.9373,-3.9373,-3.9373,-3.926,-3.8661,-3.8452,-3.8063,-3.6956,-3.6656,-3.6596,-3.6596,-3.6537,-3.6477,-3.6477,-3.5938,-3.5519,-3.5519,-3.5519,-3.5519,-3.5519,-3.5519,-3.5519,-3.5519,-3.4576,-3.3671,-3.2841,-3.1792,-3.082,-3.0024,-2.9856,-2.9804,-2.9804,-2.9804,-2.9804,-2.9804,-2.9804,-2.9804,-2.9804,-2.9804,-2.9804,-5.7712,-5.7171,-5.663,-5.6765,-5.5344,-5.3484,-5.1961,-5.0473,0.0,0.0,-4.3639,-4.2286,-4.1711,-4.2692,-4.4553,-4.7432,-4.9731,-5.2773,-5.7273,-5.778,-5.8355,0.0,-6.0317,-6.025,-6.0114,-5.9674,0.0,0.0,-5.9438,-5.9336,-6.0047,-5.9979,-5.9066,-5.7239,-5.707,-5.6292,-5.4803,-5.4668,-5.4228,-5.3518,-5.3518,-5.3518,-5.345,-5.2063,-5.0357,-4.8492,-4.7045,0.0,-4.3439,-4.3349,-4.329,-4.329,-4.317,-4.311,-4.311,-4.311,-4.311,-4.309,-4.259,-4.241,-4.2321,-4.1901,-4.1713,-4.1564,-4.0816,-4.0576,-4.0397,-3.9649,-3.9373,-3.9373,-3.9373,-3.9373,-3.9373,-3.9373,-3.9373,-3.9379,-3.926,-3.8781,-3.8332,-3.8093,-3.7614,-3.7255,-3.7255,-3.6836,-3.6477,-3.6477,-3.5938,-3.5519,-3.5519,-3.5519,-3.5519,-3.5519,-3.5519,-3.5519,-3.5519,-3.4576,-3.391,-3.3774,-3.2128,-3.1156,-3.097,-3.0216,-2.9804,-2.9804,-2.9804,-2.9804,-2.9804,-2.9804,-2.9804,-2.9804,-2.9804,-2.9804,-5.893,-5.822,-5.7273,-5.69,-5.5141,-5.2807,-5.0101,0.0,0.0,0.0,-4.167,-4.106,-4.0696,-4.2151,0.0,-4.5872,-4.8037,0.0,0.0,0.0,0.0,0.0,-6.0114,-6.0114,0.0,-5.9776,-5.9708,-6.008,-6.0182,-6.0351,-6.0723,-6.0317,-5.9099,-5.6867,-5.6427,-5.5716,-5.46,-5.4228,-5.3856,-5.3518,-5.3518,-5.3518,-5.345,-5.1928,-5.0191,-4.8336,-4.6853,-4.5122,-4.329,-4.329,-4.329,-4.329,-4.329,-4.329,-4.329,-4.329,-4.329,-4.314,-4.2192,-4.2111,-4.2171,-4.0786,-4.1055,-4.1752,-4.0696,-4.0636,-4.0696,-3.9709,-3.9373,-3.9373,-3.9373,-3.9373,-3.9373,-3.9373,-3.9373,-3.9373,-3.9373,-3.8871,-3.8392,-3.8392,-3.8123,-3.7913,-3.7913,-3.7375,-3.6956,-3.6956,-3.6118,-3.5519,-3.5519,-3.5519,-3.5519,-3.5519,-3.5519,-3.5519,-3.5519,-3.5067,-3.4543,-3.4013,-3.27,-3.1719,-3.1204,-3.033,-2.9804,-2.9804,-2.9804,-2.9804,-2.9804,-2.9804,-2.9804,-2.9804,-2.9804,-2.9804,-5.9404,-5.8896,-5.7881,-5.6833,-5.4769,-5.2063,-4.8477,-4.594,0.0,0.0,-4.0113,-4.0113,-4.0113,-4.1508,-4.3064,0.0,-4.594,-4.8781,0.0,0.0,0.0,0.0,0.0,0.0,-5.9877,-5.9877,0.0,-6.008,-6.0689,-6.1028,-6.1028,-6.0283,-5.8863,-5.663,-5.6021,-5.5277,-5.4363,-5.3788,-5.3518,-5.3518,-5.3518,-5.3518,-5.345,-5.2097,-5.0323,-4.8336,-4.7013,-4.5247,-4.329,-4.329,-4.329,-4.329,-4.329,-4.329,-4.329,-4.329,-4.329,-4.311,-4.1833,-4.1752,-4.1901,-4.0008,-4.0576,-4.1752,-4.0546,-4.0546,-4.0786,-3.9888,-3.9619,-3.9679,-3.9798,-3.9828,-3.9798,-3.9679,-3.9529,-3.9373,-3.9373,-3.899,-3.8601,-3.8601,-3.8601,-3.8601,-3.8601,-3.7943,-3.7404,-3.7404,-3.6327,-3.5519,-3.5519,-3.5519,-3.5519,-3.5519,-3.5519,-3.5519,-3.5519,-3.5326,-3.4839,-3.4047,-3.2912,-3.1947,-3.1204,-3.033,-2.9804,-2.9804,-2.9804,-2.9804,-2.9804,-2.9804,-2.9804,-2.9804,-2.9804,-2.9804,-5.8423,-5.849,-5.8423,-5.6325,-5.3585,-5.0642,-4.7597,0.0,0.0,-4.0587,-4.0113,-4.0113,-4.0113,-4.0282,-4.1094,0.0,0.0,-4.6447,0.0,0.0,0.0,0.0,0.0,0.0,0.0,-5.9133,0.0,-6.0047,-6.0182,-6.0216,-6.0216,-5.9505,-5.8118,-5.585,-5.575,-5.504,-5.3619,-5.3551,-5.3518,-5.3518,-5.3518,-5.3518,-5.3484,-5.2604,-5.0788,-4.8368,-4.7558,-4.5722,0.0,-4.329,-4.329,-4.329,-4.329,-4.329,-4.329,-4.329,-4.329,-4.311,-4.1833,-4.1452,-4.1235,-3.9858,-3.9948,-4.0457,-3.9738,-3.9523,-3.9709,-4.0187,-4.0307,-4.0457,-4.1055,-4.1205,-4.1055,-4.0457,-3.9858,-3.9373,-3.9373,-3.9343,-3.932,-3.932,-3.932,-3.932,-3.932,-3.8272,-3.7404,-3.7404,-3.6327,-3.5519,-3.5519,-3.5519,-3.5519,-3.5519,-3.5519,-3.5519,-3.5519,-3.4643,-3.4109,-3.4013,-3.2307,-3.1278,-3.1204,-3.033,-2.9804,-2.9804,-2.9804,-2.9804,-2.9804,-2.9804,-2.9804,-2.9804,-2.9804,-2.9804,-5.7577,-5.8118,-5.7915,-5.6156,-5.3112,-4.9864,-4.7361,0.0,-4.1711,-4.0383,-4.0113,-4.0113,-4.0113,-4.0113,-4.0383,0.0,0.0,0.0,-4.6718,0.0,0.0,0.0,0.0,0.0,0.0,0.0,-5.8626,-5.9404,-5.9438,-5.9235,-5.8795,-5.849,-5.7543,-5.5784,-5.5277,-5.4532,-5.3518,-5.3518,-5.3518,-5.3518,-5.3518,-5.3518,-5.3484,-5.2672,-5.0889,-4.8368,-4.7622,-4.5784,0.0,-4.329,-4.329,-4.329,-4.329,-4.329,-4.329,-4.329,-4.309,-4.2611,-4.1713,-4.1422,-4.1175,-3.9858,-3.9858,-4.0277,-3.9619,-3.9709,-3.9978,-3.9858,-4.0098,-4.0457,-4.0726,-4.1085,-4.1115,-4.0068,-3.9918,-3.9888,-3.9499,-3.9373,-3.9373,-3.9373,-3.9373,-3.9373,-3.9373,-3.8631,-3.8003,-3.8003,-3.6926,-3.6088,-3.6088,-3.5759,-3.5519,-3.5519,-3.5519,-3.5519,-3.5519,-3.4576,-3.3979,-3.3979,-3.2236,-3.1204,-3.1204,-3.033,-2.9804,-2.9804,-2.9804,-2.9804,-2.9804,-2.9804,-2.9804,-2.9804,-2.9804,-2.9804,-5.5953,-5.707,-5.7205,-5.575,-5.2536,-4.9187,0.0,0.0,-4.1001,-4.0248,-4.0113,-4.0113,-4.0113,-4.0113,-4.0113,0.0,0.0,-4.1399,-4.4209,0.0,0.0,0.0,0.0,-5.4465,0.0,-5.7712,-5.8457,-5.8964,-5.8795,-5.8355,-5.7611,-5.7137,-5.6461,-5.5412,-5.4871,-5.4262,-5.3518,-5.3518,-5.3518,-5.3518,-5.3518,-5.3518,-5.3484,-5.2909,-5.1122,-4.8368,-4.785,-4.5972,0.0,-4.329,-4.329,-4.329,-4.329,-4.329,-4.329,-4.329,-4.291,-4.2291,-4.1662,-4.1265,-4.0905,-3.9798,-3.9738,-4.0068,-3.9798,-4.0038,-4.0337,-4.0068,-4.0606,-4.1265,-4.1265,-4.1324,-4.1145,-4.0217,-4.0068,-3.9978,-3.9529,-3.9373,-3.9373,-3.9373,-3.9373,-3.9373,-3.9373,-3.8841,-3.8392,-3.8392,-3.7464,-3.6686,-3.6507,-3.6088,-3.5729,-3.5519,-3.5519,-3.5519,-3.5519,-3.4312,-3.3602,-3.3602,-3.1829,-3.0809,-3.0809,-3.0139,-2.9804,-2.9804,-2.9804,-2.9804,-2.9804,-2.9804,-2.9804,-2.9804,-2.9804,-2.9804,-5.3315,-5.5141,-5.6461,-5.4972,-5.1792,-4.8443,0.0,0.0,-4.1001,-4.0248,-4.0113,-4.0113,-4.0113,-4.0113,-4.0113,-4.0113,-4.0696,0.0,-4.4276,0.0,0.0,0.0,0.0,-5.2131,-5.4397,-5.7273,-5.8998,-5.9032,-5.8321,0.0,-5.6867,-5.5412,-5.4634,-5.46,-5.46,-5.4262,-5.3518,-5.3518,-5.3518,-5.3518,-5.3518,-5.3518,-5.3518,-5.3484,-5.162,-4.84,-4.84,-4.6448,0.0,-4.329,-4.329,-4.329,-4.329,-4.329,-4.329,-4.329,-4.291,-4.2291,-4.1662,-4.0965,-4.0307,-3.9649,-3.9373,-3.9523,-4.0187,-4.0397,-4.0546,-4.1175,-4.2312,-4.326,-4.326,-4.2342,-4.1422,-4.1354,-4.0367,-3.9403,-3.9373,-3.9373,-3.9373,-3.9373,-3.9373,-3.9373,-3.9373,-3.8841,-3.8392,-3.8392,-3.7823,-3.7165,-3.6567,-3.6477,-3.6237,-3.5579,-3.5519,-3.5519,-3.5519,-3.3734,-3.2593,-3.2593,-3.0846,-2.9818,-2.9818,-2.9804,-2.9804,-2.9804,-2.9804,-2.9804,-2.9804,-2.9804,-2.9804,-2.9804,-2.9804,-2.9804,-4.9357,-5.0913,-5.186,-5.0405,-4.8003,-4.5669,-4.4418,0.0,-4.0383,-4.0146,-4.0113,-4.0113,-4.0113,-4.0113,-4.0282,-4.0764,-4.1035,0.0,0.0,0.0,0.0,-4.9763,-5.345,-5.6055,0.0,0.0,-5.8254,-5.8254,-5.7543,-5.6833,-5.6089,-5.5141,-5.46,-5.46,-5.4093,-5.3754,-5.3518,-5.3518,-5.3518,-5.3518,-5.3518,-5.3518,-5.3518,-5.3518,-5.1654,-4.84,-4.84,-4.6448,-4.329,-4.329,-4.329,-4.329,-4.329,-4.329,-4.323,-4.2851,-4.2252,-4.1632,-4.0935,-4.0277,-3.9709,-3.9463,-3.9373,-3.9469,-3.9679,-3.9738,-3.9948,-4.1055,-4.2013,-4.2671,-4.2671,-4.2701,-4.2372,-4.1025,-4.0726,-4.0516,-3.9619,-3.9373,-3.9373,-3.9373,-3.9373,-3.9373,-3.9373,-3.923,-3.908,-3.908,-3.8512,-3.7853,-3.7195,-3.6746,-3.6237,-3.5579,-3.5519,-3.5519,-3.5519,-3.4308,-3.329,-3.2629,-3.1426,-3.0495,-2.9818,-2.9804,-2.9804,-2.9804,-2.9804,-2.9804,-2.9804,-2.9804,-2.9804,-2.9804,-2.9804,-2.9804,-4.6515,-4.7936,-4.8612,-4.7733,-4.5805,-4.3944,0.0,0.0,-4.0113,-4.0113,-4.0113,-4.0113,-4.0113,-4.0113,-4.0248,-4.0696,-4.0764,0.0,0.0,0.0,0.0,-5.0135,0.0,0.0,0.0,-5.7408,-5.7881,-5.7881,-5.6968,-5.619,-5.575,-5.4735,-5.416,-5.416,-5.3754,-5.3518,-5.3518,-5.3518,-5.3518,-5.3518,-5.3518,-5.3518,-5.3518,-5.3518,-5.1827,-4.894,-4.8546,-4.6674,0.0,-4.3448,-4.329,-4.329,-4.329,-4.314,-4.291,-4.256,-4.1841,-4.0935,-4.0546,-3.9978,-3.9373,-3.9373,-3.9553,-3.9738,-3.9499,-3.9768,-4.0397,-4.1444,-4.2222,-4.2731,-4.2731,-4.2851,-4.2611,-4.1115,-4.0876,-4.0726,-3.9649,-3.9373,-3.9373,-3.9373,-3.9373,-3.9373,-3.9373,-3.9373,-3.9373,-3.9373,-3.905,-3.8542,-3.7853,-3.7225,-3.6596,-3.5938,-3.5878,-3.5878,-3.5878,-3.4723,-3.3739,-3.3157,-3.1938,-3.0932,-3.0343,-3.0011,-2.9804,-2.9804,-2.9804,-2.9804,-2.9804,-2.9804,-2.9804,-2.9804,-2.9804,-2.9804,0.0,-4.5838,-4.638,-4.6346,-4.4722,-4.2997,-4.2286,0.0,0.0,-4.0113,-4.0113,-4.0113,-4.018,-4.0146,-4.0146,-4.0248,-4.0214,-4.0933,0.0,-4.4959,0.0,0.0,-5.3416,0.0,-5.4668,-5.663,-5.7881,-5.7814,-5.6494,-5.5647,-5.5649,-5.4296,-5.3518,-5.3518,-5.3518,-5.3518,-5.3518,-5.3518,-5.3518,-5.3518,-5.3518,-5.3484,-5.3416,-5.3416,-5.2033,0.0,-4.8699,-4.694,-4.4624,-4.3693,-4.329,-4.329,-4.323,-4.288,-4.2381,-4.2291,-4.1444,-4.0397,-4.0337,-3.9918,-3.9373,-3.9373,-3.9828,-4.0217,-3.9619,-4.0337,-4.1542,-4.2141,-4.2761,-4.323,-4.329,-4.2851,-4.2231,-4.1572,-4.0876,-4.0217,-3.9523,-3.9373,-3.9373,-3.9373,-3.9373,-3.9373,-3.9373,-3.9373,-3.9373,-3.9373,-3.9373,-3.917,-3.8482,-3.7853,-3.7255,-3.6626,-3.6537,-3.6537,-3.6477,-3.5053,-3.4167,-3.4099,-3.2371,-3.1352,-3.1278,-3.0381,-2.9895,-2.9895,-2.9818,-2.9804,-2.9804,-2.9804,-2.9804,-2.9804,-2.9804,-2.9804,-4.123,0.0,-4.2388,-4.1839,-4.1264,-4.0857,0.0,-4.035,0.0,0.0,0.0,0.0,0.0,-4.0485,-4.0485,-4.1576,-4.1305,-4.1508,-4.3172,0.0,0.0,-5.2739,-5.5412,-5.6664,-5.5547,-5.6934,-5.7645,-5.7103,-5.6224,-5.5446,-5.4871,-5.3991,-5.3518,-5.3518,-5.3518,-5.3518,-5.3518,-5.3518,-5.3518,-5.3518,-5.3518,-5.3179,-5.257,-5.257,-5.0858,-4.7881,-4.7666,-4.609,-4.3615,-4.3409,-4.329,-4.323,-4.2791,-4.253,-4.2291,-4.1235,-4.0666,-4.0337,-3.9828,-3.9523,-3.9373,-3.9373,-3.9493,-3.9619,-3.9433,-4.0337,-4.1414,-4.1602,-4.2141,-4.2701,-4.317,-4.2851,-4.2231,-4.1572,-4.0876,-4.0217,-3.9523,-3.9373,-3.9373,-3.9373,-3.9373,-3.9373,-3.9373,-3.9373,-3.9373,-3.9373,-3.9373,-3.917,-3.8482,-3.8242,-3.7913,-3.7255,-3.7195,-3.7015,-3.6537,-3.616,-3.5575,-3.4802,-3.3858,-3.3017,-3.2307,-3.1352,-3.0857,-3.0857,-3.0177,-2.9804,-2.9804,-2.9804,-2.9804,-2.9804,-2.9804,-2.9804,-4.0113,-4.0392,-4.0595,-4.0214,-4.0113,-4.0113,-4.0113,0.0,0.0,0.0,0.0,0.0,0.0,-4.0383,-4.035,-4.1162,-4.1238,0.0,0.0,0.0,-5.1657,-5.4228,-5.5919,-5.6833,0.0,-5.7408,-5.7577,-5.6867,-5.6122,-5.5378,-5.4634,-5.389,-5.3518,-5.3518,-5.3518,-5.3518,-5.3518,-5.3145,-5.3145,-5.3518,-5.3145,-5.2739,-5.23,-5.1833,-5.0285,-4.7902,-4.7012,-4.5628,-4.3966,-4.3488,-4.311,-4.2851,-4.253,-4.2021,-4.1384,-4.0666,-4.0217,-3.9888,-3.9559,-3.9373,-3.9373,-3.9373,-3.9373,-3.9373,-3.9373,-4.0127,-4.0995,-4.1294,-4.2073,-4.288,-4.32,-4.2851,-4.2231,-4.1572,-4.0876,-4.0217,-3.9523,-3.9373,-3.9373,-3.9373,-3.9373,-3.9373,-3.9373,-3.9373,-3.9373,-3.9373,-3.9373,-3.929,-3.8901,-3.8571,-3.8242,-3.7913,-3.7853,-3.7734,-3.7375,-3.7345,-3.6752,-3.5297,-3.4482,-3.3774,-3.3262,-3.1911,-3.1007,-3.0545,-3.0062,-2.9804,-2.9804,-2.9804,-2.9804,-2.9804,-2.9804,-2.9804,-4.0113,-4.018,-4.0248,-4.0146,-4.0113,-4.0113,-4.0113,0.0,0.0,0.0,0.0,0.0,0.0,-4.0282,0.0,0.0,0.0,0.0,-4.777,-4.9695,-5.1826,-5.5141,-5.5852,0.0,-5.7442,-5.7645,-5.7408,-5.6697,-5.5953,-5.5209,-5.4465,-5.3856,-5.3518,-5.3518,-5.3518,-5.3518,-5.3518,-5.2841,-5.2841,-5.3484,-5.2672,-5.2232,-5.2098,-5.1193,-4.985,-4.8223,0.0,0.0,-4.451,-4.3563,-4.2851,-4.2381,-4.2171,-4.1422,-4.0397,-4.0277,-3.9888,-3.9373,-3.9373,-3.9373,-3.9373,-3.9373,-3.9373,-3.9373,-3.9373,-3.9948,-4.0666,-4.1235,-4.2192,-4.3021,-4.311,-4.2701,-4.2081,-4.1384,-4.0816,-4.0217,-3.9523,-3.9373,-3.9373,-3.9373,-3.9373,-3.9373,-3.9373,-3.9373,-3.9373,-3.9373,-3.9373,-3.9373,-3.9373,-3.8901,-3.8542,-3.8542,-3.8542,-3.8512,-3.8392,-3.8392,-3.7644,-3.5908,-3.4882,-3.4196,-3.3808,-3.2236,-3.0895,-2.9818,-2.9804,-2.9804,-2.9804,-2.9804,-2.9804,-2.9804,-2.9804,-2.9804,-4.0113,-4.0561,-4.0865,-4.0282,-4.0113,-4.0113,-4.0113,0.0,0.0,0.0,0.0,0.0,0.0,-4.1035,-4.1238,0.0,0.0,-4.6346,0.0,0.0,-5.3416,-5.4634,0.0,-5.7171,-5.6156,-5.6596,-5.6664,-5.5919,-5.5209,-5.4431,-5.3721,-5.3551,-5.3518,-5.3518,-5.3518,-5.3518,-5.3518,-5.3382,-5.3382,-5.3484,-5.2672,-5.1961,-5.132,-5.0582,-4.8895,-4.6545,0.0,-4.5142,-4.3467,-4.2809,-4.25,-4.2291,-4.1145,-4.0576,-4.0337,-3.9768,-3.9499,-3.9373,-3.9373,-3.9373,-3.9373,-3.9373,-3.9373,-3.9373,-3.9373,-4.0277,-4.1302,-4.1354,-4.1534,-4.1803,-4.241,-4.2051,-4.1354,-4.0696,-4.0457,-4.0217,-3.9523,-3.9373,-3.9373,-3.9373,-3.9373,-3.9373,-3.9373,-3.9373,-3.9373,-3.9373,-3.9373,-3.9373,-3.9373,-3.932,-3.926,-3.926,-3.926,-3.902,-3.8452,-3.8392,-3.8033,-3.7165,-3.6462,-3.5127,-3.2904,-3.2522,-3.1573,-2.9818,-2.9804,-2.9804,-2.9804,-2.9804,-2.9804,-2.9804,-2.9804,-2.9804,-4.0113,-4.035,-4.0493,-4.018,-4.0417,-4.0595,-4.018,0.0,0.0,0.0,0.0,0.0,0.0,0.0,-4.3031,-4.5026,0.0,-4.7872,-5.0811,-5.1826,-5.301,0.0,0.0,-5.6596,-5.6325,-5.6596,-5.6325,-5.5209,-5.4769,-5.4262,-5.3551,-5.3518,-5.3518,-5.3518,-5.3518,-5.3518,-5.3518,-5.3518,-5.3281,-5.2841,-5.2469,-5.1691,-5.0576,-5.0156,-4.8559,-4.6173,0.0,-4.4414,-4.2791,-4.253,-4.1991,-4.1235,-4.0636,-4.0187,-3.9828,-3.9493,-3.9373,-3.9373,-3.9373,-3.9373,-3.9373,-3.9373,-3.9373,-3.9499,-3.9828,-4.0367,-4.0935,-4.1294,-4.1662,-4.2111,-4.2731,-4.2132,-4.1294,-4.0995,-4.0666,-4.0217,-3.9523,-3.9373,-3.9373,-3.9373,-3.9373,-3.9373,-3.9373,-3.9373,-3.9373,-3.9373,-3.9373,-3.9373,-3.9373,-3.9373,-3.9373,-3.9373,-3.9373,-3.929,-3.896,-3.896,-3.8512,-3.7464,-3.6836,-3.5697,-3.3974,-3.3043,-3.1974,-3.0582,-3.0062,-2.9804,-2.9804,-2.9804,-2.9804,-2.9804,-2.9804,-2.9804,-4.0113,-4.0248,-4.0316,-4.0146,-4.0493,-4.0832,-4.0451,-4.0383,0.0,0.0,0.0,0.0,0.0,-4.2902,0.0,-4.7703,-4.8446,-4.9494,-5.1928,-5.2131,-5.301,-5.5649,-5.5818,-5.5919,-5.6494,-5.6393,-5.5818,-5.4668,-5.4431,-5.4093,-5.3551,-5.3518,-5.3518,-5.3518,-5.3518,-5.3518,-5.3518,-5.3518,-5.3112,-5.23,-5.2131,-5.1352,-5.0101,-4.9759,-4.8354,-4.6138,-4.5416,-4.4072,-4.2381,-4.2231,-4.1482,-4.0397,-4.0217,-3.9858,-3.9373,-3.9373,-3.9373,-3.9373,-3.9373,-3.9373,-3.9373,-3.9373,-3.9373,-3.9529,-4.0008,-4.0277,-4.0516,-4.0995,-4.1542,-4.2051,-4.2521,-4.2132,-4.1542,-4.1025,-4.0756,-4.0397,-3.9589,-3.9373,-3.9433,-3.9619,-3.9493,-3.9433,-3.9619,-3.9529,-3.9373,-3.9373,-3.9373,-3.9373,-3.9373,-3.9373,-3.9373,-3.9373,-3.9373,-3.9373,-3.9373,-3.9373,-3.8955,-3.7943,-3.7135,-3.6285,-3.5299,-3.4073,-3.2854,-3.1627,-3.079,-3.0303,-3.0156,-3.0055,-3.0055,-3.0156,-3.0156,-3.0156,-4.0113,-4.0595,-4.0967,-4.0282,-4.0146,-4.035,-4.0967,-4.1136,0.0,-4.2868,0.0,0.0,0.0,-4.4519,-4.6278,-4.8545,-5.0067,-5.2029,-5.4972,0.0,-5.4938,-5.6528,-5.6122,-5.575,-5.5749,-5.5175,-5.4702,-5.46,-5.3957,-5.3551,-5.3518,-5.3518,-5.3518,-5.3518,-5.3518,-5.3518,-5.3518,-5.3518,-5.3112,-5.23,-5.1623,-5.0879,-5.0067,-4.9362,-4.8,-4.6208,-4.6138,-4.471,-4.2351,-4.1752,-4.1025,-4.0337,-3.9738,-3.9469,-3.9373,-3.9373,-3.9373,-3.9373,-3.9373,-3.9373,-3.9373,-3.9373,-3.9373,-3.9403,-3.9433,-3.9918,-4.0397,-4.0457,-4.0516,-4.0546,-4.0606,-4.1444,-4.1871,-4.0008,-4.0457,-4.0965,-3.9679,-3.9373,-3.9553,-4.0217,-3.9828,-3.9619,-4.0217,-3.9828,-3.9373,-3.9373,-3.9373,-3.9373,-3.9373,-3.9373,-3.9373,-3.9373,-3.9373,-3.9373,-3.9373,-3.9373,-3.9379,-3.9254,-3.8063,-3.6936,-3.597,-3.5834,-3.4834,-3.2881,-3.234,-3.1798,-3.126,-3.0783,-3.0809,-3.126,-3.126,-3.126,-4.0113,-4.0316,-4.0451,-4.018,-4.0113,-4.0417,0.0,-4.2252,-4.2726,-4.3274,-4.3944,0.0,0.0,0.0,-4.777,-5.0033,-5.1217,-5.2638,-5.4735,-5.4769,-5.4972,-5.6021,-5.5886,-5.5547,-5.5074,-5.4769,-5.4397,-5.3957,-5.3653,-5.3518,-5.3518,-5.3518,-5.3518,-5.3518,-5.3518,-5.3518,-5.3518,-5.3518,-5.2875,-5.1623,-5.2334,-5.1758,-5.0101,-5.0304,-4.8829,-4.6208,-4.6208,-4.4533,-4.1782,-4.1512,-4.0756,-3.9768,-3.9529,-3.9373,-3.9373,-3.9373,-3.9373,-3.9373,-3.9373,-3.9373,-3.9373,-3.9373,-3.9709,-4.0038,-4.0038,-4.0217,-4.0397,-4.0397,-4.0397,-4.0576,-4.1452,-4.1422,-4.1055,-4.0726,-4.0696,-4.0516,-3.9619,-3.9373,-3.9463,-3.9738,-3.9553,-3.9499,-3.9738,-3.9589,-3.9373,-3.9373,-3.9373,-3.9373,-3.9373,-3.9373,-3.9373,-3.9373,-3.9373,-3.9373,-3.9373,-3.9373,-3.9373,-3.9373,-3.8542,-3.7863,-3.7517,-3.6539,-3.5632,-3.4864,-3.343,-3.2607,-3.2408,-3.1508,-3.121,-3.1386,-3.1386,-3.1386,-3.9436,-3.9571,-3.9774,-3.9774,0.0,0.0,-4.2651,-4.3403,-4.4045,-4.4993,-4.5838,-4.6549,-4.7056,0.0,0.0,0.0,-5.1894,-5.3112,-5.4397,-5.4397,-5.4532,-5.5277,-5.5175,-5.4803,-5.4296,-5.4262,-5.4025,-5.3551,-5.3518,-5.3518,-5.3518,-5.3518,-5.3518,-5.3518,-5.3247,-5.3247,-5.3518,-5.3044,-5.2367,-5.1589,-5.2401,-5.1725,-4.9763,-5.027,-4.9093,-4.6627,-4.6124,-4.4338,-4.1812,-4.1295,-4.0427,-3.9373,-3.9373,-3.9373,-3.9373,-3.9373,-3.9373,-3.9373,-3.9373,-3.9373,-3.9373,-3.9373,-3.9738,-4.0098,-4.0098,-4.0098,-4.0098,-4.0098,-4.0098,-4.0337,-4.1482,-4.1235,-4.0726,-4.0756,-4.0576,-4.0217,-3.9523,-3.9373,-3.9433,-3.9679,-3.9523,-3.9499,-3.9679,-3.9559,-3.9373,-3.9373,-3.9373,-3.9373,-3.9373,-3.9373,-3.9373,-3.9373,-3.9373,-3.9373,-3.9373,-3.9373,-3.9373,-3.9373,-3.896,-3.8721,-3.8721,-3.7676,-3.6917,-3.6591,-3.5058,-3.4024,-3.3529,-3.2625,-3.2082,-3.1913,-3.1913,-3.1913,-3.7922,-3.8464,-3.9005,-3.9005,0.0,0.0,-4.4107,-4.4615,-4.5461,-4.8409,-4.8443,-4.7906,-4.7906,-4.8511,0.0,-4.9965,-5.1995,-5.3754,-5.4465,-5.3957,-5.3788,-5.4499,-5.3923,-5.3518,-5.3518,-5.3518,-5.3518,-5.3518,-5.3518,-5.3518,-5.3484,-5.3484,-5.3484,-5.3484,-5.2706,-5.2672,-5.3484,-5.1961,-5.1589,-5.2266,-5.1555,-5.0439,-4.9018,-4.9018,-4.8482,-4.7506,-4.5884,-4.4285,-4.2674,-4.1079,-4.0008,-3.9373,-3.9373,-3.9373,-3.9373,-3.9373,-3.9373,-3.9373,-3.9373,-3.9373,-3.9373,-3.9373,-3.9373,-3.9403,-3.9373,-3.9373,-3.9403,-3.9373,-3.9373,-3.9559,-4.0217,-4.0876,-4.1025,-3.9738,-3.9918,-4.0217,-3.9559,-3.9373,-3.9619,-4.0277,-3.9858,-3.9619,-4.0277,-3.9858,-3.9373,-3.9373,-3.9373,-3.9373,-3.9373,-3.9373,-3.9373,-3.9373,-3.9373,-3.9373,-3.9373,-3.9373,-3.9373,-3.9373,-3.9373,-3.9373,-3.9373,-3.9373,-3.8907,-3.7843,-3.7284,-3.6276,-3.4759,-3.411,-3.3565,-3.3111,-3.3111,-3.3111,-3.9469,-3.9605,0.0,-3.9774,0.0,0.0,0.0,-4.4993,0.0,0.0,-4.9187,-4.868,-4.868,0.0,0.0,-5.0067,-5.1522,-5.2942,-5.3721,-5.3653,-5.3585,-5.3788,-5.3619,-5.3518,-5.3518,-5.3518,-5.3518,-5.3518,-5.3518,-5.3247,-5.2706,-5.2672,-5.2435,-5.1928,-5.1657,-5.1657,-5.1894,-5.1454,-5.1048,-5.0744,-5.0541,-5.0202,-4.9763,-4.9763,-4.8983,-4.7506,-4.5884,-4.4285,-4.2643,-4.0565,-3.9589,-3.9373,-3.9373,-3.9373,-3.9373,-3.9373,-3.9373,-3.9373,-3.9373,-3.9373,-3.9373,-3.9373,-3.9738,-4.0038,-3.9559,-3.9738,-4.0008,-3.9523,-3.9373,-3.9433,-3.9612,-3.9858,-4.0008,-4.0098,-3.9918,-3.9649,-3.9469,-3.9373,-3.9433,-3.9679,-3.9559,-3.9433,-3.9679,-3.9523,-3.9373,-3.9373,-3.9373,-3.9373,-3.9373,-3.9373,-3.9373,-3.9373,-3.9373,-3.9373,-3.9373,-3.9373,-3.9373,-3.9373,-3.9373,-3.9373,-3.9373,-3.9373,-3.9265,-3.8943,-3.8044,-3.7339,-3.6894,-3.5238,-3.4369,-3.4178,-3.3428,-3.3111,-3.9233,-3.9436,0.0,-4.0045,-4.1407,-4.3234,-4.5089,0.0,0.0,0.0,-5.0135,-4.9526,-4.983,-4.9763,0.0,-5.0439,-5.1522,-5.257,-5.3382,-5.3518,-5.3518,-5.3518,-5.3518,-5.3518,-5.3518,-5.3518,-5.3518,-5.3518,-5.3518,-5.3145,-5.2334,-5.23,-5.1961,-5.1219,-5.0913,-5.0913,-5.1185,-5.0642,-5.027,-5.0101,-4.9796,-4.9661,-4.9661,-4.9661,-4.894,-4.7597,-4.534,-4.3255,-4.1331,-3.9962,-3.9373,-3.9373,-3.9373,-3.9373,-3.9373,-3.9373,-3.9373,-3.9373,-3.9373,-3.9373,-3.9373,-3.9373,-3.9679,-3.9948,-3.9493,-3.9709,-3.9918,-3.9493,-3.9373,-3.9373,-3.9373,-3.9373,-3.9529,-3.9918,-3.9709,-3.9373,-3.9373,-3.9373,-3.9373,-3.9373,-3.9373,-3.9373,-3.9373,-3.9373,-3.9373,-3.9373,-3.9373,-3.9373,-3.9373,-3.9373,-3.9373,-3.9373,-3.9373,-3.9373,-3.9373,-3.9373,-3.9373,-3.9373,-3.9373,-3.9373,-3.9373,-3.9373,-3.9373,-3.9373,-3.836,-3.7587,-3.7175,-3.548,-3.447,-3.4037,-3.3386,-3.3111,-3.8091,-3.8633,-3.9343,-4.0045,-4.1914,0.0,-4.6481,-4.912,-5.1285,-5.1894,0.0,-5.0439,-5.1014,-5.0067,-4.9627,-5.0913,-5.1725,-5.2469,-5.3281,-5.3348,-5.3348,-5.3484,-5.345,-5.3382,-5.3382,-5.345,-5.345,-5.3315,-5.3348,-5.301,-5.2164,-5.2097,-5.1758,-5.1048,-5.0338,-5.0304,-5.0982,-4.9695,-4.9323,-4.9965,-4.9255,-4.8917,-4.8917,-4.8984,-4.8453,-4.7396,-4.4398,-4.1656,-3.932,-3.932,-3.9254,-3.9194,-3.9194,-3.926,-3.932,-3.932,-3.9379,-3.9373,-3.9313,-3.9379,-3.9373,-3.9313,-3.9343,-3.9373,-3.9373,-3.9373,-3.9373,-3.9373,-3.9373,-3.9373,-3.9373,-3.9373,-3.9373,-3.9373,-3.9373,-3.9373,-3.9373,-3.9373,-3.9373,-3.9373,-3.9373,-3.9373,-3.9373,-3.9373,-3.9373,-3.9373,-3.9373,-3.9373,-3.9373,-3.9373,-3.9373,-3.9373,-3.9373,-3.9373,-3.9373,-3.9373,-3.9373,-3.9373,-3.9373,-3.9373,-3.9373,-3.9373,-3.9337,-3.9265,-3.8294,-3.7252,-3.6212,-3.5197,-3.4178,-3.324,-3.3154,-3.3111,-3.9639,-4.0155,0.0,0.0,-4.3098,-4.5805,-4.8037,-4.9458,-5.0202,-4.9796,-5.0845,-5.1522,-5.0507,-5.0541,-5.0642,-5.0371,-5.098,-5.1725,-5.2469,-5.2063,-5.2164,-5.3382,-5.2942,-5.257,-5.257,-5.3145,-5.301,-5.1792,-5.2232,-5.1995,-5.0642,-5.0574,-5.0236,-4.9492,-4.9323,-4.9323,-4.9492,-4.9154,-4.9086,-4.9221,-4.8511,-4.8142,-4.8173,-4.8748,-4.7556,-4.4951,-4.3653,-4.1377,-3.8601,-3.8601,-3.8302,-3.7853,-3.7853,-3.8153,-3.8601,-3.8601,-3.896,-3.9313,-3.8811,-3.896,-3.932,-3.8781,-3.896,-3.9373,-3.9373,-3.9373,-3.9373,-3.9373,-3.9373,-3.9373,-3.9373,-3.9373,-3.9373,-3.9373,-3.9373,-3.9373,-3.9373,-3.9373,-3.9373,-3.9373,-3.9373,-3.9373,-3.9373,-3.9373,-3.9373,-3.9373,-3.9373,-3.9373,-3.9373,-3.9373,-3.9373,-3.9373,-3.9373,-3.9373,-3.9373,-3.9373,-3.9373,-3.9373,-3.9373,-3.9373,-3.9373,-3.9373,-3.898,-3.8144,-3.7919,-3.7252,-3.6212,-3.5197,-3.4594,-3.4345,-3.3471,-3.3111,-4.0113,0.0,0.0,-4.2557,0.0,-4.6616,-4.8139,-4.9323,-4.9898,-4.9154,-5.0202,-5.1014,-5.0236,-5.0135,-5.0135,-5.0101,-5.0405,-5.0947,-5.1691,-5.1454,-5.1522,-5.23,-5.2029,-5.1792,-5.1792,-5.2164,-5.2097,-5.1285,-5.1555,-5.1285,-5.0135,-5.0101,-4.9763,-4.9018,-4.9018,-4.8849,-4.8477,-4.8477,-4.8308,-4.7936,-4.7564,-4.7361,-4.7394,-4.7428,-4.6038,-4.3617,-4.2879,-4.0968,-3.8392,-3.8392,-3.8003,-3.7404,-3.7404,-3.7614,-3.7913,-3.7913,-3.8153,-3.8392,-3.8033,-3.8153,-3.8392,-3.8033,-3.8362,-3.8931,-3.8931,-3.917,-3.9373,-3.9373,-3.9373,-3.9373,-3.9373,-3.9373,-3.9373,-3.9373,-3.9373,-3.9373,-3.9373,-3.9373,-3.9373,-3.9373,-3.9373,-3.9373,-3.9373,-3.9373,-3.9373,-3.9373,-3.9373,-3.9373,-3.9373,-3.9373,-3.9373,-3.9373,-3.9373,-3.9373,-3.9373,-3.9373,-3.9373,-3.9373,-3.9373,-3.9373,-3.9373,-3.9373,-3.8907,-3.7843,-3.7291,-3.6515,-3.548,-3.447,-3.3911,-3.3911,-3.3368,-3.3111,-3.9943,0.0,-4.1745,-4.4039,-4.5602,0.0,-4.7703,-4.8849,-4.9593,-4.9086,-4.9593,-5.0067,-4.9932,-4.939,-4.9187,-4.9796,-4.9898,-5.0168,-5.0913,-5.0913,-5.0881,-5.1183,-5.1116,-5.1014,-5.1014,-5.115,-5.1083,-5.0813,-5.0947,-5.071,-4.9932,-4.9796,-4.9424,-4.8849,-4.868,-4.8342,-4.7733,-4.7733,-4.7394,-4.6786,-4.665,-4.6481,-4.621,-4.5737,-4.4643,-4.3039,-4.2334,-4.056,-3.8212,-3.8212,-3.7764,-3.7075,-3.7075,-3.7135,-3.7255,-3.7255,-3.7315,-3.7404,-3.7285,-3.7315,-3.7404,-3.7404,-3.7853,-3.8422,-3.8542,-3.896,-3.9373,-3.9373,-3.9373,-3.9373,-3.9373,-3.9373,-3.9373,-3.9373,-3.9373,-3.9373,-3.9373,-3.9373,-3.9373,-3.9373,-3.9373,-3.9373,-3.9373,-3.9373,-3.9373,-3.9373,-3.9373,-3.9373,-3.9373,-3.9373,-3.9373,-3.9373,-3.9373,-3.9373,-3.9373,-3.9373,-3.9433,-3.9589,-3.9433,-3.9433,-3.9589,-3.9433,-3.8907,-3.7843,-3.6721,-3.5614,-3.4428,-3.3513,-3.3111,-3.3111,-3.3111,-3.3111,-3.9334,0.0,-4.1745,0.0,-4.5229,-4.621,0.0,0.0,-4.8376,0.0,-4.9593,-4.9898,-4.9255,-4.9086,-4.9052,-4.912,-4.9154,-4.939,-5.0135,-4.9695,-4.9763,-5.1082,-5.0642,-5.0236,-5.0236,-5.0845,-5.0676,-4.939,-4.9898,-4.9932,-4.9187,-4.8545,-4.8142,-4.8041,-4.7428,-4.7056,-4.6955,-4.6955,-4.6887,-4.6786,-4.6143,-4.5162,-4.3876,-4.4451,-4.4145,-4.3039,-4.2334,-4.0278,-3.7524,-3.7524,-3.6836,-3.5759,-3.5759,-3.6118,-3.6596,-3.6596,-3.6956,-3.7345,-3.6806,-3.6956,-3.7404,-3.7404,-3.7853,-3.8512,-3.911,-3.9313,-3.9373,-3.9373,-3.9373,-3.9373,-3.9373,-3.9373,-3.9373,-3.9373,-3.9373,-3.9373,-3.9373,-3.9373,-3.9373,-3.9373,-3.9373,-3.9373,-3.9373,-3.9373,-3.9373,-3.9373,-3.9373,-3.9373,-3.9373,-3.9373,-3.9373,-3.9373,-3.9373,-3.9373,-3.9373,-3.9373,-3.9679,-4.0217,-3.9738,-3.9679,-4.0247,-3.9738,-3.8907,-3.7843,-3.6721,-3.5238,-3.3326,-3.3154,-3.3111,-3.3111,-3.3111,-3.3111,-3.958,-4.0087,-4.1102,0.0,-4.4519,-4.5365,-4.6447,0.0,-4.7394,-4.7699,-4.8342,-4.8883,-4.8984,-4.9018,-4.8883,-4.8477,-4.8376,-4.8511,-4.8815,-4.8612,-4.8781,-4.9864,-4.9323,-4.8883,-4.8883,-4.9187,-4.9055,-4.8443,-4.868,-4.8748,-4.8409,-4.7699,-4.7293,-4.7293,-4.6955,-4.6583,-4.6177,-4.6177,-4.5974,-4.5563,-4.5229,-4.4722,-4.4079,-4.4445,-4.3381,-4.1309,-4.1405,-3.9717,-3.6896,-3.6896,-3.6357,-3.5519,-3.5519,-3.5669,-3.5938,-3.5938,-3.6118,-3.6297,-3.6028,-3.6118,-3.6417,-3.6776,-3.7315,-3.7973,-3.8631,-3.911,-3.9373,-3.9373,-3.9373,-3.9373,-3.9373,-3.9373,-3.9373,-3.9373,-3.9373,-3.9373,-3.9373,-3.9373,-3.9373,-3.9373,-3.9373,-3.9373,-3.9373,-3.9373,-3.9373,-3.9373,-3.9373,-3.9373,-3.9373,-3.9373,-3.9373,-3.9373,-3.9373,-3.9559,-3.9948,-3.9619,-3.9858,-4.0876,-3.9978,-3.9709,-4.0367,-3.9768,-3.8907,-3.7843,-3.6721,-3.5453,-3.3995,-3.3386,-3.3111,-3.3111,-3.3111,-3.3111,0.0,0.0,-4.0282,-4.2117,-4.3267,-4.4276,0.0,0.0,-4.6346,0.0,-4.7259,-4.78,-4.8342,-4.8612,-4.8545,-4.7973,-4.7736,-4.7631,-4.7631,-4.7631,-4.7834,-4.8376,-4.797,-4.7631,-4.7631,-4.7631,-4.7631,-4.7631,-4.7631,-4.7631,-4.7631,-4.6921,-4.6515,-4.6515,-4.6346,-4.5974,-4.5432,-4.5432,-4.5026,-4.4282,-4.4513,-4.431,-4.3768,-4.4113,-4.2599,-3.972,-4.0601,-3.9311,-3.6477,-3.6477,-3.6088,-3.5519,-3.5519,-3.5519,-3.5519,-3.5519,-3.5519,-3.5519,-3.5519,-3.5519,-3.5609,-3.6267,-3.6896,-3.7524,-3.8182,-3.8751,-3.92,-3.9343,-3.9134,-3.899,-3.932,-3.9254,-3.92,-3.9379,-3.9373,-3.9373,-3.9373,-3.9373,-3.9373,-3.9373,-3.9373,-3.9373,-3.9373,-3.9373,-3.9373,-3.9373,-3.9373,-3.9373,-3.9373,-3.9373,-3.9373,-3.9373,-3.9373,-3.9679,-4.0337,-3.9948,-4.0217,-4.1602,-4.0397,-3.9948,-4.0636,-3.9858,-3.9017,-3.8219,-3.6905,-3.5694,-3.4718,-3.3911,-3.3419,-3.3294,-3.3144,-3.3144,0.0,-3.8531,0.0,-4.0079,-4.1365,0.0,0.0,0.0,0.0,0.0,-4.6819,-4.6853,-4.6887,-4.7496,-4.7939,-4.7906,-4.7327,-4.6853,-4.6853,-4.6853,-4.6853,-4.6921,-4.6887,-4.6853,-4.6853,-4.6853,-4.6853,-4.6853,-4.6853,-4.6853,-4.6853,-4.6143,-4.5771,-4.5771,-4.506,-4.4716,-4.4682,-4.4682,-4.4248,-4.3477,-4.4215,-4.347,-4.1441,-4.2828,-4.1814,-3.9029,-4.0395,-3.9311,-3.6477,-3.6477,-3.6088,-3.5519,-3.5519,-3.5519,-3.5519,-3.5519,-3.5519,-3.5519,-3.5519,-3.5519,-3.5609,-3.6267,-3.6896,-3.7524,-3.8182,-3.8422,-3.8571,-3.923,-3.8482,-3.7823,-3.9044,-3.8931,-3.8601,-3.926,-3.9373,-3.9373,-3.9373,-3.9373,-3.9373,-3.9373,-3.9373,-3.9373,-3.9373,-3.9373,-3.9373,-3.9373,-3.9373,-3.9373,-3.9373,-3.9373,-3.9373,-3.9373,-3.9373,-3.9679,-4.0337,-4.0367,-4.0905,-4.2261,-4.1085,-4.0636,-4.1294,-4.0098,-3.9373,-3.9301,-3.7252,-3.5694,-3.4718,-3.4635,-3.4338,-3.3847,-3.3319,-3.3345,0.0,0.0,0.0,-3.9681,-4.0493,-4.1271,-4.276,-4.3098,-4.3403,-4.4418,-4.5026,-4.5534,-4.6007,-4.6684,-4.7056,-4.6583,0.0,0.0,0.0,0.0,0.0,0.0,-4.6075,-4.6075,-4.6075,-4.6075,-4.6075,-4.6075,-4.6075,-4.6075,-4.6075,-4.5399,-4.4993,-4.4993,-4.4248,-4.3606,-4.3132,-4.3098,-4.2963,-4.2692,-4.2997,-4.2692,-4.1914,-4.2455,-4.1573,-3.9666,-3.9647,-3.8494,-3.6532,-3.6047,-3.5729,-3.5519,-3.5519,-3.5519,-3.5519,-3.5519,-3.5519,-3.5519,-3.5519,-3.5519,-3.5609,-3.6267,-3.6626,-3.6926,-3.7554,-3.7764,-3.7823,-3.8063,-3.7764,-3.7524,-3.8003,-3.8272,-3.8571,-3.926,-3.9373,-3.9373,-3.9373,-3.9373,-3.9373,-3.9373,-3.9373,-3.9373,-3.9373,-3.9373,-3.9373,-3.9373,-3.9373,-3.9373,-3.9373,-3.9373,-3.9373,-3.9373,-3.9798,-4.0307,-4.0965,-4.1025,-4.1594,-4.291,-4.1354,-4.0876,-4.2021,-4.0756,-4.0247,-4.0666,-3.9141,-3.769,-3.6239,-3.4852,-3.4241,-3.4424,-3.3847,-3.3721,-3.64,0.0,0.0,0.0,0.0,-4.0121,-4.1576,0.0,-4.2151,-4.2895,-4.347,-4.3978,-4.4451,0.0,0.0,0.0,0.0,0.0,0.0,0.0,0.0,0.0,0.0,0.0,0.0,-4.4553,-4.4553,-4.4553,-4.4553,0.0,-4.4925,-4.4451,-4.4181,-4.4181,-4.3436,-4.2794,-4.2286,-4.2286,-4.2185,-4.1914,-4.2185,-4.2016,-4.1568,-4.1813,-4.1271,-4.0053,-3.8987,-3.7824,-3.6538,-3.5814,-3.5519,-3.5519,-3.5519,-3.5519,-3.5519,-3.5519,-3.5519,-3.5519,-3.5519,-3.5519,-3.5579,-3.6028,-3.6297,-3.6567,-3.6985,-3.7105,-3.7135,-3.7345,-3.7105,-3.6926,-3.7584,-3.8242,-3.8841,-3.932,-3.9373,-3.9373,-3.9373,-3.9373,-3.9373,-3.9373,-3.9373,-3.9373,-3.9373,-3.9373,-3.9373,-3.9373,-3.9373,-3.9373,-3.9373,-3.9373,-3.9373,-3.9373,-4.0008,-4.0666,-4.1324,-4.1632,-4.2162,-4.323,-4.1893,-4.1444,-4.2351,-4.1362,-4.0935,-4.1422,-3.9873,-3.8649,-3.7717,-3.5703,-3.4781,-3.4931,-3.4424,-3.4073,0.0,0.0,0.0,0.0,0.0,0.0,-4.0798,0.0,-4.1339,-4.2117,0.0,0.0,0.0,0.0,0.0,0.0,0.0,0.0,0.0,0.0,0.0,0.0,0.0,0.0,0.0,0.0,0.0,-4.2286,-4.2286,-4.2625,-4.3308,-4.3375,-4.3341,-4.3341,-4.2625,-4.2252,-4.2219,-4.2219,-4.188,-4.117,-4.188,-4.15,-4.0113,-4.0832,-4.0764,-4.0003,-3.8474,-3.7352,-3.6569,-3.5814,-3.5519,-3.5519,-3.5519,-3.5519,-3.5519,-3.5519,-3.5519,-3.5519,-3.5519,-3.5519,-3.5519,-3.5519,-3.5938,-3.6447,-3.6447,-3.6447,-3.6567,-3.7195,-3.6447,-3.5938,-3.7853,-3.8871,-3.9409,-3.9373,-3.9373,-3.9373,-3.9373,-3.9373,-3.9373,-3.9373,-3.9373,-3.9373,-3.9373,-3.9373,-3.9373,-3.9373,-3.9373,-3.9373,-3.9373,-3.9373,-3.9373,-3.9373,-4.0038,-4.0696,-4.1324,-4.2051,-4.2671,-4.326,-4.2731,-4.241,-4.244,-4.1782,-4.1452,-4.1482,-3.9304,-3.8477,-3.8974,-3.716,-3.6011,-3.5508,-3.4956,-3.4449,-3.56,0.0,0.0,0.0,0.0,0.0,-3.9276,-3.9208,-3.9343,0.0,0.0,0.0,0.0,0.0,0.0,0.0,0.0,0.0,0.0,0.0,0.0,0.0,0.0,0.0,0.0,0.0,-4.2286,0.0,-4.2286,-4.2388,-4.2591,-4.2591,-4.2354,-4.1847,-4.161,-4.1238,-4.0722,-4.0722,-4.062,-4.0417,-4.062,-4.0485,-4.0113,-4.0316,-4.0282,-4.0003,-3.8474,-3.7677,-3.7383,-3.6038,-3.5519,-3.5519,-3.5519,-3.5519,-3.5519,-3.5519,-3.5519,-3.5519,-3.5519,-3.5519,-3.5519,-3.5519,-3.5639,-3.5789,-3.5789,-3.5789,-3.5818,-3.5998,-3.5789,-3.5848,-3.7315,-3.8182,-3.8811,-3.9254,-3.9373,-3.9373,-3.9373,-3.9373,-3.9373,-3.9373,-3.9373,-3.9373,-3.9373,-3.9373,-3.9373,-3.9373,-3.9373,-3.9373,-3.9373,-3.9373,-3.9373,-3.9373,-4.0427,-4.1175,-4.1354,-4.2402,-4.315,-4.329,-4.2731,-4.262,-4.303,-4.2432,-4.2312,-4.2791,-4.1355,-4.0713,-4.0842,-3.7422,-3.5856,-3.6132,-3.5579,-3.4981,0.0,0.0,0.0,0.0,0.0,0.0,-3.8193,-3.7956,-3.7889,0.0,-3.9478,0.0,0.0,0.0,0.0,0.0,0.0,0.0,0.0,0.0,0.0,0.0,0.0,0.0,0.0,-4.1399,-4.1399,-4.1399,-4.1399,-4.1534,-4.1813,-4.1847,-4.1644,-4.1204,-4.0899,-4.0527,-4.0113,-4.0113,-4.0113,-4.0113,-4.0113,-4.0113,-4.0113,-4.0113,-4.0113,-4.0003,-3.8474,-3.7793,-3.7677,-3.6133,-3.5519,-3.5519,-3.5519,-3.5519,-3.5519,-3.5519,-3.5519,-3.5519,-3.5519,-3.5519,-3.5519,-3.5519,-3.5519,-3.5519,-3.5519,-3.5519,-3.5519,-3.5519,-3.5878,-3.6477,-3.7225,-3.8123,-3.8931,-3.932,-3.9373,-3.9373,-3.9373,-3.9373,-3.9373,-3.9373,-3.9373,-3.9373,-3.9373,-3.9373,-3.9373,-3.9373,-3.9373,-3.9373,-3.9373,-3.9373,-3.9493,-3.9798,-4.0756,-4.1542,-4.1811,-4.2731,-4.329,-4.329,-4.297,-4.294,-4.329,-4.297,-4.294,-4.329,-4.2193,-4.1098,-4.0161,-3.7719,-3.6518,-3.6405,-3.6031,-3.5579,0.0,0.0,0.0,0.0,-3.6332,0.0,-3.7483,-3.7246,-3.7032,-3.7753,-3.7855,0.0,0.0,0.0,0.0,0.0,0.0,0.0,0.0,0.0,0.0,0.0,0.0,0.0,-4.0113,-4.0113,-4.0113,-4.0113,-4.0113,-4.0383,-4.1035,-4.1068,-4.1068,-4.1068,-4.0426,-4.0113,-4.0113,-4.0113,-4.0113,-4.0113,-4.0113,-4.0113,-4.0113,-4.0113,-4.0113,-4.0003,-3.8474,-3.7793,-3.7677,-3.6133,-3.5519,-3.5519,-3.5519,-3.5519,-3.5519,-3.5519,-3.5519,-3.5519,-3.5519,-3.5519,-3.5519,-3.5519,-3.5519,-3.5519,-3.5519,-3.5519,-3.5519,-3.5519,-3.6387,-3.7315,-3.7315,-3.8302,-3.932,-3.932,-3.9379,-3.9373,-3.9373,-3.9373,-3.9373,-3.9373,-3.9373,-3.9373,-3.9373,-3.9373,-3.9373,-3.9373,-3.9373,-3.9373,-3.9373,-3.9433,-3.9738,-4.0337,-4.1055,-4.1752,-4.2351,-4.294,-4.329,-4.329,-4.329,-4.329,-4.329,-4.329,-4.329,-4.329,-4.2193,-4.0504,-3.8289,-3.8017,-3.7356,-3.6405,-3.6405,-3.6107,0.0,0.0,0.0,0.0,-3.711,0.0,-3.71,-3.6897,-3.7032,0.0,-3.7415,0.0,0.0,0.0,0.0,0.0,0.0,0.0,0.0,0.0,0.0,0.0,0.0,0.0,-4.0113,-4.0113,-4.0113,-4.0113,-4.0113,-4.018,-4.0316,-4.0316,-4.0316,-4.0316,-4.018,-4.0113,-4.0113,-4.0113,-4.0113,-4.0113,-4.0113,-4.0113,-4.0113,-4.0113,-4.0113,-4.0003,-3.8474,-3.7793,-3.7677,-3.6133,-3.5519,-3.5519,-3.5519,-3.5519,-3.5519,-3.5519,-3.5519,-3.5519,-3.5519,-3.5519,-3.5519,-3.5519,-3.5519,-3.5519,-3.5519,-3.5519,-3.5519,-3.5519,-3.6058,-3.6656,-3.6656,-3.7614,-3.8601,-3.8601,-3.902,-3.9373,-3.9373,-3.9373,-3.9373,-3.9373,-3.9373,-3.9373,-3.9373,-3.9373,-3.9373,-3.9373,-3.9373,-3.9373,-3.9373,-3.9888,-4.0247,-4.0397,-4.1474,-4.2261,-4.2381,-4.294,-4.329,-4.329,-4.329,-4.329,-4.329,-4.329,-4.329,-4.329,-4.2193,-4.0916,-3.9536,-3.7632,-3.6615,-3.6405,-3.6405,-3.6355,0.0,0.0,0.0,-3.7449,0.0,0.0,0.0,-3.622,-3.5983,-3.711,-3.6738,0.0,0.0,0.0,0.0,0.0,0.0,0.0,0.0,0.0,0.0,0.0,0.0,0.0,-4.0113,-4.0113,-4.0113,-4.0113,-4.0113,-4.0113,-4.0113,-4.0113,-4.0113,-4.0113,-4.0113,-4.0113,-4.0113,-4.0113,-4.0113,-4.0113,-4.0113,-4.0113,-4.0113,-4.0113,-4.0113,-4.0003,-3.8474,-3.7793,-3.7677,-3.6133,-3.5519,-3.5519,-3.5519,-3.5519,-3.5519,-3.5519,-3.5519,-3.5519,-3.5519,-3.5519,-3.5519,-3.5519,-3.5519,-3.5519,-3.5519,-3.5519,-3.5579,-3.5908,-3.6237,-3.6626,-3.7255,-3.7913,-3.8482,-3.8811,-3.917,-3.9373,-3.9373,-3.9373,-3.9373,-3.9373,-3.9373,-3.9373,-3.9373,-3.9373,-3.9373,-3.9373,-3.9373,-3.9373,-3.9373,-3.9709,-4.0157,-4.0816,-4.1512,-4.2171,-4.2791,-4.315,-4.329,-4.329,-4.329,-4.329,-4.329,-4.329,-4.3021,-4.2467,-4.1337,-4.0189,-3.9006,-3.7243,-3.6405,-3.6405,-3.6405,-3.6405,0.0,0.0,0.0,0.0,0.0,-3.6366,0.0,0.0,0.0,0.0,0.0,0.0,0.0,0.0,0.0,0.0,0.0,0.0,0.0,0.0,0.0,0.0,0.0,0.0,-4.0113,-4.0113,-4.0113,-4.0113,-4.0113,-4.0113,-4.0113,-4.0113,-4.0113,-4.0113,-4.0113,-4.0113,-4.0113,-4.0113,-4.0113,-4.0113,-4.0113,-4.0113,-4.0113,-4.0113,-4.0113,-4.0003,-3.864,-3.7937,-3.7706,-3.629,-3.5651,-3.5519,-3.5519,-3.5519,-3.5519,-3.5519,-3.5519,-3.5519,-3.5519,-3.5519,-3.5519,-3.5519,-3.5519,-3.5519,-3.5519,-3.5519,-3.5609,-3.6148,-3.6297,-3.6537,-3.7554,-3.8003,-3.8332,-3.8901,-3.9194,-3.9373,-3.9373,-3.9373,-3.9373,-3.9373,-3.9373,-3.9373,-3.9373,-3.9373,-3.9373,-3.9373,-3.9373,-3.9433,-3.9589,-3.9709,-4.0247,-4.1482,-4.1602,-4.2043,-4.32,-4.317,-4.317,-4.329,-4.329,-4.329,-4.329,-4.329,-4.286,-4.1947,-4.0575,-3.9404,-3.8424,-3.7057,-3.6405,-3.6405,-3.6405,-3.6405,0.0,0.0,0.0,0.0,-3.8734,0.0,0.0,0.0,-3.6389,-3.5859,0.0,0.0,0.0,0.0,0.0,0.0,0.0,0.0,0.0,0.0,0.0,-4.0113,-4.0113,0.0,0.0,-4.0113,-4.0113,-4.0113,-4.0113,-4.0113,-4.0113,-4.0113,-4.0113,-4.0113,-4.0113,-4.0113,-4.0113,-4.0113,-4.0113,-4.0113,-4.0113,-4.0113,-4.0113,-4.0113,-4.0113,-4.0028,-3.9183,-3.8386,-3.7735,-3.6813,-3.6071,-3.5519,-3.5519,-3.5519,-3.5519,-3.5519,-3.5519,-3.5519,-3.5519,-3.5519,-3.5519,-3.5519,-3.5519,-3.5519,-3.5519,-3.5519,-3.5519,-3.5579,-3.5609,-3.5639,-3.5789,-3.6686,-3.7524,-3.7614,-3.8542,-3.9373,-3.9373,-3.9373,-3.9373,-3.9373,-3.9373,-3.9373,-3.9373,-3.9373,-3.9373,-3.9373,-3.9373,-3.9619,-4.0217,-4.0786,-4.1482,-4.2201,-4.2291,-4.2551,-4.323,-4.2791,-4.2731,-4.326,-4.329,-4.329,-4.329,-4.329,-4.325,-4.313,-4.1029,-3.9842,-3.9667,-3.7474,-3.6405,-3.6405,-3.6405,-3.6405,0.0,0.0,0.0,0.0,0.0,0.0,-3.8319,0.0,-3.7347,0.0,0.0,0.0,0.0,0.0,0.0,0.0,-3.7889,0.0,0.0,0.0,0.0,0.0,0.0,0.0,0.0,0.0,0.0,-4.0113,-4.0113,-4.0113,-4.0113,-4.0113,-4.0113,-4.0113,-4.0113,-4.0113,-4.0113,-4.0113,-4.0113,-4.0113,-4.0113,-4.0113,-4.0113,-4.0113,-4.0113,-4.0062,-3.9262,-3.8469,-3.7735,-3.6934,-3.6165,-3.5519,-3.5519,-3.5519,-3.5519,-3.5519,-3.5519,-3.5519,-3.5519,-3.5519,-3.5519,-3.5519,-3.5519,-3.5519,-3.5519,-3.5519,-3.5579,-3.5968,-3.5789,-3.5669,-3.6417,-3.6746,-3.7045,-3.7793,-3.8422,-3.8931,-3.932,-3.9373,-3.9373,-3.9373,-3.9373,-3.9373,-3.9373,-3.9373,-3.9373,-3.9373,-3.9738,-4.0098,-4.0367,-4.0965,-4.1542,-4.1811,-4.2171,-4.25,-4.2761,-4.288,-4.303,-4.326,-4.329,-4.329,-4.329,-4.329,-4.2981,-4.2345,-4.0703,-3.9536,-3.8872,-3.7196,-3.6405,-3.6405,-3.6405,-3.6405,-3.9781,0.0,0.0,0.0,0.0,0.0,0.0,0.0,0.0,0.0,0.0,0.0,0.0,0.0,0.0,0.0,0.0,-3.799,0.0,0.0,0.0,0.0,0.0,0.0,0.0,0.0,-4.0113,-4.0113,-4.0113,-4.0113,-4.0113,-4.0113,-4.0113,-4.0113,-4.0113,-4.0113,-4.0113,-4.0113,-4.0113,-4.0113,-4.0113,-4.0113,-4.0113,-4.0113,-4.0113,-4.0087,-3.9473,-3.8799,-3.8019,-3.7263,-3.6477,-3.5814,-3.5814,-3.5683,-3.5519,-3.5519,-3.5519,-3.5519,-3.5519,-3.5519,-3.5519,-3.5519,-3.5519,-3.5519,-3.5519,-3.5519,-3.5609,-3.6088,-3.5878,-3.5729,-3.6656,-3.6806,-3.6985,-3.7913,-3.8392,-3.8811,-3.9284,-3.9373,-3.9373,-3.9373,-3.9373,-3.9373,-3.9373,-3.9373,-3.9373,-3.9373,-3.9978,-4.0457,-4.0636,-4.1235,-4.1752,-4.1893,-4.2231,-4.247,-4.265,-4.291,-4.315,-4.329,-4.329,-4.329,-4.329,-4.329,-4.29,-4.207,-4.0618,-3.9448,-3.8604,-3.7103,-3.6405,-3.6405,-3.6405,-3.6405,0.0,0.0,0.0,-4.007,0.0,0.0,0.0,0.0,-3.7922,0.0,0.0,0.0,0.0,0.0,0.0,0.0,0.0,0.0,0.0,0.0,0.0,0.0,0.0,0.0,0.0,-4.0113,-4.0113,-4.0113,-4.0113,-4.0113,-4.0113,-4.0113,-4.0113,-4.0113,-4.0113,-4.0113,-4.0113,-4.0113,-4.0113,-4.0113,-4.0113,-4.0113,-4.0113,-4.0113,-4.0113,-4.0113,-4.0087,-3.961,-3.8799,-3.8048,-3.7293,-3.6538,-3.6538,-3.6134,-3.5519,-3.5519,-3.5519,-3.5519,-3.5519,-3.5519,-3.5519,-3.5519,-3.5519,-3.5519,-3.5519,-3.5519,-3.5519,-3.5519,-3.5519,-3.5519,-3.5549,-3.6477,-3.7375,-3.7434,-3.8422,-3.9343,-3.9373,-3.9373,-3.9373,-3.9373,-3.9373,-3.9373,-3.9373,-3.9373,-3.9373,-3.9373,-3.9978,-4.0636,-4.1265,-4.1961,-4.2581,-4.317,-4.2731,-4.2611,-4.32,-4.2731,-4.2671,-4.326,-4.329,-4.329,-4.329,-4.329,-4.329,-4.325,-4.1042,-3.9913,-3.9869,-3.752,-3.6405,-3.6405,-3.6405,-3.6405,0.0,0.0,-4.0478,-4.0067,0.0,0.0,0.0,0.0,0.0,0.0,0.0,0.0,0.0,0.0,0.0,0.0,0.0,0.0,0.0,0.0,0.0,0.0,0.0,0.0,0.0,0.0,0.0,-4.0079,-3.9673,-3.9605,-4.0079,-4.0113,-4.0113,-4.0113,-4.0113,-4.0113,-4.0113,-4.0113,-4.0113,-4.0113,-4.0113,-4.0113,-4.0113,-4.0113,-4.0113,-4.0113,-4.0113,-3.9636,-3.8881,-3.8635,-3.7758,-3.66,-3.66,-3.6134,-3.5554,-3.607,-3.5911,-3.5519,-3.5519,-3.5519,-3.5519,-3.5519,-3.5519,-3.5519,-3.5519,-3.5519,-3.5519,-3.5519,-3.5519,-3.5609,-3.6058,-3.6477,-3.7015,-3.7853,-3.8392,-3.8871,-3.932,-3.9373,-3.9373,-3.9373,-3.9373,-3.9373,-3.9373,-3.9768,-4.0068,-4.0068,-4.0636,-4.1294,-4.1991,-4.2611,-4.291,-4.2731,-4.288,-4.291,-4.2701,-4.288,-4.309,-4.329,-4.329,-4.329,-4.329,-4.329,-4.329,-4.329,-4.1042,-3.9692,-3.932,-3.6949,-3.5629,-3.5278,-3.5655,-3.6006,-3.944,-4.0229,0.0,-4.0324,-4.0765,0.0,-4.0548,0.0,-4.0933,0.0,0.0,0.0,0.0,0.0,0.0,0.0,0.0,0.0,0.0,-3.7032,0.0,0.0,0.0,0.0,0.0,0.0,-3.9309,-4.0045,-3.9436,-3.9309,0.0,-4.0113,-4.0113,-4.0113,-4.0113,-4.0113,-4.0113,-4.0113,-4.0113,-4.0113,-4.0113,-4.0113,-4.0113,-4.0113,-4.0113,-4.0113,-4.0113,-3.9825,-3.9315,-3.9016,-3.8157,-3.7024,-3.7024,-3.6415,-3.5554,-3.6038,-3.5911,-3.5519,-3.5519,-3.5519,-3.5519,-3.5519,-3.5519,-3.5519,-3.5519,-3.5519,-3.5549,-3.5789,-3.5848,-3.5998,-3.6656,-3.6985,-3.7375,-3.8182,-3.8571,-3.8871,-3.932,-3.9373,-3.9373,-3.9373,-3.9373,-3.9373,-3.9373,-3.9978,-4.0397,-4.0397,-4.1145,-4.1931,-4.2351,-4.294,-4.314,-4.2761,-4.309,-4.311,-4.2731,-4.309,-4.329,-4.329,-4.329,-4.329,-4.329,-4.329,-4.3409,-4.3648,-4.1156,-3.9802,-3.9624,-3.6845,-3.5307,-3.4981,-3.5132,-3.5429]},{"header":{"parameterUnit":"m.s-1","parameterCategory":1,"la1":30.6,"la2":29.2853,"lo1":-89.7004,"lo2":-87.6739,"dy":0.0162,"dx":0.0183,"nx":112,"ny":82,"refTime":"2024-04-05T12:00:00:Z","depth":0,"parameterNumber":3,"parameterNumberName":"V-component_of_WINDS"},"data":[0.0,0.0,0.0,0.0,0.0,0.0,0.0,0.0,0.0,0.0,0.0,0.0,0.0,0.0,0.0,0.0,0.0,0.0,0.0,0.0,0.0,0.0,0.0,0.0,0.0,0.0,0.0,0.0,0.0,0.0,0.0,0.0,0.0,0.0,0.0,0.0,0.0,0.0,0.0,0.0,0.0,0.0,0.0,0.0,0.0,0.0,0.0,0.0,0.0,0.0,0.0,0.0,0.0,0.0,0.0,0.0,0.0,0.0,0.0,0.0,0.0,0.0,0.0,0.0,0.0,0.0,0.0,0.0,0.0,0.0,0.0,0.0,0.0,0.0,0.0,0.0,0.0,0.0,0.0,0.0,0.0,0.0,0.0,0.0,0.0,0.0,0.0,0.0,0.0,0.0,2.8838,2.9339,3.111,3.1989,3.1436,3.1386,3.0005,2.6826,0.0,0.0,0.0,0.0,0.0,0.0,0.0,0.0,0.0,0.0,0.0,0.0,0.0,0.0,0.0,0.0,0.0,0.0,0.0,0.0,0.0,0.0,0.0,0.0,0.0,0.0,0.0,0.0,0.0,0.0,0.0,0.0,0.0,0.0,0.0,0.0,0.0,0.0,0.0,0.0,0.0,0.0,0.0,0.0,0.0,0.0,0.0,0.0,0.0,0.0,0.0,0.0,0.0,0.0,0.0,0.0,0.0,0.0,0.0,0.0,0.0,0.0,0.0,0.0,0.0,0.0,0.0,0.0,0.0,0.0,0.0,0.0,0.0,0.0,0.0,0.0,0.0,0.0,0.0,0.0,0.0,0.0,0.0,0.0,0.0,0.0,0.0,0.0,0.0,0.0,0.0,0.0,0.0,0.0,0.0,0.0,0.0,0.0,0.0,0.0,0.0,0.0,0.0,0.0,2.8599,3.1411,3.2014,3.1989,3.1436,3.1386,3.0181,2.7379,0.0,0.0,0.0,0.0,0.0,0.0,0.0,0.0,0.0,0.0,0.0,0.0,0.0,0.0,0.0,0.0,0.0,0.0,0.0,0.0,0.0,0.0,0.0,0.0,0.0,0.0,0.0,0.0,0.0,0.0,0.0,0.0,0.0,0.0,0.0,0.0,0.0,0.0,0.0,0.0,0.0,0.0,0.0,0.0,0.0,0.0,0.0,0.0,0.0,0.0,0.0,0.0,0.0,0.0,0.0,0.0,0.0,0.0,0.0,0.0,0.0,0.0,0.0,0.0,0.0,0.0,0.0,0.0,0.0,0.0,0.0,0.0,0.0,0.0,0.0,0.0,0.0,0.0,0.0,0.0,0.0,0.0,0.0,0.0,0.0,0.0,0.0,0.0,0.0,0.0,0.0,0.0,0.0,0.0,0.0,0.0,0.0,0.0,0.0,0.0,0.0,0.0,0.0,2.8222,2.9202,3.1913,3.2491,3.2215,3.106,3.1235,3.0206,2.7444,2.7027,0.0,0.0,0.0,0.0,0.0,0.0,0.0,0.0,0.0,0.0,0.0,0.0,0.0,0.0,0.0,0.0,0.0,0.0,0.0,0.0,0.0,0.0,0.0,0.0,0.0,0.0,0.0,0.0,0.0,0.0,0.0,0.0,0.0,0.0,0.0,0.0,0.0,0.0,0.0,0.0,0.0,0.0,0.0,0.0,0.0,0.0,0.0,0.0,0.0,0.0,0.0,0.0,0.0,0.0,0.0,0.0,0.0,0.0,0.0,0.0,0.0,0.0,0.0,0.0,0.0,0.0,0.0,0.0,0.0,0.0,0.0,0.0,0.0,0.0,0.0,0.0,0.0,0.0,0.0,0.0,0.0,0.0,0.0,0.0,0.0,0.0,0.0,0.0,0.0,0.0,0.0,0.0,0.0,0.0,0.0,0.0,0.0,0.0,0.0,0.0,0.0,0.0,2.9628,3.008,3.2014,3.2491,3.2114,3.0733,3.0608,2.9603,2.7278,2.6373,0.0,0.0,0.0,0.0,0.0,0.0,0.0,0.0,0.0,0.0,0.0,0.0,0.0,0.0,0.0,0.0,0.0,0.0,0.0,0.0,0.0,0.0,0.0,0.0,0.0,0.0,0.0,0.0,0.0,0.0,0.0,0.0,0.0,0.0,0.0,0.0,0.0,0.0,0.0,0.0,0.0,0.0,0.0,0.0,0.0,0.0,0.0,0.0,0.0,0.0,0.0,0.0,0.0,0.0,0.0,0.0,0.0,0.0,0.0,0.0,0.0,0.0,0.0,0.0,0.0,0.0,0.0,0.0,0.0,0.0,0.0,0.0,0.0,0.0,0.0,0.0,0.0,0.0,0.0,0.0,0.0,0.0,0.0,0.0,0.0,0.0,0.0,0.0,0.0,0.0,0.0,0.0,0.0,0.0,0.0,0.0,0.0,0.0,0.0,0.0,0.0,0.0,2.9578,3.0934,3.2089,3.1788,3.126,3.0658,2.9227,2.7821,2.6625,2.5066,0.0,0.0,0.0,0.0,0.0,0.0,0.0,0.0,0.0,0.0,0.0,0.0,0.0,0.0,0.0,0.0,0.0,0.0,0.0,0.0,0.0,0.0,0.0,0.0,0.0,0.0,0.0,0.0,0.0,0.0,0.0,0.0,0.0,0.0,0.0,0.0,0.0,0.0,0.0,0.0,0.0,0.0,0.0,0.0,0.0,0.0,0.0,0.0,0.0,0.0,0.0,0.0,0.0,0.0,0.0,0.0,0.0,0.0,0.0,0.0,0.0,0.0,0.0,0.0,0.0,0.0,0.0,0.0,0.0,0.0,0.0,0.0,0.0,0.0,0.0,0.0,0.0,0.0,0.0,0.0,0.0,0.0,0.0,0.0,0.0,0.0,0.0,0.0,0.0,0.0,0.0,0.0,0.0,0.0,0.0,0.0,0.0,0.0,0.0,0.0,0.0,0.0,2.875,2.9941,0.0,3.1311,3.1035,3.0181,2.9528,2.8524,2.7102,0.0,0.0,0.0,0.0,0.0,0.0,0.0,0.0,0.0,0.0,0.0,0.0,0.0,0.0,0.0,0.0,0.0,0.0,0.0,0.0,0.0,0.0,0.0,0.0,0.0,0.0,0.0,0.0,0.0,0.0,0.0,0.0,0.0,0.0,0.0,0.0,0.0,0.0,0.0,0.0,0.0,0.0,0.0,0.0,0.0,0.0,0.0,0.0,0.0,0.0,0.0,0.0,0.0,0.0,0.0,0.0,0.0,0.0,0.0,0.0,0.0,0.0,0.0,0.0,0.0,0.0,0.0,0.0,0.0,0.0,0.0,0.0,0.0,0.0,0.0,0.0,0.0,0.0,0.0,0.0,0.0,0.0,0.0,0.0,0.0,0.0,0.0,0.0,0.0,0.0,0.0,0.0,0.0,0.0,0.0,0.0,0.0,0.0,0.0,0.0,0.0,0.0,2.7118,2.8398,2.9578,0.0,3.0783,3.0583,2.9854,2.8976,2.8047,2.7128,0.0,0.0,0.0,0.0,0.0,0.0,0.0,0.0,0.0,0.0,0.0,0.0,0.0,0.0,0.0,0.0,0.0,0.0,0.0,0.0,0.0,0.0,0.0,0.0,0.0,0.0,0.0,0.0,0.0,0.0,0.0,0.0,0.0,0.0,0.0,0.0,0.0,0.0,0.0,0.0,0.0,0.0,0.0,0.0,0.0,0.0,0.0,0.0,0.0,0.0,0.0,0.0,0.0,0.0,0.0,0.0,0.0,0.0,0.0,0.0,0.0,0.0,0.0,0.0,0.0,0.0,0.0,0.0,0.0,0.0,0.0,0.0,0.0,0.0,0.0,0.0,0.0,0.0,0.0,0.0,0.0,0.0,0.0,0.0,0.0,0.0,0.0,0.0,0.0,0.0,0.0,0.0,0.0,0.0,0.0,0.0,0.0,0.0,0.0,0.0,0.0,0.0,2.7228,2.875,3.0005,3.0557,3.0131,2.9804,2.9779,2.7218,2.5862,0.0,0.0,0.0,0.0,0.0,0.0,0.0,0.0,0.0,0.0,0.0,0.0,0.0,0.0,0.0,0.0,0.0,0.0,0.0,0.0,0.0,0.0,0.0,0.0,0.0,0.0,0.0,0.0,0.0,0.0,0.0,0.0,0.0,0.0,0.0,0.0,0.0,0.0,0.0,0.0,0.0,0.0,0.0,0.0,0.0,0.0,0.0,0.0,0.0,0.0,0.0,0.0,0.0,0.0,0.0,0.0,0.0,0.0,0.0,0.0,0.0,0.0,0.0,0.0,0.0,0.0,0.0,0.0,0.0,0.0,0.0,0.0,0.0,0.0,0.0,0.0,0.0,0.0,0.0,0.0,0.0,0.0,0.0,0.0,0.0,0.0,0.0,0.0,0.0,0.0,0.0,0.0,0.0,0.0,0.0,0.0,0.0,0.0,0.0,0.0,0.0,0.0,0.0,2.6725,2.8536,2.9854,3.0005,2.988,2.9628,2.9189,2.772,2.6515,2.5887,0.0,0.0,0.0,0.0,0.0,0.0,0.0,0.0,0.0,0.0,0.0,0.0,0.0,0.0,0.0,0.0,0.0,0.0,0.0,0.0,0.0,0.0,0.0,0.0,0.0,0.0,0.0,0.0,0.0,0.0,0.0,0.0,0.0,0.0,0.0,0.0,0.0,0.0,0.0,0.0,0.0,0.0,0.0,0.0,0.0,0.0,0.0,0.0,0.0,0.0,0.0,0.0,0.0,0.0,0.0,0.0,0.0,0.0,0.0,0.0,0.0,0.0,0.0,0.0,0.0,0.0,0.0,0.0,0.0,0.0,0.0,0.0,0.0,0.0,0.0,0.0,0.0,0.0,0.0,0.0,0.0,0.0,0.0,0.0,0.0,0.0,0.0,0.0,0.0,0.0,0.0,0.0,0.0,0.0,0.0,0.0,0.0,0.0,0.0,0.0,0.0,0.0,2.6499,2.8435,2.9804,2.9804,2.9804,2.9654,2.9302,2.8047,2.6791,2.5661,0.0,0.0,0.0,0.0,0.0,0.0,0.0,0.0,0.0,0.0,0.0,0.0,0.0,0.0,0.0,0.0,0.0,0.0,0.0,0.0,0.0,0.0,0.0,0.0,0.0,0.0,0.0,0.0,0.0,0.0,0.0,0.0,0.0,0.0,0.0,0.0,0.0,0.0,0.0,0.0,0.0,0.0,0.0,0.0,0.0,0.0,0.0,0.0,0.0,0.0,0.0,0.0,0.0,0.0,0.0,0.0,0.0,0.0,0.0,0.0,0.0,0.0,0.0,0.0,0.0,0.0,0.0,0.0,0.0,0.0,0.0,0.0,0.0,0.0,0.0,0.0,0.0,0.0,0.0,0.0,0.0,0.0,0.0,0.0,0.0,0.0,0.0,0.0,0.0,0.0,0.0,0.0,0.0,0.0,0.0,0.0,0.0,0.0,0.0,0.0,0.0,0.0,2.6625,2.8473,2.9804,2.9854,2.9829,2.9779,2.9704,2.8222,2.6791,2.5661,0.0,0.0,0.0,0.0,0.0,0.0,0.0,0.0,0.0,0.0,0.0,0.0,0.0,0.0,0.0,0.0,0.0,0.0,0.0,0.0,0.0,0.0,0.0,0.0,0.0,0.0,0.0,0.0,0.0,0.0,0.0,0.0,0.0,0.0,0.0,0.0,0.0,0.0,0.0,0.0,0.0,0.0,0.0,0.0,0.0,0.0,0.0,0.0,0.0,0.0,0.0,0.0,0.0,0.0,0.0,0.0,0.0,0.0,0.0,0.0,2.3354,0.0,0.0,0.0,0.0,0.0,0.0,0.0,0.0,0.0,0.0,0.0,0.0,0.0,0.0,0.0,0.0,0.0,0.0,0.0,0.0,0.0,0.0,0.0,0.0,0.0,0.0,0.0,0.0,0.0,0.0,0.0,0.0,0.0,0.0,0.0,0.0,0.0,0.0,0.0,0.0,0.0,2.7645,2.895,2.9955,3.0382,3.0055,2.9603,2.9113,2.7996,2.6791,2.5661,2.4155,0.0,0.0,0.0,0.0,0.0,0.0,0.0,0.0,0.0,0.0,0.0,0.0,0.0,0.0,0.0,0.0,0.0,0.0,0.0,0.0,0.0,0.0,0.0,0.0,0.0,0.0,0.0,0.0,0.0,0.0,0.0,0.0,0.0,0.0,0.0,0.0,0.0,0.0,0.0,0.0,0.0,0.0,0.0,0.0,0.0,0.0,0.0,0.0,0.0,0.0,0.0,0.0,0.0,0.0,0.0,0.0,0.0,0.0,0.0,0.0,2.3945,0.0,0.0,0.0,0.0,0.0,0.0,0.0,0.0,0.0,0.0,0.0,0.0,0.0,0.0,0.0,0.0,0.0,0.0,0.0,0.0,0.0,0.0,0.0,0.0,0.0,0.0,0.0,0.0,0.0,0.0,0.0,0.0,0.0,0.0,0.0,0.0,0.0,0.0,0.0,0.0,2.7595,2.8925,2.9905,3.0181,2.9955,2.9679,2.9377,2.8323,2.7092,2.5686,2.4525,0.0,0.0,0.0,0.0,0.0,0.0,0.0,0.0,0.0,0.0,0.0,0.0,0.0,0.0,0.0,0.0,0.0,0.0,0.0,0.0,0.0,0.0,0.0,0.0,0.0,0.0,0.0,0.0,0.0,0.0,0.0,0.0,0.0,0.0,0.0,0.0,0.0,0.0,0.0,0.0,0.0,0.0,0.0,0.0,0.0,0.0,0.0,0.0,0.0,0.0,0.0,0.0,0.0,2.8354,2.8374,2.8158,2.8237,2.7949,2.7402,2.6328,2.543,2.4746,2.459,0.0,0.0,0.0,0.0,0.0,0.0,0.0,0.0,0.0,0.0,0.0,0.0,0.0,0.0,0.0,0.0,0.0,0.0,0.0,0.0,0.0,0.0,0.0,0.0,2.7512,2.7498,2.6684,0.0,0.0,0.0,0.0,0.0,0.0,0.0,0.0,0.0,0.0,0.0,2.7494,2.8875,2.9829,2.993,2.9854,2.9804,2.9804,2.885,2.757,2.5988,2.5209,2.4155,0.0,0.0,0.0,0.0,0.0,0.0,0.0,0.0,0.0,0.0,0.0,0.0,0.0,0.0,0.0,0.0,0.0,0.0,0.0,0.0,0.0,0.0,0.0,0.0,0.0,0.0,0.0,0.0,0.0,0.0,0.0,0.0,2.4394,2.4766,0.0,0.0,0.0,0.0,0.0,0.0,0.0,0.0,0.0,0.0,0.0,0.0,0.0,2.7519,2.7949,2.9121,2.957,2.9391,3.0859,3.0976,2.9883,3.0273,3.0019,2.9219,2.9098,0.0,2.6074,2.5293,0.0,0.0,0.0,0.0,0.0,0.0,0.0,0.0,0.0,0.0,0.0,0.0,0.0,0.0,0.0,0.0,0.0,0.0,0.0,0.0,0.0,0.0,3.0546,3.0169,2.976,2.9435,0.0,2.815,2.7076,2.7092,2.5963,0.0,0.0,0.0,0.0,0.0,0.0,0.0,2.8537,2.9352,2.998,3.0457,3.008,2.9804,2.9804,2.9202,2.8323,2.7143,2.5661,2.4474,2.3803,2.2824,0.0,0.0,0.0,0.0,0.0,0.0,0.0,0.0,0.0,0.0,0.0,0.0,0.0,0.0,0.0,0.0,0.0,0.0,0.0,0.0,0.0,0.0,0.0,0.0,0.0,0.0,0.0,0.0,0.0,2.4453,2.4961,2.4414,2.4824,2.4707,0.0,0.0,0.0,0.0,0.0,0.0,0.0,0.0,0.0,2.8769,2.9238,2.9805,3.0469,3.1269,3.1797,3.217,3.2617,3.2578,3.2012,3.1973,3.1484,3.0664,3.0664,3.033,2.9656,2.8248,2.7296,2.6627,0.0,0.0,0.0,0.0,2.7411,2.7933,2.8496,2.834,2.7957,2.8158,0.0,0.0,0.0,0.0,0.0,0.0,0.0,0.0,0.0,0.0,3.126,3.0733,3.0432,3.0181,2.9854,2.895,2.8122,0.0,2.7168,2.654,2.6197,0.0,0.0,0.0,0.0,2.767,2.8737,2.9428,2.988,3.0131,2.993,2.9654,2.9327,2.88,2.7996,2.6927,2.5837,2.4883,2.4029,2.3527,2.3326,0.0,0.0,0.0,0.0,0.0,0.0,0.0,0.0,0.0,0.0,0.0,0.0,0.0,0.0,0.0,0.0,0.0,0.0,0.0,0.0,0.0,0.0,0.0,0.0,0.0,0.0,0.0,0.0,2.5332,2.5742,2.4453,2.5723,2.5957,0.0,0.0,0.0,0.0,0.0,0.0,2.9023,2.9121,2.9746,3.1152,3.1523,3.207,3.2812,3.3125,3.3613,3.4219,3.3906,3.3691,3.3574,3.3262,3.2656,3.1836,3.1836,3.2192,3.2574,3.08,2.9812,2.9499,2.9371,2.951,2.9734,2.9596,2.9727,3.0064,3.0832,3.081,3.044,3.0184,2.9396,2.85,2.8235,0.0,0.0,0.0,0.0,3.003,3.0156,3.0909,3.1537,3.1311,3.1135,3.0859,3.0331,2.9754,2.9113,0.0,2.8097,2.767,2.7027,0.0,0.0,0.0,0.0,2.7996,2.8787,2.9428,2.9804,2.9804,2.9804,2.9628,2.9176,2.8624,2.7921,2.6977,2.6248,2.5385,2.4456,2.428,2.4079,2.3747,0.0,0.0,0.0,0.0,0.0,0.0,0.0,0.0,0.0,0.0,0.0,0.0,0.0,0.0,0.0,0.0,0.0,0.0,0.0,0.0,0.0,0.0,0.0,0.0,0.0,0.0,0.0,0.0,0.0,2.5752,2.7851,0.0,0.0,0.0,0.0,2.8105,2.8516,2.9512,3.1269,3.1348,3.2129,3.3828,3.3906,3.4121,3.457,3.459,3.4629,3.4668,3.4648,3.4414,3.4043,3.4023,3.3535,3.2734,3.2734,3.3095,3.3482,3.1746,3.1611,3.2361,3.1056,3.1136,3.1979,3.1478,3.1972,3.2914,3.2964,3.2964,3.3014,3.3471,3.2871,3.1747,3.0713,3.0116,0.0,0.0,3.0131,3.0683,3.1185,3.1738,3.2315,3.2817,3.2541,3.1989,3.1436,3.0909,3.0206,0.0,2.8047,2.7469,2.7946,0.0,2.7394,2.7946,2.8499,2.8838,2.8888,2.9428,2.9804,2.9804,2.9804,2.9779,2.9754,2.9189,2.8612,2.8072,2.7052,2.6172,2.5536,2.5034,2.5008,2.546,2.4481,0.0,0.0,0.0,0.0,0.0,0.0,0.0,0.0,0.0,0.0,0.0,0.0,0.0,0.0,0.0,0.0,0.0,0.0,0.0,0.0,0.0,0.0,0.0,0.0,0.0,0.0,0.0,0.0,2.8652,3.0644,0.0,2.9629,2.9883,3.043,3.1133,3.1582,3.2578,3.4316,3.4414,3.4824,3.5723,3.5742,3.5684,3.5547,3.5547,3.541,3.5137,3.4844,3.4473,3.4062,3.3789,3.3203,3.2444,3.3417,3.4169,3.4768,3.5097,3.5248,3.5258,3.4944,3.484,3.4873,3.4675,3.4632,3.4726,3.5077,3.4951,3.4525,3.3646,3.2591,3.1612,3.1235,3.0984,3.0809,3.0809,3.121,3.1687,3.1863,3.234,3.2742,3.2566,3.2365,3.1964,3.1085,3.0733,3.0382,2.9628,2.8875,2.8398,2.8562,2.8172,2.7996,2.8512,2.8762,2.9038,2.9428,2.9654,2.9804,2.9804,2.9804,2.9654,2.9277,2.8725,2.8172,2.762,2.6901,2.6223,2.5611,2.541,2.5259,2.5109,2.4381,2.4104,0.0,0.0,0.0,0.0,0.0,0.0,0.0,0.0,0.0,0.0,0.0,0.0,0.0,0.0,0.0,0.0,0.0,0.0,0.0,0.0,0.0,0.0,0.0,0.0,0.0,0.0,3.1016,3.0879,3.3144,3.4121,3.2539,3.291,3.3496,3.4062,3.4492,3.5293,3.6582,3.6387,3.6445,3.6875,3.6601,3.6309,3.6016,3.5879,3.5586,3.5156,3.4707,3.4258,3.3848,3.3555,3.3047,3.2505,3.3938,3.4962,3.5645,3.7122,3.7695,3.774,3.7742,3.7412,3.6933,3.6757,3.6282,3.5881,3.6279,3.6006,3.5282,3.4048,3.2867,3.1913,3.1738,3.1662,3.1662,3.1662,3.2064,3.2516,3.2516,3.2792,3.2993,3.2591,3.2365,3.1964,3.106,3.0733,3.0457,2.9905,2.9478,2.9189,2.9189,2.8925,2.88,2.9176,2.9189,2.9352,2.9754,2.9804,2.9804,2.9804,2.9804,2.9553,2.8938,2.8423,2.7795,2.7077,2.6524,2.5946,2.536,2.5511,2.5435,2.5084,2.4995,2.5003,2.5105,0.0,0.0,0.0,0.0,0.0,0.0,0.0,0.0,0.0,0.0,0.0,0.0,0.0,0.0,0.0,0.0,0.0,0.0,0.0,0.0,0.0,0.0,0.0,2.832,3.0976,3.2754,3.2402,3.5332,3.6562,3.4473,3.5781,3.6758,3.6758,3.7109,3.7519,3.793,3.7168,3.6914,3.7285,3.6484,3.6055,3.6016,3.5605,3.5156,3.4687,3.4277,3.3848,3.3418,3.3418,3.3164,3.2897,3.4349,3.5334,3.5983,3.7535,3.8732,3.9622,3.9069,3.8517,3.7939,3.7387,3.6835,3.6405,3.6405,3.6006,3.5408,3.4856,3.3997,3.3018,3.2416,3.2265,3.2265,3.224,3.2641,3.3111,3.3111,3.3111,3.3111,3.3111,3.2641,3.2064,3.1512,3.0984,3.0457,2.9905,2.9804,2.9804,2.9804,2.9804,2.9804,2.9804,2.9804,0.0,2.9804,2.9804,2.9804,2.9804,2.9804,2.9553,2.8938,2.8423,2.7645,2.6575,2.5912,2.5385,2.4825,2.5335,2.5586,2.5619,2.6447,2.7019,2.7299,0.0,0.0,0.0,0.0,0.0,0.0,0.0,0.0,0.0,0.0,0.0,0.0,0.0,0.0,0.0,0.0,0.0,0.0,0.0,0.0,0.0,2.8457,3.0039,3.0156,3.2773,3.5098,3.6211,3.8027,3.9062,3.8769,3.8594,3.8496,3.8496,3.832,3.8281,3.8398,3.8184,3.7832,3.7324,3.707,3.6641,3.6035,3.5605,3.5156,3.4687,3.4277,3.3848,3.3418,3.3105,3.2734,3.2507,3.4705,3.5565,3.5656,3.8195,3.921,3.9094,3.8969,3.8517,3.7939,3.7387,3.6835,3.6405,3.6405,3.6006,3.5408,3.4856,3.4525,3.4098,3.3144,3.3119,3.3345,3.2943,3.2943,3.3111,3.3111,3.3111,3.3111,3.3111,3.2641,3.2064,3.1512,3.0984,3.0457,2.9905,2.9804,2.9804,2.9804,2.9804,2.9804,2.9804,2.9804,0.0,2.9804,2.9804,2.9804,2.9804,2.9804,2.9553,2.8938,2.8423,2.7645,2.6575,2.5912,2.5536,2.5385,2.5511,2.5884,2.6511,2.6769,2.7019,0.0,0.0,0.0,0.0,0.0,0.0,0.0,0.0,0.0,0.0,0.0,0.0,0.0,0.0,0.0,0.0,0.0,0.0,0.0,0.0,0.0,0.0,3.0508,3.2266,3.3184,3.5137,3.7031,3.8574,3.9746,4.0527,4.0781,4.0156,3.9687,3.9512,3.9082,3.8769,3.8594,3.8398,3.8066,3.7578,3.7226,3.6797,3.6289,3.5703,3.5156,3.4687,3.4277,3.3848,3.3398,3.2988,3.2907,3.3235,3.5092,3.6014,3.6379,3.8739,3.9496,0.0,0.0,0.0,0.0,0.0,3.6681,3.6405,3.6405,3.6006,3.5408,3.4856,3.4575,3.4223,3.3345,3.3294,3.3495,3.3212,3.3111,3.3111,3.3111,3.3111,3.3111,3.3111,3.2641,3.2064,3.1512,3.0984,3.0457,2.9905,2.9804,0.0,2.9804,2.9804,2.9804,2.9804,2.9804,2.9804,2.9804,2.9804,2.9804,2.9804,2.9804,2.9553,2.8938,2.8423,0.0,0.0,0.0,2.5752,2.6147,2.6511,0.0,0.0,0.0,2.8561,2.9058,0.0,0.0,0.0,2.9869,3.0157,0.0,0.0,0.0,0.0,0.0,0.0,0.0,0.0,0.0,0.0,0.0,0.0,0.0,0.0,0.0,0.0,3.2578,3.4434,3.6523,3.7539,3.8516,3.9746,4.0644,4.1172,4.1172,4.0781,4.0351,3.9922,3.9473,3.9004,3.8535,0.0,0.0,0.0,0.0,3.6641,3.6601,3.5742,3.5117,3.4687,3.4219,3.3789,3.3398,3.293,3.3336,3.448,3.5426,3.6466,3.7636,3.9077,3.9622,3.9446,3.8969,3.809,3.7036,3.6581,3.6405,3.6405,3.6405,0.0,0.0,3.4881,3.4424,3.3947,3.3294,3.3162,3.3169,3.3136,3.3111,3.3111,3.3111,3.3111,3.3111,3.3111,3.2591,3.1989,3.1486,3.0934,3.0382,2.988,2.9804,2.9804,2.9804,2.9804,2.9804,2.9804,2.9804,2.9804,2.9804,2.9804,2.9804,2.9804,0.0,0.0,2.8938,2.8423,2.7645,2.6575,2.6013,2.6114,2.6865,2.7803,2.8912,3.0269,3.0357,3.0805,3.16,3.16,3.16,3.16,3.16,3.157,0.0,0.0,0.0,0.0,0.0,0.0,0.0,0.0,0.0,0.0,0.0,0.0,0.0,0.0,0.0,3.2109,3.416,3.6035,3.748,3.8418,3.9199,3.9824,4.0644,4.1172,4.1172,4.0781,4.0351,3.9922,3.9473,3.8867,3.8086,3.7969,3.7617,3.6934,3.6758,3.6504,3.6152,3.5273,3.4785,3.4687,0.0,0.0,3.3398,3.2637,3.3115,3.4459,3.5153,3.62,3.7636,3.9077,3.9145,3.8316,3.8216,3.7487,3.6556,3.6455,3.6405,3.6405,3.6405,3.6329,3.6031,3.5052,3.4906,3.4906,3.352,3.3395,0.0,3.3194,3.3111,3.3111,3.3111,3.3111,3.3111,3.3111,3.229,3.1512,3.1411,3.0633,2.993,2.9804,2.9804,2.9804,2.9804,2.9804,2.9804,2.9804,2.9804,2.9804,2.9804,2.9804,2.9804,2.9804,2.9804,2.9553,2.8938,2.8423,2.7645,2.6575,2.6587,2.6705,2.6897,2.8153,2.9299,3.0299,3.076,3.1448,3.2288,3.2288,3.2288,3.2288,3.2288,3.2019,0.0,0.0,0.0,0.0,0.0,0.0,0.0,0.0,0.0,0.0,0.0,2.7676,2.875,0.0,3.2285,3.4668,3.6133,3.7344,3.8418,3.9141,3.9551,3.9551,4.0137,4.0625,4.082,4.0254,3.9863,3.9902,3.9277,3.8613,3.7969,3.793,3.7637,3.7012,3.6777,3.6465,3.6016,3.5371,3.4824,3.4375,3.3945,3.3516,3.3086,3.2461,3.2894,3.4122,3.4933,3.6162,3.7613,3.878,3.8617,3.7588,3.7588,3.7086,3.6405,3.6405,3.6405,3.6405,3.6405,3.6182,3.5805,3.5002,3.468,3.4525,3.342,3.3269,3.342,3.3187,3.3111,3.3111,3.3111,3.3111,3.3111,3.3111,3.2416,3.1738,3.1461,3.0758,3.0131,2.9854,2.9804,2.9804,2.9804,2.9804,2.9804,2.9804,2.9804,2.9804,2.9804,2.9804,2.9804,2.9804,2.9804,2.9679,2.9377,2.9272,2.8882,2.8066,2.8984,2.9402,2.9097,3.0156,3.0973,3.1395,3.1719,3.2225,3.3006,3.3006,3.3006,3.3006,3.3335,3.2796,0.0,0.0,0.0,0.0,0.0,0.0,0.0,0.0,2.6152,2.7383,2.8457,2.9726,3.1562,3.2793,3.4394,3.6992,3.7832,3.8418,3.9101,3.9531,3.959,3.9141,3.957,4.0019,4.0371,3.9746,3.9453,3.9746,3.9023,3.8359,3.7832,3.7734,3.748,3.707,3.6719,3.6328,3.5898,3.5469,3.4863,3.4082,3.3984,3.3535,3.2773,3.2363,3.2714,3.3786,3.5157,3.6541,3.7959,3.8486,3.8165,3.7312,3.7111,3.6807,3.6405,3.6405,3.6405,3.6405,3.6405,3.6081,3.5558,3.4881,3.4424,3.3947,3.3269,3.3111,3.3111,3.3111,3.3111,3.3111,3.3111,3.3111,3.3043,3.2943,3.2466,3.1913,3.1361,3.0834,3.0331,2.988,2.9804,2.9804,2.9804,2.9804,2.9804,2.9804,2.9804,2.9804,2.9804,2.9804,2.9804,2.9804,2.9804,2.9754,2.9628,3.0114,3.0147,2.9539,3.1198,3.1974,3.1426,3.2224,3.2706,3.2706,3.2826,3.3155,3.3694,3.3694,3.3694,3.3694,3.4083,3.3365,2.4668,2.4141,2.4336,2.5742,2.5879,2.625,0.0,0.0,2.875,2.9648,3.1152,3.248,3.3086,3.4863,3.6601,3.7676,3.8535,3.9082,3.9199,3.9258,3.9121,3.8691,3.9394,3.9922,3.9961,3.9883,3.9668,3.9316,3.8848,3.8223,3.7402,3.7012,3.6621,3.6172,3.6113,3.5898,3.5469,3.5,3.4531,3.4062,3.3691,3.3242,3.2773,3.2363,3.2714,3.3822,3.6205,3.8084,3.939,3.8492,3.804,3.7814,3.6835,3.6455,3.6405,3.6405,3.6405,3.6405,3.6405,3.638,3.6107,3.5052,3.4675,3.4424,3.3395,3.3111,3.3111,3.3111,3.3111,3.3111,3.3111,3.3111,3.2943,3.2441,3.1888,3.1336,3.0809,3.0281,2.9854,2.9804,2.9804,2.9804,2.9804,2.9804,2.9804,2.9804,2.9804,2.9804,2.9804,2.9804,2.9804,2.9804,2.9804,2.9578,2.9038,2.9855,3.0147,2.9539,3.1198,3.2176,3.2089,3.2904,3.3395,3.3395,3.3963,3.4324,3.4384,3.4384,3.4384,3.4384,3.3844,3.3185,2.5469,2.5234,0.0,0.0,2.6797,2.7871,2.8945,2.9648,3.0371,3.1484,3.2871,3.4199,3.5137,3.6465,3.7773,0.0,3.9375,3.9609,3.9609,3.916,3.8496,3.7578,3.8008,3.8672,3.9414,3.9277,3.9043,3.8848,3.8437,3.7832,3.6973,3.6758,3.6367,3.5684,3.5664,3.5332,3.4629,3.4434,3.4121,3.3691,3.3262,3.2832,3.2422,3.1992,3.2842,3.4666,3.5391,3.6835,3.8642,3.7864,3.7337,3.701,3.6581,3.6405,3.6405,3.6405,3.6405,3.6355,3.6006,3.6107,3.6179,3.47,3.4449,3.4525,3.342,3.3111,3.3111,3.3111,3.3111,3.3111,3.3111,3.2817,3.2516,3.2265,3.1562,3.0884,3.0658,3.0181,2.9804,2.9804,2.9804,2.9804,2.9804,2.9804,2.9804,2.9804,2.9804,2.9804,2.9804,2.9804,2.9804,2.9804,2.9804,2.9704,2.9453,3.0813,3.1558,3.1314,3.3097,3.3932,3.3551,3.3897,3.4053,3.4053,3.4384,3.4713,3.507,3.507,3.507,3.507,3.4801,3.4292,2.583,0.0,0.0,2.6493,2.7949,2.9336,2.957,3.0566,3.1738,3.291,3.4082,3.5254,3.6445,3.7461,3.8418,3.9375,3.9726,3.9805,3.957,3.8887,3.793,3.6641,3.666,3.7187,3.8223,3.8262,3.8223,3.8223,3.7812,3.7305,3.6699,3.6445,3.6035,3.541,3.5273,3.4844,3.4082,3.4082,3.3848,3.3418,3.2988,3.2578,3.2148,3.1601,3.2662,3.501,3.4575,3.5788,3.7965,3.7412,3.6983,3.6631,3.6455,3.6405,3.6405,3.6405,3.6405,3.6329,3.5683,3.5805,3.5881,3.4399,3.4173,3.4324,3.337,3.3111,3.3111,3.3111,3.3111,3.3111,3.3111,3.2641,3.2164,3.2014,3.1286,3.0583,3.0407,3.008,2.9804,2.9804,2.9804,2.9804,2.9804,2.9804,2.9804,2.9804,2.9804,2.9804,2.9804,2.9804,2.9804,2.9804,2.9804,2.9804,2.9804,3.1526,3.2593,3.2593,3.4409,3.528,3.4771,3.4803,3.4803,3.4803,3.4803,3.5011,3.5519,3.5519,3.5519,3.5519,3.5519,3.525,2.5577,0.0,2.62,2.832,2.9492,3.0371,3.125,3.2109,3.2988,3.3848,3.4746,3.5644,3.6504,3.7695,3.8574,3.8613,3.9336,3.959,3.873,3.8223,3.7461,3.6191,3.5684,3.5625,0.0,3.6855,3.7344,3.7344,3.6953,3.6699,3.668,3.5879,3.543,3.5391,3.4961,3.4512,3.4082,3.4082,3.3848,3.3418,3.2988,3.2578,3.2148,3.1289,3.2189,3.4441,3.4419,3.5788,3.7965,3.7412,3.7186,3.7111,3.6606,3.6405,3.6405,3.6405,3.6405,3.6329,3.5683,3.5508,3.5332,3.4248,3.3897,3.3822,3.3244,3.3111,3.3111,3.3111,3.3111,3.3111,3.3111,3.2641,3.2089,3.1537,3.1009,3.0457,2.993,2.9804,2.9804,2.9804,2.9804,2.9804,2.9804,2.9804,2.9804,2.9804,2.9804,2.9804,2.9804,2.9804,2.9804,2.9804,2.9804,2.9804,2.9804,3.1526,3.2593,3.2593,3.4409,3.5489,3.5459,3.5459,3.5459,3.5459,3.5459,3.5489,3.5519,3.5519,3.5519,3.5519,3.5519,3.5489,2.5332,0.0,2.8086,2.9101,3.043,3.166,3.2226,3.3027,3.3633,3.3633,3.3652,3.375,3.4043,3.4922,3.5781,3.6367,3.7656,3.8476,3.8184,3.7773,3.6816,3.4941,3.4844,0.0,0.0,0.0,0.0,3.6836,3.6484,3.623,3.623,3.5703,3.5254,3.4941,3.4512,3.4082,3.3652,3.3633,3.3418,3.3008,3.2285,3.1719,3.1309,3.1016,3.2411,3.4943,3.4218,3.5432,3.7939,3.701,3.6681,3.6656,3.648,3.6405,3.6405,3.6405,3.6405,3.6329,3.5683,3.578,3.5906,3.4801,3.47,3.4781,3.3897,3.3621,3.3545,3.3194,3.3111,3.3111,3.3111,3.2365,3.1612,3.1436,3.0708,3.0005,2.9829,2.9804,2.9804,2.9804,2.9804,2.9804,2.9804,2.9804,2.9804,2.9804,2.9804,2.9804,2.9804,2.9804,2.9804,2.9804,2.9804,2.9804,2.9804,3.1526,3.2593,3.2593,3.4409,3.5519,3.5519,3.5519,3.5519,3.5519,3.5519,3.5519,3.5519,3.5519,3.5519,3.5519,3.5519,3.5519,2.6309,2.7656,2.918,3.0234,3.1348,3.2324,3.2891,3.332,3.3535,3.3262,3.2617,3.2168,3.2305,3.2656,3.3223,3.4101,3.5273,3.625,3.6699,3.6269,3.5449,3.4219,3.418,3.3809,0.0,0.0,0.0,3.5684,3.5781,3.5723,3.5547,3.5293,3.4941,3.4492,3.4062,3.3711,3.3418,3.3281,3.291,3.2324,3.1777,3.1289,3.0898,3.0898,3.2411,3.492,3.3986,3.5151,3.7638,3.6782,3.6405,3.638,3.6132,3.6081,3.6081,3.6081,3.6081,3.6006,3.5608,3.578,3.5931,3.5002,3.4906,3.5031,3.4173,3.3897,3.3796,3.3244,3.3111,3.3111,3.3111,3.239,3.1687,3.1687,3.1009,3.0306,3.0131,3.008,3.003,2.9829,2.9804,2.9804,2.9804,2.9804,2.9804,2.9804,2.9804,2.9804,2.9804,2.9804,2.9804,2.9804,2.9804,2.9804,2.9804,3.1526,3.2593,3.2593,3.4409,3.5519,3.5519,3.5519,3.5519,3.5519,3.5519,3.5519,3.5519,3.5519,3.5519,3.5519,3.5519,3.5519,2.8398,2.9023,2.959,3.168,3.2207,3.2402,3.3203,3.3066,3.2734,3.2676,3.1621,3.084,3.1191,0.0,3.1035,3.1955,3.25,3.3301,3.4551,3.4043,3.3672,0.0,0.0,0.0,0.0,0.0,0.0,3.4004,0.0,3.5176,3.4766,3.4707,3.4512,3.4082,3.3652,3.3418,3.3418,3.2988,3.2344,3.1523,3.1504,3.1269,3.0898,3.0859,3.2148,3.4397,3.383,3.4965,3.7136,3.6631,3.6405,3.6355,3.578,3.5533,3.5533,3.5533,3.5533,3.5533,3.5533,3.5533,3.5458,3.4931,3.4801,3.47,3.4123,3.3947,3.3822,3.3244,3.3111,3.3111,3.3111,3.2641,3.2215,3.2215,3.1788,3.126,3.0758,3.0658,3.0482,2.9955,2.9804,2.9804,2.9804,2.9804,2.9804,2.9804,2.9804,2.9804,2.9804,2.9804,2.9804,2.9804,2.9804,2.9804,2.9804,3.1526,3.2593,3.2593,3.4409,3.5519,3.5519,3.5519,3.5519,3.5519,3.5519,3.5519,3.5519,3.5519,3.5519,3.5519,3.5519,3.5519,2.9258,3.0351,3.1543,3.2422,3.2637,3.2695,3.291,3.2637,3.2051,3.1055,2.959,2.832,2.7793,2.8379,0.0,3.0098,3.2268,0.0,3.5078,3.5019,0.0,3.457,0.0,3.3652,3.3027,3.3242,0.0,0.0,3.4394,3.498,3.5195,3.4883,3.4512,3.4082,3.3652,3.3418,3.3418,3.2695,3.2051,3.1504,3.1191,3.0996,3.0879,3.0527,3.184,3.4374,3.3525,3.4688,3.7136,3.6631,3.6405,3.638,3.6207,3.6157,3.6157,3.6157,3.6157,3.6157,3.6157,3.6157,3.6132,3.5981,3.5956,3.5755,3.4801,3.4525,3.4299,3.3345,3.3111,3.3111,3.3111,3.2641,3.2215,3.2215,3.1788,3.1361,3.121,3.1185,3.1035,3.0507,3.008,2.9804,2.9804,2.9804,2.9804,2.9804,2.9804,2.9804,2.9804,2.9804,2.9804,2.9804,2.9804,2.9804,2.9804,3.1526,3.2593,3.2593,3.4409,3.5519,3.5519,3.5519,3.5519,3.5519,3.5519,3.5519,3.5519,3.5519,3.5519,3.5519,3.5519,3.5519,3.0781,3.1562,3.2266,3.2695,3.2656,3.2422,3.2051,3.1484,3.0605,2.9101,2.7578,0.0,2.5898,2.6562,0.0,0.0,0.0,0.0,3.4297,3.4375,3.4434,0.0,3.4805,0.0,3.3691,3.4023,3.4199,0.0,3.4258,3.4629,3.5059,3.4668,3.4316,3.4082,3.3652,3.3242,3.2871,3.2207,3.166,3.123,3.0996,3.0898,3.0879,3.041,3.1717,3.4374,0.0,3.4621,3.7136,3.6631,3.6405,3.638,3.6107,3.6006,3.6006,3.6006,3.6006,3.6006,3.6006,3.6006,3.6031,3.6329,3.6405,3.6204,3.5052,3.468,3.45,3.3395,3.3111,3.3111,3.3111,3.2842,3.2591,3.2591,3.2365,3.2064,3.1813,3.1763,3.1512,3.0758,3.0357,3.0156,3.0156,3.0156,3.0156,3.0156,2.9955,2.9804,2.9804,2.9804,2.9804,2.9804,2.9804,2.9804,2.9804,3.1119,3.2164,3.2558,3.4007,3.5034,3.5457,3.5519,3.5519,3.5519,3.5519,3.5519,3.5519,3.5519,3.5519,3.5519,3.5519,3.5519,3.248,3.2578,3.2344,3.2695,3.2402,3.1777,3.0918,3.0039,2.8906,2.7207,0.0,2.5008,2.4949,2.5312,2.6094,2.7441,0.0,3.0469,3.3066,3.3105,3.3476,3.5117,3.5293,3.5137,3.4746,3.5019,3.5078,3.4726,3.4316,3.4258,3.4668,3.4355,3.4082,3.3906,3.3535,3.293,3.209,3.1699,3.1309,3.0898,3.0898,3.0898,3.0879,3.0351,3.1634,3.4209,3.3302,3.4504,3.7036,3.6606,3.6405,3.6355,3.583,3.5608,3.5608,3.5608,3.5608,3.5608,3.5533,3.5508,3.5558,3.6006,3.6179,3.6003,3.4926,3.458,3.4399,3.337,3.3111,3.3111,3.3111,3.3111,3.3111,3.3111,3.3111,3.2943,3.2441,3.2265,3.1938,3.1009,3.0758,3.0708,3.0708,3.0658,3.0608,3.0608,3.0156,2.9804,2.9804,2.9804,2.9804,2.9804,2.9804,2.9804,2.9804,3.0658,3.1536,3.2343,3.3429,3.438,3.5231,3.5424,3.5519,3.5519,3.5519,3.5519,3.5519,3.5519,3.5519,3.5519,3.5519,3.5519,3.332,3.3008,3.2695,3.2773,3.1953,3.0879,3.0,2.9141,0.0,0.0,2.5195,2.4414,2.4082,2.4648,2.5723,2.7454,2.8785,3.0469,3.3066,3.3359,3.3691,0.0,3.4824,3.4785,3.4707,3.4453,0.0,0.0,3.4316,3.4258,3.4668,3.4629,3.4101,3.3047,3.2949,3.25,3.1641,3.1562,3.1309,3.0898,3.0898,3.0898,3.0859,3.0059,3.1162,3.3718,3.2788,0.0,3.6531,3.6455,3.6405,3.6405,3.6304,3.6254,3.6254,3.6254,3.6254,3.6157,3.5658,3.5508,3.5433,3.5082,3.5002,3.4876,3.4248,3.4048,3.3897,3.3269,3.3111,3.3111,3.3111,3.3111,3.3111,3.3111,3.3111,3.3043,3.2943,3.2541,3.2164,3.1964,3.1562,3.126,3.126,3.0909,3.0608,3.0608,3.0156,2.9804,2.9804,2.9804,2.9804,2.9804,2.9804,2.9804,2.9804,3.0658,3.1278,3.1426,3.3052,3.4075,3.4245,3.5067,3.5519,3.5519,3.5519,3.5519,3.5519,3.5519,3.5519,3.5519,3.5519,3.5519,3.4023,3.3613,3.3066,3.2851,3.1836,3.0488,2.8926,0.0,0.0,0.0,2.3997,2.3647,2.3496,2.4336,0.0,2.6484,2.7734,0.0,0.0,0.0,0.0,0.0,3.4707,3.4707,0.0,3.4512,3.4473,3.4687,3.4746,3.4844,3.5059,3.4824,3.4121,3.2832,3.2578,3.2168,3.1523,3.1309,3.1094,3.0898,3.0898,3.0898,3.0859,2.998,3.1059,3.3532,3.2654,3.3848,3.6405,3.6405,3.6405,3.6405,3.6405,3.6405,3.6405,3.6405,3.6405,3.6279,3.5403,3.5257,3.5307,3.4223,3.4449,3.4956,3.4148,3.4098,3.4148,3.3319,3.3111,3.3111,3.3111,3.3111,3.3111,3.3111,3.3111,3.3111,3.3111,3.2616,3.2215,3.2215,3.1989,3.1813,3.1813,3.1361,3.1009,3.1009,3.0306,2.9804,2.9804,2.9804,2.9804,2.9804,2.9804,2.9804,2.9804,3.0216,3.0696,3.1167,3.2486,3.3498,3.3979,3.4968,3.5519,3.5519,3.5519,3.5519,3.5519,3.5519,3.5519,3.5519,3.5519,3.5519,3.4297,3.4004,3.3418,3.2812,3.1621,3.0059,2.7988,2.6523,0.0,0.0,2.3101,2.3101,2.3101,2.3965,2.4863,0.0,2.6523,2.8164,0.0,0.0,0.0,0.0,0.0,0.0,3.457,3.457,0.0,3.4687,3.5039,3.5234,3.5234,3.4805,3.3984,3.2695,3.2344,3.1914,3.1387,3.1055,3.0898,3.0898,3.0898,3.0898,3.0859,3.0078,3.1141,3.3532,3.2766,3.3941,3.6405,3.6405,3.6405,3.6405,3.6405,3.6405,3.6405,3.6405,3.6405,3.6254,3.5102,3.4956,3.5082,3.3571,3.4048,3.4956,3.4022,3.4022,3.4223,3.347,3.3244,3.3294,3.3395,3.342,3.3395,3.3294,3.3169,3.3111,3.3111,3.2717,3.239,3.239,3.239,3.239,3.239,3.1838,3.1386,3.1386,3.0482,2.9804,2.9804,2.9804,2.9804,2.9804,2.9804,2.9804,2.9804,2.9972,3.0419,3.113,3.2272,3.3227,3.3979,3.4968,3.5519,3.5519,3.5519,3.5519,3.5519,3.5519,3.5519,3.5519,3.5519,3.5519,3.373,3.3769,3.373,3.2519,3.1015,2.9238,2.748,0.0,0.0,2.3374,2.3101,2.3101,2.3101,2.3198,2.3666,0.0,0.0,2.6816,0.0,0.0,0.0,0.0,0.0,0.0,0.0,3.4141,0.0,3.4668,3.4746,3.4766,3.4766,3.4355,3.3555,3.2326,3.2187,3.1777,3.0957,3.0918,3.0898,3.0898,3.0898,3.0898,3.0879,3.0371,3.1429,3.3554,3.3146,3.422,0.0,3.6405,3.6405,3.6405,3.6405,3.6405,3.6405,3.6405,3.6405,3.6254,3.5102,3.4705,3.46,3.3445,3.352,3.3947,3.3345,3.3237,3.3319,3.3721,3.3822,3.3947,3.4449,3.4575,3.4449,3.3947,3.3445,3.3111,3.3111,3.3086,3.2993,3.2993,3.2993,3.2993,3.2993,3.2114,3.1386,3.1386,3.0482,2.9804,2.9804,2.9804,2.9804,2.9804,2.9804,2.9804,2.9804,3.0582,3.1119,3.1167,3.2876,3.391,3.3979,3.4968,3.5519,3.5519,3.5519,3.5519,3.5519,3.5519,3.5519,3.5519,3.5519,3.5519,3.3242,3.3555,3.3437,3.2422,3.0664,2.8789,2.7344,0.0,2.4082,2.3257,2.3101,2.3101,2.3101,2.3101,2.3257,0.0,0.0,0.0,2.6973,0.0,0.0,0.0,0.0,0.0,0.0,0.0,3.3848,3.4297,3.4316,3.4199,3.3945,3.3769,3.3223,3.2207,3.1914,3.1484,3.0898,3.0898,3.0898,3.0898,3.0898,3.0898,3.0879,3.041,3.1414,3.3554,3.319,3.4267,0.0,3.6405,3.6405,3.6405,3.6405,3.6405,3.6405,3.6405,3.6157,3.5755,3.5002,3.468,3.455,3.3445,3.3445,3.3796,3.3244,3.3319,3.3545,3.3445,3.3646,3.3947,3.4173,3.4474,3.45,3.3621,3.3495,3.347,3.3144,3.3111,3.3111,3.3111,3.3111,3.3111,3.3111,3.2416,3.1888,3.1888,3.0984,3.0281,3.0281,3.0005,2.9804,2.9804,2.9804,2.9804,2.9804,3.0658,3.1204,3.1204,3.2947,3.3979,3.3979,3.4968,3.5519,3.5519,3.5519,3.5519,3.5519,3.5519,3.5519,3.5519,3.5519,3.5519,3.2305,3.2949,3.3027,3.2187,3.0332,2.8398,0.0,0.0,2.3672,2.3179,2.3101,2.3101,2.3101,2.3101,2.3101,0.0,0.0,2.3842,2.546,0.0,0.0,0.0,0.0,3.1445,0.0,3.332,3.375,3.4043,3.3945,3.3691,3.3262,3.2988,3.2598,3.1992,3.168,3.1328,3.0898,3.0898,3.0898,3.0898,3.0898,3.0898,3.0879,3.0547,3.1558,3.3554,3.3272,3.4407,0.0,3.6405,3.6405,3.6405,3.6405,3.6405,3.6405,3.6405,3.6006,3.5408,3.4881,3.4625,3.4324,3.3395,3.3345,3.3621,3.3395,3.3596,3.3847,3.3621,3.4073,3.4625,3.4625,3.4675,3.4525,3.3746,3.3621,3.3545,3.3169,3.3111,3.3111,3.3111,3.3111,3.3111,3.3111,3.2591,3.2215,3.2215,3.1436,3.0783,3.0633,3.0281,2.998,2.9804,2.9804,2.9804,2.9804,3.0895,3.1609,3.1609,3.3394,3.4442,3.4442,3.5133,3.5519,3.5519,3.5519,3.5519,3.5519,3.5519,3.5519,3.5519,3.5519,3.5519,3.0781,3.1836,3.2598,3.1738,2.9902,2.7969,0.0,0.0,2.3672,2.3179,2.3101,2.3101,2.3101,2.3101,2.3101,2.3101,2.3496,0.0,2.5499,0.0,0.0,0.0,0.0,3.0098,3.1406,3.3066,3.4062,3.4082,3.3672,0.0,3.2832,3.1992,3.1543,3.1523,3.1523,3.1328,3.0898,3.0898,3.0898,3.0898,3.0898,3.0898,3.0898,3.0879,3.1866,3.3576,3.3576,3.4684,0.0,3.6405,3.6405,3.6405,3.6405,3.6405,3.6405,3.6405,3.6006,3.5408,3.4881,3.4374,3.3822,3.3269,3.3111,3.3237,3.3721,3.3897,3.4022,3.455,3.5504,3.638,3.638,3.5529,3.468,3.47,3.3872,3.3136,3.3111,3.3111,3.3111,3.3111,3.3111,3.3111,3.3111,3.2591,3.2215,3.2215,3.1738,3.1185,3.0683,3.0608,3.0407,2.9854,2.9804,2.9804,2.9804,3.1526,3.2593,3.2593,3.4409,3.5457,3.5457,3.5519,3.5519,3.5519,3.5519,3.5519,3.5519,3.5519,3.5519,3.5519,3.5519,3.5519,2.8496,2.9394,2.9941,2.9101,2.7715,2.6367,2.5644,0.0,2.3257,2.312,2.3101,2.3101,2.3101,2.3101,2.3198,2.3535,2.3691,0.0,0.0,0.0,0.0,2.873,3.0859,3.2363,0.0,0.0,3.3633,3.3633,3.3223,3.2812,3.2383,3.1836,3.1523,3.1523,3.123,3.1035,3.0898,3.0898,3.0898,3.0898,3.0898,3.0898,3.0898,3.0898,3.1886,3.3576,3.3576,3.4684,3.6405,3.6405,3.6405,3.6405,3.6405,3.6405,3.6355,3.5956,3.5454,3.4856,3.4349,3.3796,3.3319,3.3187,3.3111,3.3119,3.3294,3.3345,3.352,3.4449,3.5253,3.5805,3.5805,3.583,3.5554,3.4424,3.4173,3.3997,3.3244,3.3111,3.3111,3.3111,3.3111,3.3111,3.3111,3.2918,3.2792,3.2792,3.2315,3.1763,3.121,3.0834,3.0407,2.9854,2.9804,2.9804,2.9804,3.0959,3.1938,3.2558,3.3774,3.4773,3.5457,3.5519,3.5519,3.5519,3.5519,3.5519,3.5519,3.5519,3.5519,3.5519,3.5519,3.5519,2.6855,2.7676,2.8066,2.7559,2.6445,2.5371,0.0,0.0,2.3101,2.3101,2.3101,2.3101,2.3101,2.3101,2.3179,2.3496,2.3535,0.0,0.0,0.0,0.0,2.8945,0.0,0.0,0.0,3.3144,3.3418,3.3418,3.2891,3.2441,3.2187,3.1601,3.1269,3.1269,3.1035,3.0898,3.0898,3.0898,3.0898,3.0898,3.0898,3.0898,3.0898,3.0898,3.1604,3.2855,3.3365,3.4379,0.0,3.6216,3.6405,3.6405,3.6405,3.6279,3.6006,3.5633,3.5031,3.4349,3.4022,3.3545,3.3111,3.3111,3.3262,3.3345,3.3144,3.337,3.3897,3.4776,3.5429,3.5855,3.5855,3.5956,3.5755,3.45,3.4299,3.4173,3.3269,3.3111,3.3111,3.3111,3.3111,3.3111,3.3111,3.3111,3.3111,3.3111,3.2767,3.234,3.1763,3.1235,3.0708,3.0156,3.0105,3.0105,3.0105,3.0788,3.1462,3.2019,3.329,3.4279,3.4905,3.5294,3.5519,3.5519,3.5519,3.5519,3.5519,3.5519,3.5519,3.5519,3.5519,3.5519,0.0,2.6465,2.6777,2.6758,2.582,2.4824,2.4414,0.0,0.0,2.3101,2.3101,2.3101,2.314,2.312,2.312,2.3179,2.3159,2.3633,0.0,2.5957,0.0,0.0,3.084,0.0,3.1562,3.2695,3.3418,3.3379,3.2617,3.2209,3.2129,3.1348,3.0898,3.0898,3.0898,3.0898,3.0898,3.0898,3.0898,3.0898,3.0898,3.0879,3.084,3.084,3.1187,0.0,3.3003,3.3948,3.4629,3.5858,3.6405,3.6405,3.6355,3.5981,3.5483,3.5408,3.4776,3.3897,3.3847,3.3495,3.3111,3.3111,3.342,3.3746,3.3244,3.3847,3.4781,3.5282,3.5881,3.6355,3.6405,3.5956,3.5357,3.4806,3.4299,3.3746,3.3237,3.3111,3.3111,3.3111,3.3111,3.3111,3.3111,3.3111,3.3111,3.3111,3.3111,3.2867,3.229,3.1763,3.126,3.0733,3.0658,3.0658,3.0608,3.0944,3.1172,3.1246,3.2869,3.3842,3.391,3.4872,3.5392,3.5392,3.5457,3.5519,3.5519,3.5519,3.5519,3.5519,3.5519,3.5519,2.3744,0.0,2.4473,2.4095,2.3764,2.353,0.0,2.3237,0.0,0.0,0.0,0.0,0.0,2.3315,2.3315,2.4004,2.3848,2.3965,2.4988,0.0,0.0,3.0449,3.1992,3.2715,3.207,3.2871,3.3281,3.2969,3.2461,3.2012,3.168,3.1172,3.0898,3.0898,3.0898,3.0898,3.0898,3.0898,3.0898,3.0898,3.0898,3.0703,3.0351,3.0351,3.1242,3.2677,3.299,3.4183,3.5953,3.6263,3.6405,3.6355,3.5906,3.5608,3.5408,3.46,3.4123,3.3847,3.342,3.3237,3.3111,3.3111,3.3212,3.3244,3.3162,3.3847,3.4751,3.4831,3.5282,3.583,3.6304,3.5956,3.5357,3.4806,3.4299,3.3746,3.3237,3.3111,3.3111,3.3111,3.3111,3.3111,3.3111,3.3111,3.3111,3.3111,3.3111,3.2867,3.229,3.2089,3.1813,3.126,3.121,3.106,3.0658,3.068,3.1061,3.1751,3.185,3.2164,3.2876,3.3842,3.4346,3.4346,3.51,3.5519,3.5519,3.5519,3.5519,3.5519,3.5519,3.5519,2.3101,2.332,2.3437,2.3159,2.3101,2.3101,2.3101,0.0,0.0,0.0,0.0,0.0,0.0,2.3257,2.3237,2.3705,2.3809,0.0,0.0,0.0,2.9824,3.1309,3.2285,3.2812,0.0,3.3144,3.3242,3.2832,3.2402,3.1973,3.1543,3.1113,3.0898,3.0898,3.0898,3.0898,3.0898,3.0684,3.0684,3.0898,3.0684,3.0449,3.0195,3.0837,3.1498,3.2158,3.3379,3.4539,3.5523,3.6168,3.6254,3.5956,3.5608,3.5182,3.4726,3.4123,3.3746,3.347,3.3194,3.3111,3.3111,3.3111,3.3111,3.3111,3.3111,3.3671,3.4399,3.465,3.5303,3.5981,3.6329,3.5956,3.5357,3.4806,3.4299,3.3746,3.3237,3.3111,3.3111,3.3111,3.3111,3.3111,3.3111,3.3111,3.3111,3.3111,3.3111,3.2968,3.2641,3.2365,3.2089,3.1813,3.1763,3.1662,3.1361,3.1336,3.1251,3.1023,3.1116,3.1426,3.1911,3.3262,3.4211,3.4677,3.5198,3.5519,3.5519,3.5519,3.5519,3.5519,3.5519,3.5519,2.3101,2.314,2.3179,2.312,2.3101,2.3101,2.3101,0.0,0.0,0.0,0.0,0.0,0.0,2.3198,0.0,0.0,0.0,0.0,2.765,2.8691,2.9922,3.1836,3.2246,0.0,3.3164,3.3281,3.3144,3.2734,3.2305,3.1875,3.1445,3.1094,3.0898,3.0898,3.0898,3.0898,3.0898,3.0508,3.0508,3.0879,3.041,3.0156,3.0154,3.1218,3.1529,3.1317,0.0,0.0,3.4775,3.5831,3.5956,3.5483,3.5307,3.468,3.3897,3.3796,3.347,3.3111,3.3111,3.3111,3.3111,3.3111,3.3111,3.3111,3.3111,3.352,3.4123,3.46,3.5403,3.6179,3.6254,3.583,3.5232,3.4726,3.4248,3.3746,3.3237,3.3111,3.3111,3.3111,3.3111,3.3111,3.3111,3.3111,3.3111,3.3111,3.3111,3.3111,3.3111,3.2641,3.234,3.234,3.234,3.2315,3.2215,3.2215,3.1587,3.0131,3.0725,3.1198,3.1389,3.2947,3.4312,3.5457,3.5519,3.5519,3.5519,3.5519,3.5519,3.5519,3.5519,3.5519,2.3101,2.3418,2.3594,2.3198,2.3101,2.3101,2.3101,0.0,0.0,0.0,0.0,0.0,0.0,2.3691,2.3809,0.0,0.0,2.6758,0.0,0.0,3.084,3.1543,0.0,3.3008,3.2422,3.2676,3.2715,3.2285,3.1875,3.1426,3.1016,3.0918,3.0898,3.0898,3.0898,3.0898,3.0898,3.082,3.082,3.0879,3.041,3.0,2.9704,2.9498,3.0405,3.2139,0.0,3.4017,3.6071,3.5762,3.5583,3.5408,3.4525,3.4048,3.3847,3.337,3.3144,3.3111,3.3111,3.3111,3.3111,3.3111,3.3111,3.3111,3.3111,3.3796,3.458,3.47,3.4851,3.5077,3.5508,3.5207,3.47,3.4148,3.3947,3.3746,3.3237,3.3111,3.3111,3.3111,3.3111,3.3111,3.3111,3.3111,3.3111,3.3111,3.3111,3.3111,3.3111,3.2993,3.2943,3.2943,3.2943,3.2742,3.2265,3.2215,3.1913,3.1185,3.0867,3.1215,3.2335,3.2664,3.3636,3.5457,3.5519,3.5519,3.5519,3.5519,3.5519,3.5519,3.5519,3.5519,2.3101,2.3237,2.3379,2.314,2.3276,2.3437,2.314,0.0,0.0,0.0,0.0,0.0,0.0,0.0,2.4844,2.5996,0.0,2.7708,2.9336,2.9922,3.0605,0.0,0.0,3.2676,3.2519,3.2676,3.2519,3.1875,3.1621,3.1328,3.0918,3.0898,3.0898,3.0898,3.0898,3.0898,3.0898,3.0898,3.0762,3.0508,3.0293,2.9844,2.9274,2.9988,3.1085,3.2331,0.0,3.4389,3.5906,3.5608,3.5157,3.46,3.4098,3.3721,3.342,3.3212,3.3111,3.3111,3.3111,3.3111,3.3111,3.3111,3.3111,3.3144,3.342,3.3872,3.4349,3.465,3.4881,3.5257,3.5855,3.5353,3.465,3.4399,3.4123,3.3746,3.3237,3.3111,3.3111,3.3111,3.3111,3.3111,3.3111,3.3111,3.3111,3.3111,3.3111,3.3111,3.3111,3.3111,3.3111,3.3111,3.3111,3.2968,3.2692,3.2692,3.2315,3.1436,3.0909,3.1099,3.224,3.2472,3.3255,3.4643,3.5198,3.5519,3.5519,3.5519,3.5519,3.5519,3.5519,3.5519,2.3101,2.3179,2.3218,2.312,2.3379,2.3574,2.3296,2.3257,0.0,0.0,0.0,0.0,0.0,2.4832,0.0,2.7611,2.8041,2.8648,2.998,3.0098,3.0605,3.2129,3.2226,3.2285,3.2617,3.2559,3.2226,3.1562,3.1426,3.123,3.0918,3.0898,3.0898,3.0898,3.0898,3.0898,3.0898,3.0898,3.0664,3.0195,3.0098,2.9648,2.8926,3.0269,3.1402,3.2381,3.3453,3.4511,3.5483,3.5357,3.4731,3.3897,3.3746,3.3445,3.3111,3.3111,3.3111,3.3111,3.3111,3.3111,3.3111,3.3111,3.3111,3.3169,3.3571,3.3796,3.3997,3.4399,3.4781,3.5207,3.568,3.5353,3.4781,3.4424,3.4198,3.3897,3.3219,3.3111,3.3162,3.3244,3.3212,3.3162,3.3244,3.3169,3.3111,3.3111,3.3111,3.3111,3.3111,3.3111,3.3111,3.3111,3.3111,3.3111,3.3111,3.3111,3.2759,3.1838,3.116,3.1196,3.2133,3.2475,3.3215,3.4439,3.5033,3.5558,3.5938,3.5818,3.5818,3.5938,3.5938,3.5938,2.3101,2.3437,2.3652,2.3198,2.312,2.3237,2.3652,2.375,0.0,2.4812,0.0,0.0,0.0,2.5703,2.6719,2.8027,2.8906,3.0039,3.1738,0.0,3.1719,3.2637,3.2402,3.2187,3.2268,3.1855,3.1582,3.1523,3.1152,3.0918,3.0898,3.0898,3.0898,3.0898,3.0898,3.0898,3.0898,3.0898,3.0664,3.0195,2.9805,2.9375,2.8906,2.8643,2.9921,3.228,3.2381,3.3615,3.5458,3.4956,3.4424,3.3847,3.3345,3.3119,3.3111,3.3111,3.3111,3.3111,3.3111,3.3111,3.3111,3.3111,3.3111,3.3136,3.3162,3.3495,3.3897,3.3947,3.3997,3.4022,3.4073,3.4776,3.5056,3.3571,3.3947,3.4374,3.3294,3.3111,3.3262,3.3746,3.342,3.3244,3.3746,3.342,3.3111,3.3111,3.3111,3.3111,3.3111,3.3111,3.3111,3.3111,3.3111,3.3111,3.3111,3.3111,3.3043,3.3011,3.1938,3.1756,3.2673,3.2764,3.3713,3.5727,3.5216,3.5705,3.7255,3.6686,3.6716,3.7255,3.7255,3.7255,2.3101,2.3218,2.3296,2.314,2.3101,2.3276,0.0,2.4394,2.4668,2.5047,2.5371,0.0,0.0,0.0,2.765,2.8887,2.957,3.0391,3.1601,3.1621,3.1738,3.2344,3.2266,3.207,3.1797,3.1621,3.1406,3.1152,3.0976,3.0898,3.0898,3.0898,3.0898,3.0898,3.0898,3.0898,3.0898,3.0898,3.0527,2.9805,3.0215,2.9883,2.8926,2.9043,3.029,3.228,3.228,3.333,3.4981,3.4756,3.4198,3.337,3.3169,3.3111,3.3111,3.3111,3.3111,3.3111,3.3111,3.3111,3.3111,3.3111,3.3319,3.3596,3.3596,3.3746,3.3897,3.3897,3.3897,3.4048,3.4705,3.468,3.4449,3.4173,3.4148,3.3997,3.3244,3.3111,3.3187,3.3345,3.3262,3.3144,3.3345,3.3219,3.3111,3.3111,3.3111,3.3111,3.3111,3.3111,3.3111,3.3111,3.3111,3.3111,3.3111,3.3111,3.3111,3.3111,3.234,3.2054,3.2398,3.2684,3.3155,3.3963,3.4998,3.5819,3.647,3.6891,3.7195,3.7404,3.7404,3.7404,2.2711,2.2789,2.2906,2.2906,0.0,0.0,2.4563,2.5059,2.543,2.5977,2.6465,2.6875,2.7168,0.0,0.0,0.0,2.9961,3.0664,3.1406,3.1406,3.1484,3.1914,3.1855,3.1641,3.1348,3.1328,3.1191,3.0918,3.0898,3.0898,3.0898,3.0898,3.0898,3.0898,3.0742,3.0742,3.0898,3.0625,3.0234,2.9785,3.0254,2.9863,2.873,2.9023,3.0084,3.1673,3.1923,3.2808,3.4086,3.4345,3.3922,3.3111,3.3111,3.3111,3.3111,3.3111,3.3111,3.3111,3.3111,3.3111,3.3111,3.3111,3.3345,3.3646,3.3646,3.3646,3.3646,3.3646,3.3646,3.3847,3.4731,3.46,3.4173,3.4198,3.4048,3.3746,3.3237,3.3111,3.3162,3.3294,3.3237,3.3144,3.3294,3.3194,3.3111,3.3111,3.3111,3.3111,3.3111,3.3111,3.3111,3.3111,3.3111,3.3111,3.3111,3.3111,3.3111,3.3111,3.2692,3.2491,3.2491,3.2752,3.3022,3.3383,3.4602,3.5619,3.651,3.6957,3.748,3.8033,3.8033,3.8033,2.1894,2.2207,2.2519,2.2519,0.0,0.0,2.5401,2.5693,2.6181,2.7949,2.7969,2.7728,2.7728,2.8008,0.0,2.8848,3.0019,3.1035,3.1445,3.1152,3.1055,3.1465,3.1133,3.0898,3.0898,3.0898,3.0898,3.0898,3.0898,3.0898,3.0879,3.0879,3.0879,3.0879,3.043,3.041,3.0879,3.0,2.9785,3.0176,2.9766,2.9121,2.8301,2.8301,2.9059,3.0338,3.1168,3.1954,3.2745,3.3563,3.3571,3.3111,3.3111,3.3111,3.3111,3.3111,3.3111,3.3111,3.3111,3.3111,3.3111,3.3111,3.3111,3.3136,3.3111,3.3111,3.3136,3.3111,3.3111,3.3194,3.3746,3.4299,3.4424,3.3345,3.3495,3.3746,3.3194,3.3111,3.3244,3.3796,3.3445,3.3244,3.3796,3.3445,3.3111,3.3111,3.3111,3.3111,3.3111,3.3111,3.3111,3.3111,3.3111,3.3111,3.3111,3.3111,3.3111,3.3111,3.3111,3.3111,3.3111,3.3111,3.3598,3.4677,3.4015,3.5031,3.7767,3.7143,3.7689,3.9373,3.9373,3.9373,2.273,2.2808,0.0,2.2906,0.0,0.0,0.0,2.5977,0.0,0.0,2.8398,2.8105,2.8105,0.0,0.0,2.8906,2.9746,3.0566,3.1016,3.0976,3.0937,3.1055,3.0957,3.0898,3.0898,3.0898,3.0898,3.0898,3.0898,3.0742,3.043,3.041,3.0273,2.998,2.9824,2.9824,2.9961,2.9707,2.9473,2.9297,2.918,2.8984,2.873,2.873,2.9287,3.0338,3.1168,3.1954,3.2721,3.3143,3.3219,3.3111,3.3111,3.3111,3.3111,3.3111,3.3111,3.3111,3.3111,3.3111,3.3111,3.3111,3.3345,3.3596,3.3194,3.3345,3.3571,3.3237,3.3111,3.3162,3.3312,3.3445,3.3571,3.3646,3.3495,3.3269,3.3119,3.3111,3.3162,3.3294,3.3194,3.3162,3.3294,3.3237,3.3111,3.3111,3.3111,3.3111,3.3111,3.3111,3.3111,3.3111,3.3111,3.3111,3.3111,3.3111,3.3111,3.3111,3.3111,3.3111,3.3111,3.3111,3.324,3.3556,3.4105,3.4819,3.5628,3.689,3.7754,3.8294,3.9053,3.9373,2.2594,2.2711,0.0,2.3062,2.3906,2.4961,2.5966,0.0,0.0,0.0,2.8945,2.8594,2.8769,2.873,0.0,2.9121,2.9746,3.0351,3.082,3.0898,3.0898,3.0898,3.0898,3.0898,3.0898,3.0898,3.0898,3.0898,3.0898,3.0684,3.0215,3.0195,3.0,2.9646,2.9394,2.9394,2.9626,2.9238,2.9023,2.8926,2.875,2.8672,2.8672,2.8672,2.89,2.9311,3.0438,3.1643,3.2876,3.3015,3.3111,3.3111,3.3111,3.3111,3.3111,3.3111,3.3111,3.3111,3.3111,3.3111,3.3111,3.3111,3.3294,3.352,3.3212,3.3319,3.3495,3.3212,3.3111,3.3111,3.3111,3.3111,3.3169,3.3495,3.3319,3.3111,3.3111,3.3111,3.3111,3.3111,3.3111,3.3111,3.3111,3.3111,3.3111,3.3111,3.3111,3.3111,3.3111,3.3111,3.3111,3.3111,3.3111,3.3111,3.3111,3.3111,3.3111,3.3111,3.3111,3.3111,3.3111,3.3111,3.3111,3.3111,3.4163,3.4897,3.5278,3.6982,3.8032,3.8472,3.909,3.9373,2.1992,2.2305,2.2715,2.3062,2.4199,0.0,2.6836,2.8359,2.9609,2.9961,0.0,2.9121,2.9453,2.8906,2.8652,2.9394,2.9863,3.0293,3.0762,3.0801,3.0801,3.0879,3.0859,3.082,3.082,3.0859,3.0859,3.0781,3.0801,3.0605,3.0117,3.0078,2.9883,2.9473,2.9062,2.9043,2.9509,2.8691,2.8476,2.8848,2.8437,2.8242,2.8242,2.8281,2.8186,2.8058,2.9386,3.1177,3.2993,3.2993,3.3011,3.296,3.296,3.2943,3.2993,3.2993,3.3043,3.3111,3.3061,3.3043,3.3111,3.3061,3.3086,3.3111,3.3111,3.3111,3.3111,3.3111,3.3111,3.3111,3.3111,3.3111,3.3111,3.3111,3.3111,3.3111,3.3111,3.3111,3.3111,3.3111,3.3111,3.3111,3.3111,3.3111,3.3111,3.3111,3.3111,3.3111,3.3111,3.3111,3.3111,3.3111,3.3111,3.3111,3.3111,3.3111,3.3111,3.3111,3.3111,3.3111,3.3111,3.3111,3.3154,3.324,3.4178,3.5197,3.6212,3.7252,3.8294,3.9265,3.9337,3.9373,2.2828,2.3184,0.0,0.0,2.4883,2.6445,2.7734,2.8555,2.8984,2.875,2.9355,2.9746,2.916,2.918,2.9238,2.9082,2.9434,2.9863,3.0293,3.0059,3.0117,3.082,3.0566,3.0351,3.0351,3.0684,3.0605,2.9902,3.0156,3.0019,2.9238,2.9199,2.9004,2.8574,2.8476,2.8476,2.8574,2.8379,2.834,2.8418,2.8008,2.7865,2.7812,2.8144,2.8929,3.0035,3.0002,3.0898,3.239,3.239,3.2139,3.1763,3.1763,3.2014,3.239,3.239,3.2692,3.3061,3.2566,3.2692,3.2993,3.2541,3.2692,3.3111,3.3111,3.3111,3.3111,3.3111,3.3111,3.3111,3.3111,3.3111,3.3111,3.3111,3.3111,3.3111,3.3111,3.3111,3.3111,3.3111,3.3111,3.3111,3.3111,3.3111,3.3111,3.3111,3.3111,3.3111,3.3111,3.3111,3.3111,3.3111,3.3111,3.3111,3.3111,3.3111,3.3111,3.3111,3.3111,3.3111,3.3111,3.3111,3.3513,3.4345,3.4594,3.5197,3.6212,3.7252,3.7919,3.8144,3.9017,3.9373,2.3101,0.0,0.0,2.457,0.0,2.6914,2.7793,2.8476,2.8809,2.8379,2.8984,2.9453,2.9004,2.8945,2.8945,2.8926,2.9101,2.9414,2.9844,2.9707,2.9746,3.0195,3.0039,2.9902,2.9902,3.0117,3.0078,2.9609,2.9766,2.9609,2.8945,2.8926,2.873,2.8301,2.8301,2.8203,2.7988,2.7988,2.7891,2.7676,2.7461,2.7344,2.7363,2.7383,2.8489,3.0329,2.9885,3.0662,3.2215,3.2215,3.1888,3.1386,3.1386,3.1562,3.1813,3.1813,3.2014,3.2215,3.1913,3.2014,3.2215,3.1913,3.219,3.2667,3.2667,3.2867,3.3111,3.3111,3.3111,3.3111,3.3111,3.3111,3.3111,3.3111,3.3111,3.3111,3.3111,3.3111,3.3111,3.3111,3.3111,3.3111,3.3111,3.3111,3.3111,3.3111,3.3111,3.3111,3.3111,3.3111,3.3111,3.3111,3.3111,3.3111,3.3111,3.3111,3.3111,3.3111,3.3111,3.3111,3.3111,3.3111,3.3598,3.4677,3.5156,3.5961,3.6982,3.8032,3.8583,3.8583,3.9156,3.9373,2.3003,0.0,2.4102,2.5362,2.6328,0.0,2.7611,2.8203,2.8633,2.834,2.8633,2.8906,2.8828,2.8516,2.8398,2.875,2.8809,2.8965,2.9394,2.9394,2.945,2.9551,2.9512,2.9453,2.9453,2.9531,2.9567,2.9411,2.9414,2.9277,2.8828,2.875,2.8535,2.8203,2.8105,2.791,2.7559,2.7559,2.7363,2.7012,2.6934,2.6836,2.668,2.6406,2.7626,2.9996,2.9574,3.0425,3.2064,3.2064,3.1687,3.111,3.111,3.116,3.126,3.126,3.1311,3.1386,3.1286,3.1311,3.1386,3.1386,3.1763,3.224,3.234,3.2692,3.3111,3.3111,3.3111,3.3111,3.3111,3.3111,3.3111,3.3111,3.3111,3.3111,3.3111,3.3111,3.3111,3.3111,3.3111,3.3111,3.3111,3.3111,3.3111,3.3111,3.3111,3.3111,3.3111,3.3111,3.3111,3.3111,3.3111,3.3111,3.3111,3.3111,3.3162,3.3219,3.3162,3.3162,3.3219,3.3162,3.3598,3.4677,3.5694,3.6799,3.8069,3.898,3.9373,3.9373,3.9373,3.9373,2.2652,0.0,2.4102,0.0,2.6113,2.668,0.0,0.0,2.793,0.0,2.8633,2.8809,2.8437,2.834,2.832,2.8359,2.8379,2.8516,2.8945,2.8691,2.873,2.9492,2.9238,2.9004,2.9004,2.9355,2.9258,2.8516,2.8809,2.8828,2.8398,2.8027,2.7865,2.7806,2.7383,2.7168,2.7109,2.7109,2.707,2.7012,2.6641,2.6074,2.5332,2.5664,2.7318,2.9996,2.9574,3.0214,3.1486,3.1486,3.0909,3.0005,3.0005,3.0306,3.0708,3.0708,3.1009,3.1336,3.0884,3.1009,3.1386,3.1386,3.1763,3.2315,3.2817,3.3061,3.3111,3.3111,3.3111,3.3111,3.3111,3.3111,3.3111,3.3111,3.3111,3.3111,3.3111,3.3111,3.3111,3.3111,3.3111,3.3111,3.3111,3.3111,3.3111,3.3111,3.3111,3.3111,3.3111,3.3111,3.3111,3.3111,3.3111,3.3111,3.3111,3.3111,3.3294,3.3746,3.3345,3.3294,3.3771,3.3345,3.3598,3.4677,3.5694,3.7214,3.9192,3.9337,3.9373,3.9373,3.9373,3.9373,2.2852,2.3144,2.373,0.0,2.5703,2.6191,2.6816,0.0,2.7363,2.7539,2.791,2.8223,2.8281,2.8301,2.8223,2.7988,2.793,2.8008,2.8184,2.8066,2.8164,2.8789,2.8476,2.8223,2.8223,2.8398,2.8393,2.7969,2.8105,2.8144,2.7949,2.7539,2.7305,2.7305,2.7109,2.6894,2.666,2.666,2.6543,2.6239,2.6113,2.582,2.5449,2.5596,2.6845,2.8858,2.8925,2.9726,3.0959,3.0959,3.0507,2.9804,2.9804,2.993,3.0156,3.0156,3.0306,3.0457,3.0231,3.0306,3.0557,3.0859,3.1311,3.1863,3.2416,3.2817,3.3111,3.3111,3.3111,3.3111,3.3111,3.3111,3.3111,3.3111,3.3111,3.3111,3.3111,3.3111,3.3111,3.3111,3.3111,3.3111,3.3111,3.3111,3.3111,3.3111,3.3111,3.3111,3.3111,3.3111,3.3111,3.3111,3.3111,3.3194,3.352,3.3244,3.3445,3.4299,3.3545,3.3319,3.3872,3.337,3.3598,3.4677,3.5694,3.6954,3.8509,3.909,3.9373,3.9373,3.9373,3.9373,0.0,0.0,2.3198,2.4316,2.498,2.5499,0.0,0.0,2.6758,0.0,2.7285,2.7598,2.791,2.8066,2.8027,2.7767,2.763,2.75,2.75,2.75,2.7617,2.793,2.7695,2.75,2.75,2.75,2.75,2.75,2.75,2.75,2.75,2.709,2.6855,2.6855,2.6758,2.6543,2.623,2.623,2.5996,2.5566,2.5635,2.5518,2.5206,2.5469,2.6104,2.7172,2.8166,2.9355,3.0608,3.0608,3.0281,2.9804,2.9804,2.9804,2.9804,2.9804,2.9804,2.9804,2.9804,2.9804,2.988,3.0432,3.0959,3.1486,3.2039,3.2516,3.2893,3.3086,3.291,3.2717,3.2993,3.3011,3.2893,3.3043,3.3111,3.3111,3.3111,3.3111,3.3111,3.3111,3.3111,3.3111,3.3111,3.3111,3.3111,3.3111,3.3111,3.3111,3.3111,3.3111,3.3111,3.3111,3.3111,3.3294,3.3847,3.352,3.3746,3.4831,3.3897,3.352,3.4098,3.3445,3.3471,3.4262,3.5561,3.6721,3.7805,3.8583,3.9215,3.9679,3.9499,3.9499,0.0,2.2246,0.0,2.3081,2.3822,0.0,0.0,0.0,0.0,0.0,2.7031,2.7051,2.707,2.7422,2.7748,2.7728,2.7324,2.7051,2.7051,2.7051,2.7051,2.709,2.707,2.7051,2.7051,2.7051,2.7051,2.7051,2.7051,2.7051,2.7051,2.6641,2.6426,2.6426,2.6016,2.5752,2.5732,2.5732,2.5547,2.5165,2.5527,2.5098,2.3926,2.4727,2.5062,2.5105,2.7569,2.9355,3.0608,3.0608,3.0281,2.9804,2.9804,2.9804,2.9804,2.9804,2.9804,2.9804,2.9804,2.9804,2.988,3.0432,3.0959,3.1486,3.2039,3.224,3.2365,3.2918,3.229,3.1738,3.2835,3.2667,3.239,3.2943,3.3111,3.3111,3.3111,3.3111,3.3111,3.3111,3.3111,3.3111,3.3111,3.3111,3.3111,3.3111,3.3111,3.3111,3.3111,3.3111,3.3111,3.3111,3.3111,3.3294,3.3847,3.3872,3.4324,3.5382,3.4474,3.4098,3.465,3.3646,3.3111,3.3197,3.5197,3.6721,3.7805,3.7881,3.8727,4.0337,3.9709,3.9738,0.0,0.0,0.0,2.291,2.3379,2.3828,2.4687,2.4883,2.5059,2.5644,2.5996,2.6289,2.6562,2.6953,2.7168,2.6894,0.0,0.0,0.0,0.0,0.0,0.0,2.6602,2.6602,2.6602,2.6602,2.6602,2.6602,2.6602,2.6602,2.6602,2.6211,2.5977,2.5977,2.5547,2.5176,2.4902,2.4883,2.4805,2.4648,2.4824,2.4648,2.4199,2.4512,2.4856,2.527,2.6932,2.8161,2.9059,2.9781,2.998,2.9804,2.9804,2.9804,2.9804,2.9804,2.9804,2.9804,2.9804,2.9804,2.988,3.0432,3.0733,3.0984,3.1512,3.1687,3.1738,3.1938,3.1687,3.1486,3.1888,3.2114,3.2365,3.2943,3.3111,3.3111,3.3111,3.3111,3.3111,3.3111,3.3111,3.3111,3.3111,3.3111,3.3111,3.3111,3.3111,3.3111,3.3111,3.3111,3.3111,3.3111,3.3395,3.3822,3.4374,3.4424,3.4901,3.6006,3.47,3.4299,3.5182,3.4198,3.3771,3.4123,3.5631,3.6716,3.7445,3.8792,4.0003,4.1025,4.0337,4.0187,2.1016,0.0,0.0,0.0,0.0,2.3164,2.4004,0.0,2.4336,2.4766,2.5098,2.5391,2.5664,0.0,0.0,0.0,0.0,0.0,0.0,0.0,0.0,0.0,0.0,0.0,0.0,2.5723,2.5723,2.5723,2.5723,0.0,2.5937,2.5664,2.5508,2.5508,2.5078,2.4707,2.4414,2.4414,2.4355,2.4199,2.4355,2.4258,2.3939,2.4141,2.4371,2.4725,2.6235,2.7355,2.8164,2.9326,2.9804,2.9804,2.9804,2.9804,2.9804,2.9804,2.9804,2.9804,2.9804,2.9804,2.9854,3.0231,3.0457,3.0683,3.1035,3.1135,3.116,3.1336,3.1135,3.0984,3.1537,3.2089,3.2591,3.2993,3.3111,3.3111,3.3111,3.3111,3.3111,3.3111,3.3111,3.3111,3.3111,3.3111,3.3111,3.3111,3.3111,3.3111,3.3111,3.3111,3.3111,3.3111,3.3571,3.4123,3.4675,3.4856,3.5378,3.6355,3.5152,3.4776,3.5458,3.463,3.4349,3.468,3.6218,3.7241,3.7799,3.9392,4.0723,4.1722,4.1025,4.0606,0.0,0.0,0.0,0.0,0.0,0.0,2.3555,0.0,2.3867,2.4316,0.0,0.0,0.0,0.0,0.0,0.0,0.0,0.0,0.0,0.0,0.0,0.0,0.0,0.0,0.0,0.0,0.0,2.4414,2.4414,2.4609,2.5067,2.5106,2.5086,2.5086,2.4609,2.4394,2.4375,2.4375,2.418,2.3769,2.418,2.39,2.3101,2.3574,2.3535,2.3212,2.5526,2.7075,2.8124,2.9326,2.9804,2.9804,2.9804,2.9804,2.9804,2.9804,2.9804,2.9804,2.9804,2.9804,2.9804,2.9804,3.0156,3.0583,3.0583,3.0583,3.0683,3.121,3.0583,3.0156,3.1763,3.2616,3.3068,3.3111,3.3111,3.3111,3.3111,3.3111,3.3111,3.3111,3.3111,3.3111,3.3111,3.3111,3.3111,3.3111,3.3111,3.3111,3.3111,3.3111,3.3111,3.3111,3.3596,3.4148,3.4675,3.5207,3.5805,3.638,3.5855,3.5508,3.5533,3.4981,3.4705,3.4731,3.6893,3.831,3.8974,3.9589,4.0793,4.241,4.1752,4.1055,2.0605,0.0,0.0,0.0,0.0,0.0,2.2676,2.2637,2.2715,0.0,0.0,0.0,0.0,0.0,0.0,0.0,0.0,0.0,0.0,0.0,0.0,0.0,0.0,0.0,0.0,0.0,2.4414,0.0,2.4414,2.4473,2.459,2.459,2.4453,2.416,2.4023,2.3809,2.3452,2.3452,2.3393,2.3276,2.3393,2.3315,2.3101,2.3218,2.3198,2.3212,2.5526,2.6689,2.7098,2.8988,2.9804,2.9804,2.9804,2.9804,2.9804,2.9804,2.9804,2.9804,2.9804,2.9804,2.9804,2.9804,2.9905,3.003,3.003,3.003,3.0055,3.0206,3.003,3.008,3.1311,3.2039,3.2566,3.3011,3.3111,3.3111,3.3111,3.3111,3.3111,3.3111,3.3111,3.3111,3.3111,3.3111,3.3111,3.3111,3.3111,3.3111,3.3111,3.3111,3.3111,3.3111,3.3922,3.455,3.47,3.5579,3.6207,3.6405,3.5855,3.5683,3.6107,3.5604,3.5504,3.5906,3.7318,3.8132,3.8336,4.0572,4.2168,4.306,4.2402,4.1782,0.0,0.0,0.0,0.0,0.0,0.0,2.2051,2.1914,2.1875,0.0,2.2793,0.0,0.0,0.0,0.0,0.0,0.0,0.0,0.0,0.0,0.0,0.0,0.0,0.0,0.0,2.3842,2.3842,2.3842,2.3842,2.3919,2.4141,2.416,2.4043,2.3789,2.3613,2.3398,2.3101,2.3101,2.3101,2.3101,2.3101,2.3101,2.3101,2.3101,2.3101,2.3212,2.5526,2.6524,2.6689,2.887,2.9804,2.9804,2.9804,2.9804,2.9804,2.9804,2.9804,2.9804,2.9804,2.9804,2.9804,2.9804,2.9804,2.9804,2.9804,2.9804,2.9804,2.9804,3.0105,3.0608,3.1235,3.1989,3.2667,3.2993,3.3111,3.3111,3.3111,3.3111,3.3111,3.3111,3.3111,3.3111,3.3111,3.3111,3.3111,3.3111,3.3111,3.3111,3.3111,3.3111,3.3212,3.3395,3.4198,3.4781,3.5006,3.5855,3.6405,3.6405,3.6056,3.6031,3.6405,3.6056,3.6031,3.6405,3.7494,3.8577,3.9552,4.1254,4.2475,4.329,4.294,4.2402,0.0,0.0,0.0,0.0,2.0977,0.0,2.1641,2.1504,2.1327,2.1797,2.1855,0.0,0.0,0.0,0.0,0.0,0.0,0.0,0.0,0.0,0.0,0.0,0.0,0.0,2.3101,2.3101,2.3101,2.3101,2.3101,2.3257,2.3691,2.3711,2.3711,2.3711,2.334,2.3101,2.3101,2.3101,2.3101,2.3101,2.3101,2.3101,2.3101,2.3101,2.3101,2.3212,2.5526,2.6524,2.6689,2.887,2.9804,2.9804,2.9804,2.9804,2.9804,2.9804,2.9804,2.9804,2.9804,2.9804,2.9804,2.9804,2.9804,2.9804,2.9804,2.9804,2.9804,2.9804,3.0532,3.1311,3.1311,3.2139,3.2993,3.2993,3.3043,3.3111,3.3111,3.3111,3.3111,3.3111,3.3111,3.3111,3.3111,3.3111,3.3111,3.3111,3.3111,3.3111,3.3111,3.3162,3.3345,3.3847,3.4449,3.4956,3.5458,3.6031,3.6405,3.6405,3.6405,3.6405,3.6405,3.6405,3.6405,3.6405,3.7494,3.92,4.142,4.167,4.2316,4.329,4.329,4.303,0.0,0.0,0.0,0.0,2.1426,0.0,2.1366,2.1249,2.1327,0.0,2.1602,0.0,0.0,0.0,0.0,0.0,0.0,0.0,0.0,0.0,0.0,0.0,0.0,0.0,2.3101,2.3101,2.3101,2.3101,2.3101,2.314,2.3218,2.3218,2.3218,2.3218,2.314,2.3101,2.3101,2.3101,2.3101,2.3101,2.3101,2.3101,2.3101,2.3101,2.3101,2.3212,2.5526,2.6524,2.6689,2.887,2.9804,2.9804,2.9804,2.9804,2.9804,2.9804,2.9804,2.9804,2.9804,2.9804,2.9804,2.9804,2.9804,2.9804,2.9804,2.9804,2.9804,2.9804,3.0256,3.0758,3.0758,3.1562,3.239,3.239,3.2742,3.3111,3.3111,3.3111,3.3111,3.3111,3.3111,3.3111,3.3111,3.3111,3.3111,3.3111,3.3111,3.3111,3.3111,3.347,3.3771,3.3897,3.4801,3.5382,3.5483,3.6031,3.6405,3.6405,3.6405,3.6405,3.6405,3.6405,3.6405,3.6405,3.7494,3.8827,4.0232,4.207,4.3061,4.329,4.329,4.323,0.0,0.0,0.0,2.1621,0.0,0.0,0.0,2.0859,2.0722,2.1426,2.1211,0.0,0.0,0.0,0.0,0.0,0.0,0.0,0.0,0.0,0.0,0.0,0.0,0.0,2.3101,2.3101,2.3101,2.3101,2.3101,2.3101,2.3101,2.3101,2.3101,2.3101,2.3101,2.3101,2.3101,2.3101,2.3101,2.3101,2.3101,2.3101,2.3101,2.3101,2.3101,2.3212,2.5526,2.6524,2.6689,2.887,2.9804,2.9804,2.9804,2.9804,2.9804,2.9804,2.9804,2.9804,2.9804,2.9804,2.9804,2.9804,2.9804,2.9804,2.9804,2.9804,2.9854,3.0131,3.0407,3.0733,3.126,3.1813,3.229,3.2566,3.2867,3.3111,3.3111,3.3111,3.3111,3.3111,3.3111,3.3111,3.3111,3.3111,3.3111,3.3111,3.3111,3.3111,3.3111,3.3319,3.3696,3.4248,3.4756,3.5307,3.5906,3.6207,3.6405,3.6405,3.6405,3.6405,3.6405,3.6405,3.6662,3.7243,3.8379,3.9579,4.0746,4.2467,4.329,4.329,4.329,4.329,0.0,0.0,0.0,0.0,0.0,2.0996,0.0,0.0,0.0,0.0,0.0,0.0,0.0,0.0,0.0,0.0,0.0,0.0,0.0,0.0,0.0,0.0,0.0,0.0,2.3101,2.3101,2.3101,2.3101,2.3101,2.3101,2.3101,2.3101,2.3101,2.3101,2.3101,2.3101,2.3101,2.3101,2.3101,2.3101,2.3101,2.3101,2.3101,2.3101,2.3101,2.3212,2.5274,2.6318,2.6648,2.8673,2.9585,2.9804,2.9804,2.9804,2.9804,2.9804,2.9804,2.9804,2.9804,2.9804,2.9804,2.9804,2.9804,2.9804,2.9804,2.9804,2.988,3.0331,3.0457,3.0658,3.1512,3.1888,3.2164,3.2641,3.296,3.3111,3.3111,3.3111,3.3111,3.3111,3.3111,3.3111,3.3111,3.3111,3.3111,3.3111,3.3111,3.3162,3.3219,3.3319,3.3771,3.4731,3.4831,3.5278,3.6329,3.6304,3.6304,3.6405,3.6405,3.6405,3.6405,3.6405,3.6849,3.7769,3.9183,4.0361,4.1295,4.2629,4.329,4.329,4.329,4.329,0.0,0.0,0.0,0.0,2.2363,0.0,0.0,0.0,2.0956,2.0703,0.0,0.0,0.0,0.0,0.0,0.0,0.0,0.0,0.0,0.0,0.0,2.3101,2.3101,0.0,0.0,2.3101,2.3101,2.3101,2.3101,2.3101,2.3101,2.3101,2.3101,2.3101,2.3101,2.3101,2.3101,2.3101,2.3101,2.3101,2.3101,2.3101,2.3101,2.3101,2.3101,2.3169,2.4425,2.5588,2.6607,2.7804,2.8885,2.9804,2.9804,2.9804,2.9804,2.9804,2.9804,2.9804,2.9804,2.9804,2.9804,2.9804,2.9804,2.9804,2.9804,2.9804,2.9804,2.9854,2.988,2.9905,3.003,3.0783,3.1486,3.1562,3.234,3.3111,3.3111,3.3111,3.3111,3.3111,3.3111,3.3111,3.3111,3.3111,3.3111,3.3111,3.3111,3.3244,3.3746,3.4223,3.4731,3.5332,3.5408,3.5705,3.6355,3.5906,3.5855,3.638,3.6405,3.6405,3.6405,3.6405,3.6452,3.6593,3.8765,3.9929,4.0102,4.2263,4.329,4.329,4.329,4.329,0.0,0.0,0.0,0.0,0.0,0.0,2.2068,0.0,2.1562,0.0,0.0,0.0,0.0,0.0,0.0,0.0,2.1875,0.0,0.0,0.0,0.0,0.0,0.0,0.0,0.0,0.0,0.0,2.3101,2.3101,2.3101,2.3101,2.3101,2.3101,2.3101,2.3101,2.3101,2.3101,2.3101,2.3101,2.3101,2.3101,2.3101,2.3101,2.3101,2.3101,2.3188,2.4296,2.5462,2.6607,2.7643,2.8767,2.9804,2.9804,2.9804,2.9804,2.9804,2.9804,2.9804,2.9804,2.9804,2.9804,2.9804,2.9804,2.9804,2.9804,2.9804,2.9854,3.0181,3.003,2.993,3.0557,3.0834,3.1085,3.1712,3.224,3.2667,3.2993,3.3111,3.3111,3.3111,3.3111,3.3111,3.3111,3.3111,3.3111,3.3111,3.3345,3.3646,3.3872,3.4374,3.4781,3.5006,3.5307,3.5583,3.5881,3.5981,3.6107,3.638,3.6405,3.6405,3.6405,3.6405,3.6709,3.7381,3.905,4.0232,4.0873,4.2508,4.329,4.329,4.329,4.329,2.3667,0.0,0.0,0.0,0.0,0.0,0.0,0.0,0.0,0.0,0.0,0.0,0.0,0.0,0.0,0.0,0.0,2.1934,0.0,0.0,0.0,0.0,0.0,0.0,0.0,0.0,2.3101,2.3101,2.3101,2.3101,2.3101,2.3101,2.3101,2.3101,2.3101,2.3101,2.3101,2.3101,2.3101,2.3101,2.3101,2.3101,2.3101,2.3101,2.3101,2.3144,2.3953,2.4957,2.613,2.7197,2.8307,2.9326,2.9326,2.9546,2.9804,2.9804,2.9804,2.9804,2.9804,2.9804,2.9804,2.9804,2.9804,2.9804,2.9804,2.9804,2.988,3.0281,3.0105,2.998,3.0758,3.0884,3.1035,3.1813,3.2215,3.2566,3.3036,3.3111,3.3111,3.3111,3.3111,3.3111,3.3111,3.3111,3.3111,3.3111,3.3545,3.3947,3.4098,3.46,3.4956,3.5152,3.5357,3.5558,3.5708,3.6006,3.6207,3.6405,3.6405,3.6405,3.6405,3.6405,3.6803,3.7632,3.9139,4.0318,4.1127,4.2589,4.329,4.329,4.329,4.329,0.0,0.0,0.0,2.3485,0.0,0.0,0.0,0.0,2.1894,0.0,0.0,0.0,0.0,0.0,0.0,0.0,0.0,0.0,0.0,0.0,0.0,0.0,0.0,0.0,0.0,2.3101,2.3101,2.3101,2.3101,2.3101,2.3101,2.3101,2.3101,2.3101,2.3101,2.3101,2.3101,2.3101,2.3101,2.3101,2.3101,2.3101,2.3101,2.3101,2.3101,2.3101,2.3144,2.38,2.4957,2.6088,2.7157,2.8164,2.8164,2.8806,2.9804,2.9804,2.9804,2.9804,2.9804,2.9804,2.9804,2.9804,2.9804,2.9804,2.9804,2.9804,2.9804,2.9804,2.9804,2.9804,2.9829,3.0608,3.1361,3.1411,3.224,3.3086,3.3111,3.3111,3.3111,3.3111,3.3111,3.3111,3.3111,3.3111,3.3111,3.3111,3.3545,3.4098,3.4625,3.5132,3.573,3.6304,3.5855,3.5755,3.6329,3.5855,3.5805,3.638,3.6405,3.6405,3.6405,3.6405,3.6405,3.6452,3.8693,3.9913,3.9956,4.2222,4.329,4.329,4.329,4.329,0.0,0.0,2.7238,2.522,0.0,0.0,0.0,0.0,0.0,0.0,0.0,0.0,0.0,0.0,0.0,0.0,0.0,0.0,0.0,0.0,0.0,0.0,0.0,0.0,0.0,0.0,0.0,2.3081,2.2847,2.2808,2.3081,2.3101,2.3101,2.3101,2.3101,2.3101,2.3101,2.3101,2.3101,2.3101,2.3101,2.3101,2.3101,2.3101,2.3101,2.3101,2.3101,2.3757,2.483,2.521,2.6438,2.8084,2.8084,2.8806,2.9702,2.8949,2.9145,2.9804,2.9804,2.9804,2.9804,2.9804,2.9804,2.9804,2.9804,2.9804,2.9804,2.9804,2.9804,2.988,3.0256,3.0608,3.106,3.1763,3.2215,3.2616,3.2993,3.3111,3.3111,3.3111,3.3111,3.3111,3.3111,3.337,3.3621,3.3621,3.4098,3.465,3.5157,3.5755,3.6006,3.5855,3.5981,3.6006,3.583,3.5981,3.6157,3.6405,3.6405,3.6405,3.6405,3.6405,3.6405,3.6405,3.8693,3.9692,3.9235,4.158,4.2462,4.2043,4.2491,4.291,2.8919,2.9362,0.0,2.7327,2.6663,0.0,2.4666,0.0,2.3633,0.0,0.0,0.0,0.0,0.0,0.0,0.0,0.0,0.0,0.0,2.1327,0.0,0.0,0.0,0.0,0.0,0.0,2.2695,2.3062,2.2711,2.2695,0.0,2.3101,2.3101,2.3101,2.3101,2.3101,2.3101,2.3101,2.3101,2.3101,2.3101,2.3101,2.3101,2.3101,2.3101,2.3101,2.3101,2.3517,2.4211,2.4617,2.5859,2.7522,2.7522,2.845,2.9702,2.8988,2.9145,2.9804,2.9804,2.9804,2.9804,2.9804,2.9804,2.9804,2.9804,2.9804,2.9829,3.003,3.008,3.0206,3.0758,3.1035,3.1361,3.2039,3.2365,3.2616,3.2993,3.3111,3.3111,3.3111,3.3111,3.3111,3.3111,3.3545,3.3897,3.3897,3.4525,3.5107,3.5458,3.6031,3.6279,3.5881,3.6157,3.6254,3.5855,3.6157,3.6405,3.6405,3.6405,3.6405,3.6405,3.6405,3.6505,3.6707,3.88,3.9802,3.9538,4.1463,4.2171,4.1782,4.1961,4.2222]}]]